<?xml version='1.0' encoding='UTF-8'?>
<gpx version="1.1" creator="https://www.komoot.de" xmlns="http://www.topografix.com/GPX/1/1" xmlns:xsi="http://www.w3.org/2001/XMLSchema-instance" xsi:schemaLocation="http://www.topografix.com/GPX/1/1 http://www.topografix.com/GPX/1/1/gpx.xsd">
  <metadata>
    <name>3 patates v2024-09-08T20:53</name>
    <author>
      <link href="https://www.komoot.de">
        <text>komoot</text>
        <type>text/html</type>
      </link>
    </author>
  </metadata>
  <trk>
    <name>3 patates v2024-09-08T20:53</name>
    <trkseg>
      <trkpt lat="48.891602" lon="2.261863">
        <ele>27.211651</ele>
        <time>2024-09-08T18:54:24.234Z</time>
      </trkpt>
      <trkpt lat="48.892245" lon="2.262505">
        <ele>27.211651</ele>
        <time>2024-09-08T18:54:57.129Z</time>
      </trkpt>
      <trkpt lat="48.892245" lon="2.262505">
        <ele>27.211651</ele>
        <time>2024-09-08T18:54:57.149Z</time>
      </trkpt>
      <trkpt lat="48.892243" lon="2.262509">
        <ele>27.211651</ele>
        <time>2024-09-08T18:54:57.191Z</time>
      </trkpt>
      <trkpt lat="48.892131" lon="2.262743">
        <ele>27.222703</ele>
        <time>2024-09-08T18:55:01.077Z</time>
      </trkpt>
      <trkpt lat="48.892131" lon="2.262914">
        <ele>27.242285</ele>
        <time>2024-09-08T18:55:03.260Z</time>
      </trkpt>
      <trkpt lat="48.891621" lon="2.262385">
        <ele>27.349807</ele>
        <time>2024-09-08T18:55:18.186Z</time>
      </trkpt>
      <trkpt lat="48.891190" lon="2.261292">
        <ele>27.495764</ele>
        <time>2024-09-08T18:55:40.849Z</time>
      </trkpt>
      <trkpt lat="48.890968" lon="2.260833">
        <ele>27.764196</ele>
        <time>2024-09-08T18:55:51.744Z</time>
      </trkpt>
      <trkpt lat="48.890760" lon="2.260389">
        <ele>28.178181</ele>
        <time>2024-09-08T18:56:02.364Z</time>
      </trkpt>
      <trkpt lat="48.890711" lon="2.260344">
        <ele>28.244289</ele>
        <time>2024-09-08T18:56:04.187Z</time>
      </trkpt>
      <trkpt lat="48.890368" lon="2.260761">
        <ele>28.751437</ele>
        <time>2024-09-08T18:56:15.767Z</time>
      </trkpt>
      <trkpt lat="48.890240" lon="2.260538">
        <ele>28.976226</ele>
        <time>2024-09-08T18:56:20.121Z</time>
      </trkpt>
      <trkpt lat="48.890204" lon="2.260524">
        <ele>29.019141</ele>
        <time>2024-09-08T18:56:21.091Z</time>
      </trkpt>
      <trkpt lat="48.890272" lon="2.260655">
        <ele>29.145884</ele>
        <time>2024-09-08T18:56:24.575Z</time>
      </trkpt>
      <trkpt lat="48.890240" lon="2.260694">
        <ele>29.193244</ele>
        <time>2024-09-08T18:56:25.953Z</time>
      </trkpt>
      <trkpt lat="48.890147" lon="2.260530">
        <ele>29.357701</ele>
        <time>2024-09-08T18:56:29.008Z</time>
      </trkpt>
      <trkpt lat="48.889996" lon="2.260344">
        <ele>29.582118</ele>
        <time>2024-09-08T18:56:34.772Z</time>
      </trkpt>
      <trkpt lat="48.889627" lon="2.259794">
        <ele>29.849534</ele>
        <time>2024-09-08T18:56:47.906Z</time>
      </trkpt>
      <trkpt lat="48.889472" lon="2.259608">
        <ele>29.947331</ele>
        <time>2024-09-08T18:56:53.172Z</time>
      </trkpt>
      <trkpt lat="48.889435" lon="2.259565">
        <ele>29.970397</ele>
        <time>2024-09-08T18:56:54.227Z</time>
      </trkpt>
      <trkpt lat="48.889165" lon="2.259200">
        <ele>30.149334</ele>
        <time>2024-09-08T18:57:01.103Z</time>
      </trkpt>
      <trkpt lat="48.888908" lon="2.258797">
        <ele>30.332181</ele>
        <time>2024-09-08T18:57:07.915Z</time>
      </trkpt>
      <trkpt lat="48.888434" lon="2.258152">
        <ele>30.584791</ele>
        <time>2024-09-08T18:57:19.787Z</time>
      </trkpt>
      <trkpt lat="48.888094" lon="2.257704">
        <ele>30.717307</ele>
        <time>2024-09-08T18:57:28.860Z</time>
      </trkpt>
      <trkpt lat="48.887845" lon="2.257413">
        <ele>30.809810</ele>
        <time>2024-09-08T18:57:35.426Z</time>
      </trkpt>
      <trkpt lat="48.887310" lon="2.256763">
        <ele>31.011520</ele>
        <time>2024-09-08T18:57:51.917Z</time>
      </trkpt>
      <trkpt lat="48.886401" lon="2.256093">
        <ele>30.667148</ele>
        <time>2024-09-08T18:58:10.613Z</time>
      </trkpt>
      <trkpt lat="48.885997" lon="2.255811">
        <ele>30.504262</ele>
        <time>2024-09-08T18:58:18.190Z</time>
      </trkpt>
      <trkpt lat="48.885284" lon="2.255286">
        <ele>30.219151</ele>
        <time>2024-09-08T18:58:31.970Z</time>
      </trkpt>
      <trkpt lat="48.884970" lon="2.255091">
        <ele>30.099151</ele>
        <time>2024-09-08T18:58:37.949Z</time>
      </trkpt>
      <trkpt lat="48.884915" lon="2.255067">
        <ele>30.078906</ele>
        <time>2024-09-08T18:58:38.921Z</time>
      </trkpt>
      <trkpt lat="48.884244" lon="2.254743">
        <ele>29.829824</ele>
        <time>2024-09-08T18:58:51.098Z</time>
      </trkpt>
      <trkpt lat="48.883701" lon="2.254282">
        <ele>30.002604</ele>
        <time>2024-09-08T18:59:05.730Z</time>
      </trkpt>
      <trkpt lat="48.883398" lon="2.254010">
        <ele>30.293346</ele>
        <time>2024-09-08T18:59:15.635Z</time>
      </trkpt>
      <trkpt lat="48.882922" lon="2.253597">
        <ele>30.746190</ele>
        <time>2024-09-08T18:59:29.368Z</time>
      </trkpt>
      <trkpt lat="48.882390" lon="2.253145">
        <ele>31.208559</ele>
        <time>2024-09-08T18:59:42.908Z</time>
      </trkpt>
      <trkpt lat="48.881513" lon="2.252381">
        <ele>31.086692</ele>
        <time>2024-09-08T19:00:01.601Z</time>
      </trkpt>
      <trkpt lat="48.880674" lon="2.251526">
        <ele>30.938353</ele>
        <time>2024-09-08T19:00:20.105Z</time>
      </trkpt>
      <trkpt lat="48.880077" lon="2.250780">
        <ele>30.767894</ele>
        <time>2024-09-08T19:00:34.711Z</time>
      </trkpt>
      <trkpt lat="48.879423" lon="2.249955">
        <ele>30.560728</ele>
        <time>2024-09-08T19:00:50.396Z</time>
      </trkpt>
      <trkpt lat="48.878549" lon="2.248810">
        <ele>30.051791</ele>
        <time>2024-09-08T19:01:11.433Z</time>
      </trkpt>
      <trkpt lat="48.877782" lon="2.247902">
        <ele>29.611762</ele>
        <time>2024-09-08T19:01:28.325Z</time>
      </trkpt>
      <trkpt lat="48.877541" lon="2.247619">
        <ele>29.469237</ele>
        <time>2024-09-08T19:01:33.890Z</time>
      </trkpt>
      <trkpt lat="48.877542" lon="2.247554">
        <ele>29.449222</ele>
        <time>2024-09-08T19:01:34.578Z</time>
      </trkpt>
      <trkpt lat="48.877512" lon="2.247477">
        <ele>29.421673</ele>
        <time>2024-09-08T19:01:35.588Z</time>
      </trkpt>
      <trkpt lat="48.876971" lon="2.246963">
        <ele>29.123084</ele>
        <time>2024-09-08T19:01:47.344Z</time>
      </trkpt>
      <trkpt lat="48.876466" lon="2.246473">
        <ele>28.899855</ele>
        <time>2024-09-08T19:01:58.224Z</time>
      </trkpt>
      <trkpt lat="48.876355" lon="2.246295">
        <ele>28.859692</ele>
        <time>2024-09-08T19:02:01.232Z</time>
      </trkpt>
      <trkpt lat="48.876333" lon="2.246184">
        <ele>28.840710</ele>
        <time>2024-09-08T19:02:02.541Z</time>
      </trkpt>
      <trkpt lat="48.876339" lon="2.246168">
        <ele>28.837695</ele>
        <time>2024-09-08T19:02:02.755Z</time>
      </trkpt>
      <trkpt lat="48.876299" lon="2.246130">
        <ele>28.825953</ele>
        <time>2024-09-08T19:02:06.005Z</time>
      </trkpt>
      <trkpt lat="48.876282" lon="2.246113">
        <ele>28.820887</ele>
        <time>2024-09-08T19:02:07.400Z</time>
      </trkpt>
      <trkpt lat="48.876246" lon="2.246081">
        <ele>28.810506</ele>
        <time>2024-09-08T19:02:10.297Z</time>
      </trkpt>
      <trkpt lat="48.876236" lon="2.246106">
        <ele>28.805715</ele>
        <time>2024-09-08T19:02:10.652Z</time>
      </trkpt>
      <trkpt lat="48.876157" lon="2.246148">
        <ele>28.784880</ele>
        <time>2024-09-08T19:02:12.244Z</time>
      </trkpt>
      <trkpt lat="48.876051" lon="2.246132">
        <ele>28.758361</ele>
        <time>2024-09-08T19:02:14.207Z</time>
      </trkpt>
      <trkpt lat="48.875358" lon="2.245589">
        <ele>28.564275</ele>
        <time>2024-09-08T19:02:28.718Z</time>
      </trkpt>
      <trkpt lat="48.875338" lon="2.245534">
        <ele>28.553985</ele>
        <time>2024-09-08T19:02:29.556Z</time>
      </trkpt>
      <trkpt lat="48.875317" lon="2.245480">
        <ele>28.543713</ele>
        <time>2024-09-08T19:02:34.630Z</time>
      </trkpt>
      <trkpt lat="48.875272" lon="2.245361">
        <ele>28.521237</ele>
        <time>2024-09-08T19:02:36.669Z</time>
      </trkpt>
      <trkpt lat="48.874665" lon="2.244825">
        <ele>28.598830</ele>
        <time>2024-09-08T19:02:52.005Z</time>
      </trkpt>
      <trkpt lat="48.873526" lon="2.243591">
        <ele>28.771372</ele>
        <time>2024-09-08T19:03:23.334Z</time>
      </trkpt>
      <trkpt lat="48.872942" lon="2.243062">
        <ele>28.865772</ele>
        <time>2024-09-08T19:03:38.153Z</time>
      </trkpt>
      <trkpt lat="48.872748" lon="2.242931">
        <ele>28.895249</ele>
        <time>2024-09-08T19:03:42.767Z</time>
      </trkpt>
      <trkpt lat="48.872641" lon="2.242890">
        <ele>28.910573</ele>
        <time>2024-09-08T19:03:45.249Z</time>
      </trkpt>
      <trkpt lat="48.872533" lon="2.242725">
        <ele>28.931834</ele>
        <time>2024-09-08T19:03:48.496Z</time>
      </trkpt>
      <trkpt lat="48.872499" lon="2.242619">
        <ele>28.942606</ele>
        <time>2024-09-08T19:03:50.278Z</time>
      </trkpt>
      <trkpt lat="48.872473" lon="2.242118">
        <ele>28.982916</ele>
        <time>2024-09-08T19:03:57.627Z</time>
      </trkpt>
      <trkpt lat="48.872437" lon="2.241949">
        <ele>28.986074</ele>
        <time>2024-09-08T19:04:00.328Z</time>
      </trkpt>
      <trkpt lat="48.872069" lon="2.241320">
        <ele>29.001038</ele>
        <time>2024-09-08T19:04:12.651Z</time>
      </trkpt>
      <trkpt lat="48.871683" lon="2.240576">
        <ele>29.017881</ele>
        <time>2024-09-08T19:04:25.991Z</time>
      </trkpt>
      <trkpt lat="48.871470" lon="2.240093">
        <ele>29.028218</ele>
        <time>2024-09-08T19:04:33.958Z</time>
      </trkpt>
      <trkpt lat="48.871204" lon="2.239352">
        <ele>28.943467</ele>
        <time>2024-09-08T19:04:45.730Z</time>
      </trkpt>
      <trkpt lat="48.870817" lon="2.238063">
        <ele>28.776131</ele>
        <time>2024-09-08T19:05:05.240Z</time>
      </trkpt>
      <trkpt lat="48.870626" lon="2.237350">
        <ele>28.660606</ele>
        <time>2024-09-08T19:05:15.612Z</time>
      </trkpt>
      <trkpt lat="48.870373" lon="2.236231">
        <ele>28.364733</ele>
        <time>2024-09-08T19:05:31.233Z</time>
      </trkpt>
      <trkpt lat="48.870327" lon="2.236180">
        <ele>28.343090</ele>
        <time>2024-09-08T19:05:32.401Z</time>
      </trkpt>
      <trkpt lat="48.870270" lon="2.236177">
        <ele>28.321408</ele>
        <time>2024-09-08T19:05:33.575Z</time>
      </trkpt>
      <trkpt lat="48.869951" lon="2.236347">
        <ele>28.192905</ele>
        <time>2024-09-08T19:05:40.526Z</time>
      </trkpt>
      <trkpt lat="48.869729" lon="2.235297">
        <ele>28.024006</ele>
        <time>2024-09-08T19:05:55.305Z</time>
      </trkpt>
      <trkpt lat="48.869920" lon="2.235152">
        <ele>28.024410</ele>
        <time>2024-09-08T19:05:59.647Z</time>
      </trkpt>
      <trkpt lat="48.869937" lon="2.235085">
        <ele>28.024499</ele>
        <time>2024-09-08T19:06:05.475Z</time>
      </trkpt>
      <trkpt lat="48.869425" lon="2.234020">
        <ele>28.026140</ele>
        <time>2024-09-08T19:06:22.013Z</time>
      </trkpt>
      <trkpt lat="48.869425" lon="2.234020">
        <ele>28.026140</ele>
        <time>2024-09-08T19:06:22.013Z</time>
      </trkpt>
      <trkpt lat="48.869103" lon="2.233466">
        <ele>28.118250</ele>
        <time>2024-09-08T19:06:32.085Z</time>
      </trkpt>
      <trkpt lat="48.868710" lon="2.232867">
        <ele>28.648819</ele>
        <time>2024-09-08T19:06:45.336Z</time>
      </trkpt>
      <trkpt lat="48.867838" lon="2.231795">
        <ele>29.717996</ele>
        <time>2024-09-08T19:07:14.011Z</time>
      </trkpt>
      <trkpt lat="48.867678" lon="2.231680">
        <ele>29.774607</ele>
        <time>2024-09-08T19:07:18.171Z</time>
      </trkpt>
      <trkpt lat="48.867624" lon="2.231656">
        <ele>29.786778</ele>
        <time>2024-09-08T19:07:19.531Z</time>
      </trkpt>
      <trkpt lat="48.867510" lon="2.231669">
        <ele>29.811508</ele>
        <time>2024-09-08T19:07:22.050Z</time>
      </trkpt>
      <trkpt lat="48.867484" lon="2.231464">
        <ele>29.841217</ele>
        <time>2024-09-08T19:07:26.576Z</time>
      </trkpt>
      <trkpt lat="48.867442" lon="2.231362">
        <ele>29.858340</ele>
        <time>2024-09-08T19:07:29.256Z</time>
      </trkpt>
      <trkpt lat="48.866735" lon="2.230705">
        <ele>30.037593</ele>
        <time>2024-09-08T19:07:56.180Z</time>
      </trkpt>
      <trkpt lat="48.866726" lon="2.230697">
        <ele>30.039848</ele>
        <time>2024-09-08T19:07:56.495Z</time>
      </trkpt>
      <trkpt lat="48.866740" lon="2.230643">
        <ele>30.048108</ele>
        <time>2024-09-08T19:07:57.688Z</time>
      </trkpt>
      <trkpt lat="48.866470" lon="2.230425">
        <ele>30.114243</ele>
        <time>2024-09-08T19:08:07.396Z</time>
      </trkpt>
      <trkpt lat="48.866448" lon="2.230472">
        <ele>30.122451</ele>
        <time>2024-09-08T19:08:08.570Z</time>
      </trkpt>
      <trkpt lat="48.866264" lon="2.230345">
        <ele>30.022035</ele>
        <time>2024-09-08T19:08:14.697Z</time>
      </trkpt>
      <trkpt lat="48.865888" lon="2.230029">
        <ele>29.736299</ele>
        <time>2024-09-08T19:08:27.519Z</time>
      </trkpt>
      <trkpt lat="48.865544" lon="2.229836">
        <ele>29.492433</ele>
        <time>2024-09-08T19:08:38.267Z</time>
      </trkpt>
      <trkpt lat="48.865432" lon="2.229707">
        <ele>29.398979</ele>
        <time>2024-09-08T19:08:42.388Z</time>
      </trkpt>
      <trkpt lat="48.865015" lon="2.229428">
        <ele>29.095974</ele>
        <time>2024-09-08T19:08:55.734Z</time>
      </trkpt>
      <trkpt lat="48.863998" lon="2.228938">
        <ele>28.534426</ele>
        <time>2024-09-08T19:09:28.377Z</time>
      </trkpt>
      <trkpt lat="48.863841" lon="2.228911">
        <ele>28.457714</ele>
        <time>2024-09-08T19:09:33.262Z</time>
      </trkpt>
      <trkpt lat="48.863786" lon="2.228930">
        <ele>28.430330</ele>
        <time>2024-09-08T19:09:34.976Z</time>
      </trkpt>
      <trkpt lat="48.863734" lon="2.228868">
        <ele>28.398244</ele>
        <time>2024-09-08T19:09:36.956Z</time>
      </trkpt>
      <trkpt lat="48.863495" lon="2.228781">
        <ele>28.278926</ele>
        <time>2024-09-08T19:09:44.480Z</time>
      </trkpt>
      <trkpt lat="48.863289" lon="2.228731">
        <ele>28.177644</ele>
        <time>2024-09-08T19:09:50.753Z</time>
      </trkpt>
      <trkpt lat="48.863183" lon="2.228705">
        <ele>28.125514</ele>
        <time>2024-09-08T19:09:54.026Z</time>
      </trkpt>
      <trkpt lat="48.862869" lon="2.228622">
        <ele>28.035053</ele>
        <time>2024-09-08T19:10:03.745Z</time>
      </trkpt>
      <trkpt lat="48.862457" lon="2.228479">
        <ele>27.975540</ele>
        <time>2024-09-08T19:10:16.829Z</time>
      </trkpt>
      <trkpt lat="48.862028" lon="2.228308">
        <ele>27.913084</ele>
        <time>2024-09-08T19:10:30.853Z</time>
      </trkpt>
      <trkpt lat="48.861823" lon="2.228215">
        <ele>27.882957</ele>
        <time>2024-09-08T19:10:37.753Z</time>
      </trkpt>
      <trkpt lat="48.861419" lon="2.228030">
        <ele>27.823538</ele>
        <time>2024-09-08T19:10:51.529Z</time>
      </trkpt>
      <trkpt lat="48.861249" lon="2.227997">
        <ele>27.793764</ele>
        <time>2024-09-08T19:10:56.893Z</time>
      </trkpt>
      <trkpt lat="48.860889" lon="2.227884">
        <ele>27.708119</ele>
        <time>2024-09-08T19:11:08.328Z</time>
      </trkpt>
      <trkpt lat="48.860605" lon="2.227736">
        <ele>27.638171</ele>
        <time>2024-09-08T19:11:17.550Z</time>
      </trkpt>
      <trkpt lat="48.860511" lon="2.227583">
        <ele>27.606084</ele>
        <time>2024-09-08T19:11:21.769Z</time>
      </trkpt>
      <trkpt lat="48.860371" lon="2.227512">
        <ele>27.571698</ele>
        <time>2024-09-08T19:11:26.397Z</time>
      </trkpt>
      <trkpt lat="48.859727" lon="2.227227">
        <ele>27.415426</ele>
        <time>2024-09-08T19:11:47.221Z</time>
      </trkpt>
      <trkpt lat="48.859343" lon="2.227021">
        <ele>27.335836</ele>
        <time>2024-09-08T19:11:59.913Z</time>
      </trkpt>
      <trkpt lat="48.859155" lon="2.226910">
        <ele>27.299344</ele>
        <time>2024-09-08T19:12:06.122Z</time>
      </trkpt>
      <trkpt lat="48.858611" lon="2.226690">
        <ele>27.197493</ele>
        <time>2024-09-08T19:12:23.423Z</time>
      </trkpt>
      <trkpt lat="48.857873" lon="2.226288">
        <ele>27.065755</ele>
        <time>2024-09-08T19:12:48.261Z</time>
      </trkpt>
      <trkpt lat="48.856586" lon="2.225727">
        <ele>27.134038</ele>
        <time>2024-09-08T19:13:31.550Z</time>
      </trkpt>
      <trkpt lat="48.856345" lon="2.225590">
        <ele>27.147160</ele>
        <time>2024-09-08T19:13:39.692Z</time>
      </trkpt>
      <trkpt lat="48.855498" lon="2.225404">
        <ele>27.155509</ele>
        <time>2024-09-08T19:14:06.710Z</time>
      </trkpt>
      <trkpt lat="48.854864" lon="2.225319">
        <ele>27.155734</ele>
        <time>2024-09-08T19:14:26.744Z</time>
      </trkpt>
      <trkpt lat="48.854412" lon="2.225318">
        <ele>27.155893</ele>
        <time>2024-09-08T19:14:41.554Z</time>
      </trkpt>
      <trkpt lat="48.854412" lon="2.225318">
        <ele>27.155893</ele>
        <time>2024-09-08T19:14:41.560Z</time>
      </trkpt>
      <trkpt lat="48.853895" lon="2.225426">
        <ele>27.570351</ele>
        <time>2024-09-08T19:14:58.275Z</time>
      </trkpt>
      <trkpt lat="48.853506" lon="2.225710">
        <ele>27.922025</ele>
        <time>2024-09-08T19:15:12.878Z</time>
      </trkpt>
      <trkpt lat="48.853436" lon="2.225854">
        <ele>28.018022</ele>
        <time>2024-09-08T19:15:17.005Z</time>
      </trkpt>
      <trkpt lat="48.853212" lon="2.226166">
        <ele>28.265624</ele>
        <time>2024-09-08T19:15:27.816Z</time>
      </trkpt>
      <trkpt lat="48.853170" lon="2.226169">
        <ele>28.299888</ele>
        <time>2024-09-08T19:15:28.896Z</time>
      </trkpt>
      <trkpt lat="48.853023" lon="2.225960">
        <ele>28.463925</ele>
        <time>2024-09-08T19:15:34.105Z</time>
      </trkpt>
      <trkpt lat="48.853030" lon="2.225942">
        <ele>28.475136</ele>
        <time>2024-09-08T19:15:35.024Z</time>
      </trkpt>
      <trkpt lat="48.853035" lon="2.225915">
        <ele>28.490176</ele>
        <time>2024-09-08T19:15:37.368Z</time>
      </trkpt>
      <trkpt lat="48.853034" lon="2.225850">
        <ele>28.525038</ele>
        <time>2024-09-08T19:15:40.341Z</time>
      </trkpt>
      <trkpt lat="48.853029" lon="2.225781">
        <ele>28.562259</ele>
        <time>2024-09-08T19:15:45.959Z</time>
      </trkpt>
      <trkpt lat="48.853026" lon="2.225756">
        <ele>28.575885</ele>
        <time>2024-09-08T19:15:47.092Z</time>
      </trkpt>
      <trkpt lat="48.853020" lon="2.225688">
        <ele>28.612673</ele>
        <time>2024-09-08T19:15:52.672Z</time>
      </trkpt>
      <trkpt lat="48.853019" lon="2.225662">
        <ele>28.641409</ele>
        <time>2024-09-08T19:15:53.872Z</time>
      </trkpt>
      <trkpt lat="48.852833" lon="2.222367">
        <ele>36.833943</ele>
        <time>2024-09-08T19:18:25.183Z</time>
      </trkpt>
      <trkpt lat="48.852833" lon="2.222367">
        <ele>36.833943</ele>
        <time>2024-09-08T19:18:25.343Z</time>
      </trkpt>
      <trkpt lat="48.852833" lon="2.222367">
        <ele>36.833943</ele>
        <time>2024-09-08T19:18:25.343Z</time>
      </trkpt>
      <trkpt lat="48.852784" lon="2.221496">
        <ele>40.495318</ele>
        <time>2024-09-08T19:18:49.983Z</time>
      </trkpt>
      <trkpt lat="48.852735" lon="2.220624">
        <ele>44.160869</ele>
        <time>2024-09-08T19:19:14.669Z</time>
      </trkpt>
      <trkpt lat="48.852707" lon="2.219950">
        <ele>47.189869</ele>
        <time>2024-09-08T19:19:33.720Z</time>
      </trkpt>
      <trkpt lat="48.852701" lon="2.219876">
        <ele>47.556663</ele>
        <time>2024-09-08T19:19:35.828Z</time>
      </trkpt>
      <trkpt lat="48.852375" lon="2.219920">
        <ele>50.003569</ele>
        <time>2024-09-08T19:19:49.850Z</time>
      </trkpt>
      <trkpt lat="48.852375" lon="2.219920">
        <ele>50.003569</ele>
        <time>2024-09-08T19:19:49.927Z</time>
      </trkpt>
      <trkpt lat="48.852375" lon="2.219920">
        <ele>50.003569</ele>
        <time>2024-09-08T19:19:49.938Z</time>
      </trkpt>
      <trkpt lat="48.852273" lon="2.219970">
        <ele>50.804853</ele>
        <time>2024-09-08T19:19:55.426Z</time>
      </trkpt>
      <trkpt lat="48.852260" lon="2.219923">
        <ele>51.055667</ele>
        <time>2024-09-08T19:19:57.547Z</time>
      </trkpt>
      <trkpt lat="48.852215" lon="2.219893">
        <ele>51.423053</ele>
        <time>2024-09-08T19:20:00.335Z</time>
      </trkpt>
      <trkpt lat="48.852165" lon="2.219955">
        <ele>51.905519</ele>
        <time>2024-09-08T19:20:03.390Z</time>
      </trkpt>
      <trkpt lat="48.851851" lon="2.219914">
        <ele>54.261765</ele>
        <time>2024-09-08T19:20:21.570Z</time>
      </trkpt>
      <trkpt lat="48.851797" lon="2.219909">
        <ele>54.666240</ele>
        <time>2024-09-08T19:20:24.285Z</time>
      </trkpt>
      <trkpt lat="48.851286" lon="2.219849">
        <ele>58.498078</ele>
        <time>2024-09-08T19:20:54.262Z</time>
      </trkpt>
      <trkpt lat="48.850845" lon="2.219733">
        <ele>61.347254</ele>
        <time>2024-09-08T19:21:19.372Z</time>
      </trkpt>
      <trkpt lat="48.850119" lon="2.219298">
        <ele>66.047189</ele>
        <time>2024-09-08T19:21:58.733Z</time>
      </trkpt>
      <trkpt lat="48.849948" lon="2.219196">
        <ele>67.153534</ele>
        <time>2024-09-08T19:22:07.349Z</time>
      </trkpt>
      <trkpt lat="48.849577" lon="2.219046">
        <ele>69.465623</ele>
        <time>2024-09-08T19:22:24.922Z</time>
      </trkpt>
      <trkpt lat="48.849499" lon="2.219045">
        <ele>69.935397</ele>
        <time>2024-09-08T19:22:28.091Z</time>
      </trkpt>
      <trkpt lat="48.849447" lon="2.219049">
        <ele>70.170448</ele>
        <time>2024-09-08T19:22:30.317Z</time>
      </trkpt>
      <trkpt lat="48.849421" lon="2.218951">
        <ele>70.332062</ele>
        <time>2024-09-08T19:22:34.107Z</time>
      </trkpt>
      <trkpt lat="48.849110" lon="2.218826">
        <ele>71.079777</ele>
        <time>2024-09-08T19:22:46.831Z</time>
      </trkpt>
      <trkpt lat="48.848574" lon="2.218753">
        <ele>72.330599</ele>
        <time>2024-09-08T19:23:05.876Z</time>
      </trkpt>
      <trkpt lat="48.848609" lon="2.218618">
        <ele>72.552531</ele>
        <time>2024-09-08T19:23:08.385Z</time>
      </trkpt>
      <trkpt lat="48.848594" lon="2.218520">
        <ele>72.706424</ele>
        <time>2024-09-08T19:23:10.312Z</time>
      </trkpt>
      <trkpt lat="48.848534" lon="2.218424">
        <ele>72.908930</ele>
        <time>2024-09-08T19:23:13.287Z</time>
      </trkpt>
      <trkpt lat="48.848453" lon="2.218474">
        <ele>73.112139</ele>
        <time>2024-09-08T19:23:14.938Z</time>
      </trkpt>
      <trkpt lat="48.847969" lon="2.218605">
        <ele>74.254808</ele>
        <time>2024-09-08T19:23:24.616Z</time>
      </trkpt>
      <trkpt lat="48.847375" lon="2.218553">
        <ele>74.499864</ele>
        <time>2024-09-08T19:23:35.713Z</time>
      </trkpt>
      <trkpt lat="48.847056" lon="2.218544">
        <ele>74.609858</ele>
        <time>2024-09-08T19:23:43.116Z</time>
      </trkpt>
      <trkpt lat="48.846331" lon="2.218663">
        <ele>74.861257</ele>
        <time>2024-09-08T19:23:59.224Z</time>
      </trkpt>
      <trkpt lat="48.846105" lon="2.218700">
        <ele>74.948888</ele>
        <time>2024-09-08T19:24:03.973Z</time>
      </trkpt>
      <trkpt lat="48.845970" lon="2.218750">
        <ele>75.021673</ele>
        <time>2024-09-08T19:24:06.614Z</time>
      </trkpt>
      <trkpt lat="48.845899" lon="2.218754">
        <ele>75.058890</ele>
        <time>2024-09-08T19:24:07.790Z</time>
      </trkpt>
      <trkpt lat="48.845457" lon="2.218809">
        <ele>75.291192</ele>
        <time>2024-09-08T19:24:16.531Z</time>
      </trkpt>
      <trkpt lat="48.845364" lon="2.218774">
        <ele>75.341378</ele>
        <time>2024-09-08T19:24:18.920Z</time>
      </trkpt>
      <trkpt lat="48.844636" lon="2.218741">
        <ele>75.722887</ele>
        <time>2024-09-08T19:24:37.246Z</time>
      </trkpt>
      <trkpt lat="48.844492" lon="2.218708">
        <ele>75.799170</ele>
        <time>2024-09-08T19:24:40.330Z</time>
      </trkpt>
      <trkpt lat="48.844437" lon="2.218668">
        <ele>75.831109</ele>
        <time>2024-09-08T19:24:41.527Z</time>
      </trkpt>
      <trkpt lat="48.844359" lon="2.218590">
        <ele>75.850284</ele>
        <time>2024-09-08T19:24:43.696Z</time>
      </trkpt>
      <trkpt lat="48.844331" lon="2.218570">
        <ele>75.836519</ele>
        <time>2024-09-08T19:24:44.342Z</time>
      </trkpt>
      <trkpt lat="48.843933" lon="2.218332">
        <ele>75.646238</ele>
        <time>2024-09-08T19:24:52.296Z</time>
      </trkpt>
      <trkpt lat="48.843716" lon="2.218202">
        <ele>75.542466</ele>
        <time>2024-09-08T19:24:56.274Z</time>
      </trkpt>
      <trkpt lat="48.843578" lon="2.218126">
        <ele>75.477164</ele>
        <time>2024-09-08T19:24:58.716Z</time>
      </trkpt>
      <trkpt lat="48.842982" lon="2.218050">
        <ele>75.211082</ele>
        <time>2024-09-08T19:25:08.996Z</time>
      </trkpt>
      <trkpt lat="48.842596" lon="2.218034">
        <ele>75.111588</ele>
        <time>2024-09-08T19:25:15.841Z</time>
      </trkpt>
      <trkpt lat="48.841578" lon="2.217766">
        <ele>76.010350</ele>
        <time>2024-09-08T19:25:34.554Z</time>
      </trkpt>
      <trkpt lat="48.841324" lon="2.217640">
        <ele>76.242785</ele>
        <time>2024-09-08T19:25:41.867Z</time>
      </trkpt>
      <trkpt lat="48.840798" lon="2.217509">
        <ele>77.103445</ele>
        <time>2024-09-08T19:26:18.929Z</time>
      </trkpt>
      <trkpt lat="48.840749" lon="2.217497">
        <ele>77.366221</ele>
        <time>2024-09-08T19:26:20.637Z</time>
      </trkpt>
      <trkpt lat="48.840695" lon="2.217356">
        <ele>77.934672</ele>
        <time>2024-09-08T19:26:24.792Z</time>
      </trkpt>
      <trkpt lat="48.840624" lon="2.217287">
        <ele>78.380893</ele>
        <time>2024-09-08T19:26:28.162Z</time>
      </trkpt>
      <trkpt lat="48.840550" lon="2.217194">
        <ele>78.889338</ele>
        <time>2024-09-08T19:26:32.453Z</time>
      </trkpt>
      <trkpt lat="48.840102" lon="2.216752">
        <ele>81.717433</ele>
        <time>2024-09-08T19:26:56.399Z</time>
      </trkpt>
      <trkpt lat="48.840317" lon="2.216597">
        <ele>82.977376</ele>
        <time>2024-09-08T19:27:08.890Z</time>
      </trkpt>
      <trkpt lat="48.840119" lon="2.216495">
        <ele>84.084290</ele>
        <time>2024-09-08T19:27:19.450Z</time>
      </trkpt>
      <trkpt lat="48.839791" lon="2.216404">
        <ele>85.849579</ele>
        <time>2024-09-08T19:27:37.591Z</time>
      </trkpt>
      <trkpt lat="48.839732" lon="2.216304">
        <ele>86.250615</ele>
        <time>2024-09-08T19:27:44.079Z</time>
      </trkpt>
      <trkpt lat="48.839788" lon="2.216212">
        <ele>86.511553</ele>
        <time>2024-09-08T19:27:49.925Z</time>
      </trkpt>
      <trkpt lat="48.839965" lon="2.216230">
        <ele>87.072794</ele>
        <time>2024-09-08T19:27:58.179Z</time>
      </trkpt>
      <trkpt lat="48.839955" lon="2.215781">
        <ele>88.008273</ele>
        <time>2024-09-08T19:28:12.824Z</time>
      </trkpt>
      <trkpt lat="48.839936" lon="2.214987">
        <ele>89.662697</ele>
        <time>2024-09-08T19:28:33.594Z</time>
      </trkpt>
      <trkpt lat="48.839928" lon="2.214655">
        <ele>90.354478</ele>
        <time>2024-09-08T19:28:39.911Z</time>
      </trkpt>
      <trkpt lat="48.839917" lon="2.213757">
        <ele>91.473921</ele>
        <time>2024-09-08T19:28:52.652Z</time>
      </trkpt>
      <trkpt lat="48.839913" lon="2.213359">
        <ele>90.677961</ele>
        <time>2024-09-08T19:28:57.033Z</time>
      </trkpt>
      <trkpt lat="48.838153" lon="2.211806">
        <ele>85.227518</ele>
        <time>2024-09-08T19:29:47.810Z</time>
      </trkpt>
      <trkpt lat="48.838140" lon="2.211521">
        <ele>84.878724</ele>
        <time>2024-09-08T19:29:50.667Z</time>
      </trkpt>
      <trkpt lat="48.838094" lon="2.210498">
        <ele>83.626819</ele>
        <time>2024-09-08T19:30:02.114Z</time>
      </trkpt>
      <trkpt lat="48.837789" lon="2.211031">
        <ele>83.518544</ele>
        <time>2024-09-08T19:30:18.756Z</time>
      </trkpt>
      <trkpt lat="48.837638" lon="2.210699">
        <ele>84.371596</ele>
        <time>2024-09-08T19:30:28.450Z</time>
      </trkpt>
      <trkpt lat="48.837462" lon="2.210723">
        <ele>84.939107</ele>
        <time>2024-09-08T19:30:34.818Z</time>
      </trkpt>
      <trkpt lat="48.837351" lon="2.209130">
        <ele>88.325306</ele>
        <time>2024-09-08T19:31:15.491Z</time>
      </trkpt>
      <trkpt lat="48.837265" lon="2.207896">
        <ele>91.506799</ele>
        <time>2024-09-08T19:31:53.080Z</time>
      </trkpt>
      <trkpt lat="48.837342" lon="2.207779">
        <ele>91.948177</ele>
        <time>2024-09-08T19:31:57.416Z</time>
      </trkpt>
      <trkpt lat="48.837391" lon="2.207632">
        <ele>92.387749</ele>
        <time>2024-09-08T19:32:01.982Z</time>
      </trkpt>
      <trkpt lat="48.837407" lon="2.207434">
        <ele>92.919918</ele>
        <time>2024-09-08T19:32:07.585Z</time>
      </trkpt>
      <trkpt lat="48.837389" lon="2.207298">
        <ele>93.289986</ele>
        <time>2024-09-08T19:32:10.937Z</time>
      </trkpt>
      <trkpt lat="48.837287" lon="2.207069">
        <ele>94.027622</ele>
        <time>2024-09-08T19:32:17.925Z</time>
      </trkpt>
      <trkpt lat="48.837193" lon="2.206980">
        <ele>94.476531</ele>
        <time>2024-09-08T19:32:22.192Z</time>
      </trkpt>
      <trkpt lat="48.837045" lon="2.206940">
        <ele>95.085796</ele>
        <time>2024-09-08T19:32:27.207Z</time>
      </trkpt>
      <trkpt lat="48.836900" lon="2.206997">
        <ele>95.692837</ele>
        <time>2024-09-08T19:32:32.548Z</time>
      </trkpt>
      <trkpt lat="48.836800" lon="2.207114">
        <ele>96.176942</ele>
        <time>2024-09-08T19:32:36.516Z</time>
      </trkpt>
      <trkpt lat="48.835532" lon="2.205588">
        <ele>100.884794</ele>
        <time>2024-09-08T19:33:30.601Z</time>
      </trkpt>
      <trkpt lat="48.834019" lon="2.203800">
        <ele>107.930175</ele>
        <time>2024-09-08T19:34:45.310Z</time>
      </trkpt>
      <trkpt lat="48.833282" lon="2.202899">
        <ele>112.378586</ele>
        <time>2024-09-08T19:35:26.214Z</time>
      </trkpt>
      <trkpt lat="48.832909" lon="2.202444">
        <ele>114.647625</ele>
        <time>2024-09-08T19:35:47.636Z</time>
      </trkpt>
      <trkpt lat="48.832713" lon="2.202204">
        <ele>115.841722</ele>
        <time>2024-09-08T19:35:59.222Z</time>
      </trkpt>
      <trkpt lat="48.832617" lon="2.202087">
        <ele>116.425508</ele>
        <time>2024-09-08T19:36:04.958Z</time>
      </trkpt>
      <trkpt lat="48.830767" lon="2.199839">
        <ele>125.380127</ele>
        <time>2024-09-08T19:37:45.100Z</time>
      </trkpt>
      <trkpt lat="48.830799" lon="2.199676">
        <ele>125.479061</ele>
        <time>2024-09-08T19:37:47.880Z</time>
      </trkpt>
      <trkpt lat="48.830754" lon="2.199523">
        <ele>125.576531</ele>
        <time>2024-09-08T19:37:50.210Z</time>
      </trkpt>
      <trkpt lat="48.830923" lon="2.199247">
        <ele>125.795776</ele>
        <time>2024-09-08T19:37:55.474Z</time>
      </trkpt>
      <trkpt lat="48.831676" lon="2.198028">
        <ele>126.068551</ele>
        <time>2024-09-08T19:38:13.219Z</time>
      </trkpt>
      <trkpt lat="48.831837" lon="2.197768">
        <ele>125.736064</ele>
        <time>2024-09-08T19:38:16.755Z</time>
      </trkpt>
      <trkpt lat="48.832039" lon="2.197442">
        <ele>125.319050</ele>
        <time>2024-09-08T19:38:21.283Z</time>
      </trkpt>
      <trkpt lat="48.832180" lon="2.197216">
        <ele>125.029020</ele>
        <time>2024-09-08T19:38:24.492Z</time>
      </trkpt>
      <trkpt lat="48.832298" lon="2.197029">
        <ele>124.787739</ele>
        <time>2024-09-08T19:38:27.289Z</time>
      </trkpt>
      <trkpt lat="48.832478" lon="2.196744">
        <ele>124.419854</ele>
        <time>2024-09-08T19:38:31.634Z</time>
      </trkpt>
      <trkpt lat="48.832417" lon="2.196617">
        <ele>124.273420</ele>
        <time>2024-09-08T19:38:33.699Z</time>
      </trkpt>
      <trkpt lat="48.832349" lon="2.196534">
        <ele>124.149991</ele>
        <time>2024-09-08T19:38:35.385Z</time>
      </trkpt>
      <trkpt lat="48.831896" lon="2.196289">
        <ele>123.900341</ele>
        <time>2024-09-08T19:38:45.060Z</time>
      </trkpt>
      <trkpt lat="48.831401" lon="2.195958">
        <ele>123.815395</ele>
        <time>2024-09-08T19:38:56.368Z</time>
      </trkpt>
      <trkpt lat="48.831276" lon="2.195780">
        <ele>123.788485</ele>
        <time>2024-09-08T19:38:59.876Z</time>
      </trkpt>
      <trkpt lat="48.831251" lon="2.195724">
        <ele>123.781489</ele>
        <time>2024-09-08T19:39:00.759Z</time>
      </trkpt>
      <trkpt lat="48.831276" lon="2.195780">
        <ele>123.774493</ele>
        <time>2024-09-08T19:39:01.839Z</time>
      </trkpt>
      <trkpt lat="48.831401" lon="2.195958">
        <ele>123.747583</ele>
        <time>2024-09-08T19:39:05.820Z</time>
      </trkpt>
      <trkpt lat="48.831896" lon="2.196289">
        <ele>123.672625</ele>
        <time>2024-09-08T19:39:17.833Z</time>
      </trkpt>
      <trkpt lat="48.832349" lon="2.196534">
        <ele>123.681062</ele>
        <time>2024-09-08T19:39:28.543Z</time>
      </trkpt>
      <trkpt lat="48.832417" lon="2.196617">
        <ele>123.682592</ele>
        <time>2024-09-08T19:39:30.446Z</time>
      </trkpt>
      <trkpt lat="48.832478" lon="2.196744">
        <ele>123.684408</ele>
        <time>2024-09-08T19:39:32.559Z</time>
      </trkpt>
      <trkpt lat="48.832298" lon="2.197029">
        <ele>123.688970</ele>
        <time>2024-09-08T19:39:37.656Z</time>
      </trkpt>
      <trkpt lat="48.832180" lon="2.197216">
        <ele>123.691962</ele>
        <time>2024-09-08T19:39:40.839Z</time>
      </trkpt>
      <trkpt lat="48.832039" lon="2.197442">
        <ele>123.695559</ele>
        <time>2024-09-08T19:39:44.910Z</time>
      </trkpt>
      <trkpt lat="48.831837" lon="2.197768">
        <ele>123.700730</ele>
        <time>2024-09-08T19:39:50.564Z</time>
      </trkpt>
      <trkpt lat="48.831761" lon="2.197701">
        <ele>123.702271</ele>
        <time>2024-09-08T19:39:52.371Z</time>
      </trkpt>
      <trkpt lat="48.831066" lon="2.197052">
        <ele>122.743296</ele>
        <time>2024-09-08T19:40:09.304Z</time>
      </trkpt>
      <trkpt lat="48.830950" lon="2.196857">
        <ele>122.525923</ele>
        <time>2024-09-08T19:40:12.985Z</time>
      </trkpt>
      <trkpt lat="48.830819" lon="2.196528">
        <ele>122.207913</ele>
        <time>2024-09-08T19:40:17.690Z</time>
      </trkpt>
      <trkpt lat="48.830686" lon="2.196270">
        <ele>121.936887</ele>
        <time>2024-09-08T19:40:21.450Z</time>
      </trkpt>
      <trkpt lat="48.830581" lon="2.196212">
        <ele>121.796515</ele>
        <time>2024-09-08T19:40:23.366Z</time>
      </trkpt>
      <trkpt lat="48.830565" lon="2.195919">
        <ele>121.553351</ele>
        <time>2024-09-08T19:40:26.640Z</time>
      </trkpt>
      <trkpt lat="48.830450" lon="2.195914">
        <ele>121.347883</ele>
        <time>2024-09-08T19:40:28.469Z</time>
      </trkpt>
      <trkpt lat="48.830448" lon="2.195812">
        <ele>121.114730</ele>
        <time>2024-09-08T19:40:29.483Z</time>
      </trkpt>
      <trkpt lat="48.830439" lon="2.195350">
        <ele>120.058691</ele>
        <time>2024-09-08T19:40:33.722Z</time>
      </trkpt>
      <trkpt lat="48.830526" lon="2.195273">
        <ele>119.709218</ele>
        <time>2024-09-08T19:40:35.203Z</time>
      </trkpt>
      <trkpt lat="48.830328" lon="2.195020">
        <ele>118.811209</ele>
        <time>2024-09-08T19:40:38.729Z</time>
      </trkpt>
      <trkpt lat="48.829573" lon="2.194042">
        <ele>115.367364</ele>
        <time>2024-09-08T19:40:52.662Z</time>
      </trkpt>
      <trkpt lat="48.829453" lon="2.193886">
        <ele>114.999850</ele>
        <time>2024-09-08T19:40:54.968Z</time>
      </trkpt>
      <trkpt lat="48.829420" lon="2.193843">
        <ele>114.920425</ele>
        <time>2024-09-08T19:40:55.611Z</time>
      </trkpt>
      <trkpt lat="48.829259" lon="2.193664">
        <ele>114.555949</ele>
        <time>2024-09-08T19:40:58.489Z</time>
      </trkpt>
      <trkpt lat="48.829051" lon="2.193431">
        <ele>114.083830</ele>
        <time>2024-09-08T19:41:02.255Z</time>
      </trkpt>
      <trkpt lat="48.828831" lon="2.193106">
        <ele>113.523221</ele>
        <time>2024-09-08T19:41:06.958Z</time>
      </trkpt>
      <trkpt lat="48.828743" lon="2.192935">
        <ele>113.262197</ele>
        <time>2024-09-08T19:41:09.300Z</time>
      </trkpt>
      <trkpt lat="48.828648" lon="2.192658">
        <ele>112.886578</ele>
        <time>2024-09-08T19:41:12.576Z</time>
      </trkpt>
      <trkpt lat="48.828465" lon="2.191373">
        <ele>112.007985</ele>
        <time>2024-09-08T19:41:28.289Z</time>
      </trkpt>
      <trkpt lat="48.828318" lon="2.190298">
        <ele>112.209799</ele>
        <time>2024-09-08T19:41:42.873Z</time>
      </trkpt>
      <trkpt lat="48.828279" lon="2.190010">
        <ele>112.263845</ele>
        <time>2024-09-08T19:41:46.391Z</time>
      </trkpt>
      <trkpt lat="48.828065" lon="2.189501">
        <ele>112.374858</ele>
        <time>2024-09-08T19:41:54.072Z</time>
      </trkpt>
      <trkpt lat="48.827950" lon="2.189313">
        <ele>112.500177</ele>
        <time>2024-09-08T19:41:58.115Z</time>
      </trkpt>
      <trkpt lat="48.827810" lon="2.189109">
        <ele>113.404794</ele>
        <time>2024-09-08T19:42:03.545Z</time>
      </trkpt>
      <trkpt lat="48.827737" lon="2.189004">
        <ele>113.873583</ele>
        <time>2024-09-08T19:42:06.693Z</time>
      </trkpt>
      <trkpt lat="48.827661" lon="2.188919">
        <ele>114.313667</ele>
        <time>2024-09-08T19:42:09.542Z</time>
      </trkpt>
      <trkpt lat="48.827520" lon="2.188849">
        <ele>115.005372</ele>
        <time>2024-09-08T19:42:14.798Z</time>
      </trkpt>
      <trkpt lat="48.827401" lon="2.188820">
        <ele>115.567363</ele>
        <time>2024-09-08T19:42:19.489Z</time>
      </trkpt>
      <trkpt lat="48.827077" lon="2.188746">
        <ele>117.095151</ele>
        <time>2024-09-08T19:42:33.265Z</time>
      </trkpt>
      <trkpt lat="48.826971" lon="2.188479">
        <ele>118.052289</ele>
        <time>2024-09-08T19:42:42.723Z</time>
      </trkpt>
      <trkpt lat="48.827053" lon="2.187386">
        <ele>122.094984</ele>
        <time>2024-09-08T19:43:21.897Z</time>
      </trkpt>
      <trkpt lat="48.827124" lon="2.186178">
        <ele>129.782144</ele>
        <time>2024-09-08T19:44:13.170Z</time>
      </trkpt>
      <trkpt lat="48.827169" lon="2.185516">
        <ele>134.000424</ele>
        <time>2024-09-08T19:44:46.208Z</time>
      </trkpt>
      <trkpt lat="48.827058" lon="2.185195">
        <ele>136.298621</ele>
        <time>2024-09-08T19:45:04.897Z</time>
      </trkpt>
      <trkpt lat="48.826914" lon="2.184900">
        <ele>138.602452</ele>
        <time>2024-09-08T19:45:22.736Z</time>
      </trkpt>
      <trkpt lat="48.826772" lon="2.184671">
        <ele>140.502096</ele>
        <time>2024-09-08T19:45:38.216Z</time>
      </trkpt>
      <trkpt lat="48.826717" lon="2.184580">
        <ele>141.248058</ele>
        <time>2024-09-08T19:45:43.586Z</time>
      </trkpt>
      <trkpt lat="48.826071" lon="2.183540">
        <ele>149.882282</ele>
        <time>2024-09-08T19:46:47.092Z</time>
      </trkpt>
      <trkpt lat="48.825520" lon="2.182632">
        <ele>155.697598</ele>
        <time>2024-09-08T19:47:33.332Z</time>
      </trkpt>
      <trkpt lat="48.825383" lon="2.181854">
        <ele>157.625879</ele>
        <time>2024-09-08T19:47:58.157Z</time>
      </trkpt>
      <trkpt lat="48.825327" lon="2.181222">
        <ele>159.152750</ele>
        <time>2024-09-08T19:48:12.193Z</time>
      </trkpt>
      <trkpt lat="48.825082" lon="2.179591">
        <ele>160.839874</ele>
        <time>2024-09-08T19:48:34.494Z</time>
      </trkpt>
      <trkpt lat="48.824853" lon="2.179574">
        <ele>160.706101</ele>
        <time>2024-09-08T19:48:41.008Z</time>
      </trkpt>
      <trkpt lat="48.824688" lon="2.179491">
        <ele>160.604686</ele>
        <time>2024-09-08T19:48:46.062Z</time>
      </trkpt>
      <trkpt lat="48.824541" lon="2.178823">
        <ele>160.334128</ele>
        <time>2024-09-08T19:48:59.384Z</time>
      </trkpt>
      <trkpt lat="48.824416" lon="2.178460">
        <ele>160.176764</ele>
        <time>2024-09-08T19:49:07.360Z</time>
      </trkpt>
      <trkpt lat="48.824394" lon="2.178319">
        <ele>160.121101</ele>
        <time>2024-09-08T19:49:10.118Z</time>
      </trkpt>
      <trkpt lat="48.824381" lon="2.177774">
        <ele>160.045618</ele>
        <time>2024-09-08T19:49:20.995Z</time>
      </trkpt>
      <trkpt lat="48.824295" lon="2.177293">
        <ele>159.982869</ele>
        <time>2024-09-08T19:49:31.140Z</time>
      </trkpt>
      <trkpt lat="48.824167" lon="2.176835">
        <ele>159.920229</ele>
        <time>2024-09-08T19:49:41.570Z</time>
      </trkpt>
      <trkpt lat="48.824203" lon="2.176495">
        <ele>159.876874</ele>
        <time>2024-09-08T19:49:49.277Z</time>
      </trkpt>
      <trkpt lat="48.824175" lon="2.176112">
        <ele>159.828359</ele>
        <time>2024-09-08T19:49:58.033Z</time>
      </trkpt>
      <trkpt lat="48.824071" lon="2.175647">
        <ele>159.764128</ele>
        <time>2024-09-08T19:50:08.444Z</time>
      </trkpt>
      <trkpt lat="48.824117" lon="2.175207">
        <ele>159.424075</ele>
        <time>2024-09-08T19:50:17.464Z</time>
      </trkpt>
      <trkpt lat="48.823993" lon="2.174778">
        <ele>159.066458</ele>
        <time>2024-09-08T19:50:26.508Z</time>
      </trkpt>
      <trkpt lat="48.823918" lon="2.174214">
        <ele>158.627272</ele>
        <time>2024-09-08T19:50:37.228Z</time>
      </trkpt>
      <trkpt lat="48.823833" lon="2.174019">
        <ele>158.448765</ele>
        <time>2024-09-08T19:50:41.468Z</time>
      </trkpt>
      <trkpt lat="48.823602" lon="2.173926">
        <ele>158.171707</ele>
        <time>2024-09-08T19:50:48.045Z</time>
      </trkpt>
      <trkpt lat="48.823504" lon="2.173752">
        <ele>157.996928</ele>
        <time>2024-09-08T19:50:52.167Z</time>
      </trkpt>
      <trkpt lat="48.823446" lon="2.173504">
        <ele>157.796043</ele>
        <time>2024-09-08T19:50:56.996Z</time>
      </trkpt>
      <trkpt lat="48.823343" lon="2.173376">
        <ele>157.685455</ele>
        <time>2024-09-08T19:51:00.698Z</time>
      </trkpt>
      <trkpt lat="48.823298" lon="2.173163">
        <ele>157.701261</ele>
        <time>2024-09-08T19:51:04.923Z</time>
      </trkpt>
      <trkpt lat="48.823180" lon="2.172860">
        <ele>157.726136</ele>
        <time>2024-09-08T19:51:11.621Z</time>
      </trkpt>
      <trkpt lat="48.823191" lon="2.171866">
        <ele>157.796381</ele>
        <time>2024-09-08T19:51:32.040Z</time>
      </trkpt>
      <trkpt lat="48.823158" lon="2.171506">
        <ele>157.822063</ele>
        <time>2024-09-08T19:51:41.020Z</time>
      </trkpt>
      <trkpt lat="48.823164" lon="2.170495">
        <ele>158.161168</ele>
        <time>2024-09-08T19:52:06.554Z</time>
      </trkpt>
      <trkpt lat="48.823184" lon="2.170239">
        <ele>158.439882</ele>
        <time>2024-09-08T19:52:13.499Z</time>
      </trkpt>
      <trkpt lat="48.823273" lon="2.169824">
        <ele>158.911757</ele>
        <time>2024-09-08T19:52:25.802Z</time>
      </trkpt>
      <trkpt lat="48.823287" lon="2.169375">
        <ele>159.397731</ele>
        <time>2024-09-08T19:52:38.758Z</time>
      </trkpt>
      <trkpt lat="48.823235" lon="2.169206">
        <ele>159.599412</ele>
        <time>2024-09-08T19:52:44.064Z</time>
      </trkpt>
      <trkpt lat="48.823155" lon="2.169076">
        <ele>159.791795</ele>
        <time>2024-09-08T19:52:49.064Z</time>
      </trkpt>
      <trkpt lat="48.822908" lon="2.168941">
        <ele>160.222857</ele>
        <time>2024-09-08T19:53:00.050Z</time>
      </trkpt>
      <trkpt lat="48.822740" lon="2.168805">
        <ele>160.535469</ele>
        <time>2024-09-08T19:53:07.651Z</time>
      </trkpt>
      <trkpt lat="48.822652" lon="2.168684">
        <ele>160.730393</ele>
        <time>2024-09-08T19:53:11.998Z</time>
      </trkpt>
      <trkpt lat="48.822553" lon="2.168429">
        <ele>160.617364</ele>
        <time>2024-09-08T19:53:18.341Z</time>
      </trkpt>
      <trkpt lat="48.822555" lon="2.168148">
        <ele>160.328741</ele>
        <time>2024-09-08T19:53:25.300Z</time>
      </trkpt>
      <trkpt lat="48.822616" lon="2.167925">
        <ele>160.080724</ele>
        <time>2024-09-08T19:53:30.321Z</time>
      </trkpt>
      <trkpt lat="48.823027" lon="2.166900">
        <ele>158.848115</ele>
        <time>2024-09-08T19:53:52.727Z</time>
      </trkpt>
      <trkpt lat="48.823041" lon="2.166788">
        <ele>158.731030</ele>
        <time>2024-09-08T19:53:54.747Z</time>
      </trkpt>
      <trkpt lat="48.823000" lon="2.166453">
        <ele>158.381071</ele>
        <time>2024-09-08T19:54:00.522Z</time>
      </trkpt>
      <trkpt lat="48.823120" lon="2.166041">
        <ele>157.614419</ele>
        <time>2024-09-08T19:54:04.695Z</time>
      </trkpt>
      <trkpt lat="48.823123" lon="2.166037">
        <ele>157.590022</ele>
        <time>2024-09-08T19:54:04.750Z</time>
      </trkpt>
      <trkpt lat="48.823123" lon="2.166037">
        <ele>157.590022</ele>
        <time>2024-09-08T19:54:04.752Z</time>
      </trkpt>
      <trkpt lat="48.823110" lon="2.165961">
        <ele>157.274065</ele>
        <time>2024-09-08T19:54:06.966Z</time>
      </trkpt>
      <trkpt lat="48.823099" lon="2.165871">
        <ele>156.905741</ele>
        <time>2024-09-08T19:54:09.532Z</time>
      </trkpt>
      <trkpt lat="48.822558" lon="2.165854">
        <ele>153.598694</ele>
        <time>2024-09-08T19:54:22.393Z</time>
      </trkpt>
      <trkpt lat="48.821823" lon="2.165926">
        <ele>149.097383</ele>
        <time>2024-09-08T19:54:39.088Z</time>
      </trkpt>
      <trkpt lat="48.821676" lon="2.165940">
        <ele>148.197223</ele>
        <time>2024-09-08T19:54:42.335Z</time>
      </trkpt>
      <trkpt lat="48.820142" lon="2.166071">
        <ele>139.838771</ele>
        <time>2024-09-08T19:55:17.488Z</time>
      </trkpt>
      <trkpt lat="48.818529" lon="2.166159">
        <ele>136.882590</ele>
        <time>2024-09-08T19:55:43.966Z</time>
      </trkpt>
      <trkpt lat="48.818437" lon="2.165874">
        <ele>136.786470</ele>
        <time>2024-09-08T19:55:49.259Z</time>
      </trkpt>
      <trkpt lat="48.818405" lon="2.165784">
        <ele>136.755495</ele>
        <time>2024-09-08T19:55:51.221Z</time>
      </trkpt>
      <trkpt lat="48.818345" lon="2.165850">
        <ele>136.721423</ele>
        <time>2024-09-08T19:55:53.194Z</time>
      </trkpt>
      <trkpt lat="48.818316" lon="2.166043">
        <ele>136.661474</ele>
        <time>2024-09-08T19:55:56.356Z</time>
      </trkpt>
      <trkpt lat="48.818267" lon="2.166114">
        <ele>136.630327</ele>
        <time>2024-09-08T19:55:58.210Z</time>
      </trkpt>
      <trkpt lat="48.818133" lon="2.166188">
        <ele>136.711987</ele>
        <time>2024-09-08T19:56:02.099Z</time>
      </trkpt>
      <trkpt lat="48.817797" lon="2.166188">
        <ele>137.485878</ele>
        <time>2024-09-08T19:56:10.954Z</time>
      </trkpt>
      <trkpt lat="48.817588" lon="2.166210">
        <ele>137.968411</ele>
        <time>2024-09-08T19:56:17.035Z</time>
      </trkpt>
      <trkpt lat="48.817503" lon="2.166219">
        <ele>138.164662</ele>
        <time>2024-09-08T19:56:19.800Z</time>
      </trkpt>
      <trkpt lat="48.817143" lon="2.166250">
        <ele>138.995162</ele>
        <time>2024-09-08T19:56:31.505Z</time>
      </trkpt>
      <trkpt lat="48.816780" lon="2.166272">
        <ele>139.831906</ele>
        <time>2024-09-08T19:56:43.251Z</time>
      </trkpt>
      <trkpt lat="48.816412" lon="2.166303">
        <ele>140.680803</ele>
        <time>2024-09-08T19:56:56.157Z</time>
      </trkpt>
      <trkpt lat="48.813955" lon="2.166423">
        <ele>151.623040</ele>
        <time>2024-09-08T19:58:44.923Z</time>
      </trkpt>
      <trkpt lat="48.813842" lon="2.166244">
        <ele>152.416210</ele>
        <time>2024-09-08T19:58:55.217Z</time>
      </trkpt>
      <trkpt lat="48.813676" lon="2.166074">
        <ele>153.388776</ele>
        <time>2024-09-08T19:59:07.843Z</time>
      </trkpt>
      <trkpt lat="48.813294" lon="2.165838">
        <ele>155.392017</ele>
        <time>2024-09-08T19:59:33.217Z</time>
      </trkpt>
      <trkpt lat="48.813270" lon="2.165824">
        <ele>155.516902</ele>
        <time>2024-09-08T19:59:34.799Z</time>
      </trkpt>
      <trkpt lat="48.812890" lon="2.165688">
        <ele>157.229920</ele>
        <time>2024-09-08T19:59:55.720Z</time>
      </trkpt>
      <trkpt lat="48.812666" lon="2.165678">
        <ele>156.984004</ele>
        <time>2024-09-08T20:00:06.018Z</time>
      </trkpt>
      <trkpt lat="48.812532" lon="2.165812">
        <ele>156.807936</ele>
        <time>2024-09-08T20:00:13.401Z</time>
      </trkpt>
      <trkpt lat="48.812303" lon="2.166533">
        <ele>156.229472</ele>
        <time>2024-09-08T20:00:32.012Z</time>
      </trkpt>
      <trkpt lat="48.812079" lon="2.166545">
        <ele>155.983509</ele>
        <time>2024-09-08T20:00:36.079Z</time>
      </trkpt>
      <trkpt lat="48.811889" lon="2.166573">
        <ele>155.774029</ele>
        <time>2024-09-08T20:00:39.083Z</time>
      </trkpt>
      <trkpt lat="48.811726" lon="2.166586">
        <ele>155.594912</ele>
        <time>2024-09-08T20:00:41.645Z</time>
      </trkpt>
      <trkpt lat="48.811130" lon="2.166482">
        <ele>152.775481</ele>
        <time>2024-09-08T20:00:50.292Z</time>
      </trkpt>
      <trkpt lat="48.810422" lon="2.166329">
        <ele>147.191309</ele>
        <time>2024-09-08T20:01:00.233Z</time>
      </trkpt>
      <trkpt lat="48.810403" lon="2.166322">
        <ele>147.038642</ele>
        <time>2024-09-08T20:01:00.501Z</time>
      </trkpt>
      <trkpt lat="48.810365" lon="2.166314">
        <ele>146.739078</ele>
        <time>2024-09-08T20:01:00.966Z</time>
      </trkpt>
      <trkpt lat="48.809599" lon="2.166142">
        <ele>140.743778</ele>
        <time>2024-09-08T20:01:10.427Z</time>
      </trkpt>
      <trkpt lat="48.809548" lon="2.166131">
        <ele>140.378755</ele>
        <time>2024-09-08T20:01:11.071Z</time>
      </trkpt>
      <trkpt lat="48.809530" lon="2.166189">
        <ele>140.079538</ele>
        <time>2024-09-08T20:01:11.590Z</time>
      </trkpt>
      <trkpt lat="48.808171" lon="2.166963">
        <ele>129.794293</ele>
        <time>2024-09-08T20:01:29.914Z</time>
      </trkpt>
      <trkpt lat="48.808057" lon="2.167047">
        <ele>128.896375</ele>
        <time>2024-09-08T20:01:32.111Z</time>
      </trkpt>
      <trkpt lat="48.807927" lon="2.166790">
        <ele>127.575785</ele>
        <time>2024-09-08T20:01:35.093Z</time>
      </trkpt>
      <trkpt lat="48.807013" lon="2.167236">
        <ele>121.942042</ele>
        <time>2024-09-08T20:01:47.562Z</time>
      </trkpt>
      <trkpt lat="48.805981" lon="2.167710">
        <ele>115.929427</ele>
        <time>2024-09-08T20:02:01.729Z</time>
      </trkpt>
      <trkpt lat="48.805842" lon="2.167707">
        <ele>115.223758</ele>
        <time>2024-09-08T20:02:03.517Z</time>
      </trkpt>
      <trkpt lat="48.805820" lon="2.167772">
        <ele>114.979429</ele>
        <time>2024-09-08T20:02:04.132Z</time>
      </trkpt>
      <trkpt lat="48.805721" lon="2.168142">
        <ele>113.644229</ele>
        <time>2024-09-08T20:02:07.527Z</time>
      </trkpt>
      <trkpt lat="48.805714" lon="2.168206">
        <ele>113.427329</ele>
        <time>2024-09-08T20:02:08.075Z</time>
      </trkpt>
      <trkpt lat="48.805720" lon="2.168435">
        <ele>112.661111</ele>
        <time>2024-09-08T20:02:10.033Z</time>
      </trkpt>
      <trkpt lat="48.805726" lon="2.168866">
        <ele>111.219833</ele>
        <time>2024-09-08T20:02:13.771Z</time>
      </trkpt>
      <trkpt lat="48.805737" lon="2.169027">
        <ele>110.678676</ele>
        <time>2024-09-08T20:02:15.204Z</time>
      </trkpt>
      <trkpt lat="48.805677" lon="2.169126">
        <ele>110.228879</ele>
        <time>2024-09-08T20:02:16.441Z</time>
      </trkpt>
      <trkpt lat="48.805649" lon="2.169151">
        <ele>110.063990</ele>
        <time>2024-09-08T20:02:16.885Z</time>
      </trkpt>
      <trkpt lat="48.805558" lon="2.169226">
        <ele>109.538385</ele>
        <time>2024-09-08T20:02:18.319Z</time>
      </trkpt>
      <trkpt lat="48.805459" lon="2.169307">
        <ele>108.967517</ele>
        <time>2024-09-08T20:02:19.899Z</time>
      </trkpt>
      <trkpt lat="48.805411" lon="2.169334">
        <ele>108.796350</ele>
        <time>2024-09-08T20:02:20.649Z</time>
      </trkpt>
      <trkpt lat="48.805334" lon="2.169375">
        <ele>108.726376</ele>
        <time>2024-09-08T20:02:21.830Z</time>
      </trkpt>
      <trkpt lat="48.805137" lon="2.169401">
        <ele>108.556802</ele>
        <time>2024-09-08T20:02:24.648Z</time>
      </trkpt>
      <trkpt lat="48.805072" lon="2.169401">
        <ele>108.501062</ele>
        <time>2024-09-08T20:02:25.640Z</time>
      </trkpt>
      <trkpt lat="48.804768" lon="2.169417">
        <ele>108.240211</ele>
        <time>2024-09-08T20:02:30.152Z</time>
      </trkpt>
      <trkpt lat="48.804644" lon="2.169441">
        <ele>108.133014</ele>
        <time>2024-09-08T20:02:32.236Z</time>
      </trkpt>
      <trkpt lat="48.804437" lon="2.169511">
        <ele>107.951152</ele>
        <time>2024-09-08T20:02:35.639Z</time>
      </trkpt>
      <trkpt lat="48.804117" lon="2.169608">
        <ele>107.671321</ele>
        <time>2024-09-08T20:02:41.885Z</time>
      </trkpt>
      <trkpt lat="48.804010" lon="2.169806">
        <ele>107.526662</ele>
        <time>2024-09-08T20:02:45.966Z</time>
      </trkpt>
      <trkpt lat="48.803954" lon="2.169923">
        <ele>107.444973</ele>
        <time>2024-09-08T20:02:48.382Z</time>
      </trkpt>
      <trkpt lat="48.803882" lon="2.170106">
        <ele>107.324575</ele>
        <time>2024-09-08T20:02:52.059Z</time>
      </trkpt>
      <trkpt lat="48.803783" lon="2.170266">
        <ele>107.530395</ele>
        <time>2024-09-08T20:02:57.136Z</time>
      </trkpt>
      <trkpt lat="48.803580" lon="2.170444">
        <ele>108.258339</ele>
        <time>2024-09-08T20:03:05.127Z</time>
      </trkpt>
      <trkpt lat="48.803456" lon="2.170515">
        <ele>108.669865</ele>
        <time>2024-09-08T20:03:10.318Z</time>
      </trkpt>
      <trkpt lat="48.803137" lon="2.170633">
        <ele>109.689422</ele>
        <time>2024-09-08T20:03:22.860Z</time>
      </trkpt>
      <trkpt lat="48.802895" lon="2.170692">
        <ele>110.450525</ele>
        <time>2024-09-08T20:03:31.828Z</time>
      </trkpt>
      <trkpt lat="48.802583" lon="2.170749">
        <ele>111.426358</ele>
        <time>2024-09-08T20:03:42.452Z</time>
      </trkpt>
      <trkpt lat="48.802327" lon="2.170785">
        <ele>112.224710</ele>
        <time>2024-09-08T20:03:51.338Z</time>
      </trkpt>
      <trkpt lat="48.801920" lon="2.170837">
        <ele>113.445419</ele>
        <time>2024-09-08T20:04:06.343Z</time>
      </trkpt>
      <trkpt lat="48.801830" lon="2.170848">
        <ele>113.704805</ele>
        <time>2024-09-08T20:04:09.883Z</time>
      </trkpt>
      <trkpt lat="48.801743" lon="2.170860">
        <ele>113.955766</ele>
        <time>2024-09-08T20:04:13.039Z</time>
      </trkpt>
      <trkpt lat="48.801227" lon="2.170959">
        <ele>115.449906</ele>
        <time>2024-09-08T20:04:31.162Z</time>
      </trkpt>
      <trkpt lat="48.801154" lon="2.170974">
        <ele>115.661530</ele>
        <time>2024-09-08T20:04:33.512Z</time>
      </trkpt>
      <trkpt lat="48.800902" lon="2.171015">
        <ele>116.389614</ele>
        <time>2024-09-08T20:04:41.492Z</time>
      </trkpt>
      <trkpt lat="48.800598" lon="2.171077">
        <ele>117.270782</ele>
        <time>2024-09-08T20:04:50.515Z</time>
      </trkpt>
      <trkpt lat="48.800466" lon="2.171104">
        <ele>117.653414</ele>
        <time>2024-09-08T20:04:54.719Z</time>
      </trkpt>
      <trkpt lat="48.800429" lon="2.171114">
        <ele>117.761378</ele>
        <time>2024-09-08T20:04:55.946Z</time>
      </trkpt>
      <trkpt lat="48.800089" lon="2.171195">
        <ele>118.802339</ele>
        <time>2024-09-08T20:05:07.054Z</time>
      </trkpt>
      <trkpt lat="48.799993" lon="2.171264">
        <ele>119.129445</ele>
        <time>2024-09-08T20:05:10.579Z</time>
      </trkpt>
      <trkpt lat="48.799772" lon="2.171312">
        <ele>119.816980</ele>
        <time>2024-09-08T20:05:18.239Z</time>
      </trkpt>
      <trkpt lat="48.799596" lon="2.171392">
        <ele>120.382772</ele>
        <time>2024-09-08T20:05:24.926Z</time>
      </trkpt>
      <trkpt lat="48.799332" lon="2.171568">
        <ele>121.270739</ele>
        <time>2024-09-08T20:05:35.899Z</time>
      </trkpt>
      <trkpt lat="48.799300" lon="2.171397">
        <ele>121.631351</ele>
        <time>2024-09-08T20:05:40.206Z</time>
      </trkpt>
      <trkpt lat="48.799250" lon="2.170400">
        <ele>123.629302</ele>
        <time>2024-09-08T20:06:03.289Z</time>
      </trkpt>
      <trkpt lat="48.799233" lon="2.170048">
        <ele>124.119052</ele>
        <time>2024-09-08T20:06:10.724Z</time>
      </trkpt>
      <trkpt lat="48.799204" lon="2.169471">
        <ele>124.922029</ele>
        <time>2024-09-08T20:06:23.022Z</time>
      </trkpt>
      <trkpt lat="48.799137" lon="2.168798">
        <ele>125.866497</ele>
        <time>2024-09-08T20:06:37.070Z</time>
      </trkpt>
      <trkpt lat="48.799126" lon="2.168687">
        <ele>126.022255</ele>
        <time>2024-09-08T20:06:39.177Z</time>
      </trkpt>
      <trkpt lat="48.799112" lon="2.168560">
        <ele>126.200933</ele>
        <time>2024-09-08T20:06:41.581Z</time>
      </trkpt>
      <trkpt lat="48.799003" lon="2.167508">
        <ele>127.309464</ele>
        <time>2024-09-08T20:06:59.725Z</time>
      </trkpt>
      <trkpt lat="48.798922" lon="2.166690">
        <ele>127.157905</ele>
        <time>2024-09-08T20:07:12.420Z</time>
      </trkpt>
      <trkpt lat="48.798883" lon="2.166348">
        <ele>127.094312</ele>
        <time>2024-09-08T20:07:17.185Z</time>
      </trkpt>
      <trkpt lat="48.798830" lon="2.166058">
        <ele>127.039170</ele>
        <time>2024-09-08T20:07:20.730Z</time>
      </trkpt>
      <trkpt lat="48.798718" lon="2.165630">
        <ele>126.954790</ele>
        <time>2024-09-08T20:07:25.548Z</time>
      </trkpt>
      <trkpt lat="48.798686" lon="2.165817">
        <ele>126.919390</ele>
        <time>2024-09-08T20:07:27.631Z</time>
      </trkpt>
      <trkpt lat="48.798676" lon="2.166129">
        <ele>126.862158</ele>
        <time>2024-09-08T20:07:30.597Z</time>
      </trkpt>
      <trkpt lat="48.798572" lon="2.166101">
        <ele>126.849100</ele>
        <time>2024-09-08T20:07:32.254Z</time>
      </trkpt>
      <trkpt lat="48.798338" lon="2.166126">
        <ele>126.838612</ele>
        <time>2024-09-08T20:07:35.782Z</time>
      </trkpt>
      <trkpt lat="48.798291" lon="2.166064">
        <ele>126.835828</ele>
        <time>2024-09-08T20:07:37.565Z</time>
      </trkpt>
      <trkpt lat="48.798243" lon="2.165859">
        <ele>126.829421</ele>
        <time>2024-09-08T20:07:41.934Z</time>
      </trkpt>
      <trkpt lat="48.798209" lon="2.165389">
        <ele>126.815496</ele>
        <time>2024-09-08T20:07:51.619Z</time>
      </trkpt>
      <trkpt lat="48.798145" lon="2.165189">
        <ele>126.808947</ele>
        <time>2024-09-08T20:07:56.177Z</time>
      </trkpt>
      <trkpt lat="48.798072" lon="2.165057">
        <ele>126.803871</ele>
        <time>2024-09-08T20:07:59.792Z</time>
      </trkpt>
      <trkpt lat="48.797959" lon="2.164953">
        <ele>126.797963</ele>
        <time>2024-09-08T20:08:05.209Z</time>
      </trkpt>
      <trkpt lat="48.797782" lon="2.164842">
        <ele>126.789401</ele>
        <time>2024-09-08T20:08:12.305Z</time>
      </trkpt>
      <trkpt lat="48.797615" lon="2.164816">
        <ele>126.781895</ele>
        <time>2024-09-08T20:08:18.244Z</time>
      </trkpt>
      <trkpt lat="48.797475" lon="2.164840">
        <ele>126.775596</ele>
        <time>2024-09-08T20:08:23.441Z</time>
      </trkpt>
      <trkpt lat="48.797340" lon="2.164921">
        <ele>126.999591</ele>
        <time>2024-09-08T20:08:29.166Z</time>
      </trkpt>
      <trkpt lat="48.797078" lon="2.165350">
        <ele>128.451320</ele>
        <time>2024-09-08T20:08:44.311Z</time>
      </trkpt>
      <trkpt lat="48.796937" lon="2.165547">
        <ele>129.173219</ele>
        <time>2024-09-08T20:08:52.689Z</time>
      </trkpt>
      <trkpt lat="48.796791" lon="2.165603">
        <ele>129.740514</ele>
        <time>2024-09-08T20:08:59.695Z</time>
      </trkpt>
      <trkpt lat="48.796679" lon="2.165618">
        <ele>130.164078</ele>
        <time>2024-09-08T20:09:05.083Z</time>
      </trkpt>
      <trkpt lat="48.796362" lon="2.165575">
        <ele>131.363037</ele>
        <time>2024-09-08T20:09:22.455Z</time>
      </trkpt>
      <trkpt lat="48.796192" lon="2.165612">
        <ele>132.010008</ele>
        <time>2024-09-08T20:09:32.979Z</time>
      </trkpt>
      <trkpt lat="48.795867" lon="2.165724">
        <ele>133.265498</ele>
        <time>2024-09-08T20:09:54.084Z</time>
      </trkpt>
      <trkpt lat="48.795605" lon="2.165731">
        <ele>134.295267</ele>
        <time>2024-09-08T20:10:10.411Z</time>
      </trkpt>
      <trkpt lat="48.795482" lon="2.165610">
        <ele>134.880793</ele>
        <time>2024-09-08T20:10:19.744Z</time>
      </trkpt>
      <trkpt lat="48.795310" lon="2.165499">
        <ele>135.627427</ele>
        <time>2024-09-08T20:10:30.791Z</time>
      </trkpt>
      <trkpt lat="48.795130" lon="2.165488">
        <ele>136.347089</ele>
        <time>2024-09-08T20:10:41.517Z</time>
      </trkpt>
      <trkpt lat="48.794926" lon="2.165570">
        <ele>137.190132</ele>
        <time>2024-09-08T20:10:53.089Z</time>
      </trkpt>
      <trkpt lat="48.794711" lon="2.165815">
        <ele>138.264107</ele>
        <time>2024-09-08T20:11:06.347Z</time>
      </trkpt>
      <trkpt lat="48.794470" lon="2.166174">
        <ele>139.612999</ele>
        <time>2024-09-08T20:11:19.883Z</time>
      </trkpt>
      <trkpt lat="48.794305" lon="2.166282">
        <ele>140.330822</ele>
        <time>2024-09-08T20:11:27.308Z</time>
      </trkpt>
      <trkpt lat="48.794104" lon="2.166266">
        <ele>140.877701</ele>
        <time>2024-09-08T20:11:35.556Z</time>
      </trkpt>
      <trkpt lat="48.793975" lon="2.166194">
        <ele>141.075373</ele>
        <time>2024-09-08T20:11:41.580Z</time>
      </trkpt>
      <trkpt lat="48.793867" lon="2.166054">
        <ele>141.279629</ele>
        <time>2024-09-08T20:11:47.734Z</time>
      </trkpt>
      <trkpt lat="48.793818" lon="2.165906">
        <ele>141.436565</ele>
        <time>2024-09-08T20:11:52.333Z</time>
      </trkpt>
      <trkpt lat="48.793831" lon="2.165689">
        <ele>141.643010</ele>
        <time>2024-09-08T20:11:58.943Z</time>
      </trkpt>
      <trkpt lat="48.794017" lon="2.165196">
        <ele>142.181280</ele>
        <time>2024-09-08T20:12:14.044Z</time>
      </trkpt>
      <trkpt lat="48.794013" lon="2.164979">
        <ele>142.386957</ele>
        <time>2024-09-08T20:12:18.979Z</time>
      </trkpt>
      <trkpt lat="48.793939" lon="2.164821">
        <ele>142.570630</ele>
        <time>2024-09-08T20:12:23.266Z</time>
      </trkpt>
      <trkpt lat="48.793719" lon="2.164722">
        <ele>142.900646</ele>
        <time>2024-09-08T20:12:30.759Z</time>
      </trkpt>
      <trkpt lat="48.792941" lon="2.164689">
        <ele>144.420531</ele>
        <time>2024-09-08T20:12:58.529Z</time>
      </trkpt>
      <trkpt lat="48.792737" lon="2.164514">
        <ele>144.950316</ele>
        <time>2024-09-08T20:13:08.120Z</time>
      </trkpt>
      <trkpt lat="48.792619" lon="2.164520">
        <ele>145.217254</ele>
        <time>2024-09-08T20:13:13.698Z</time>
      </trkpt>
      <trkpt lat="48.792555" lon="2.164569">
        <ele>145.379317</ele>
        <time>2024-09-08T20:13:16.988Z</time>
      </trkpt>
      <trkpt lat="48.792410" lon="2.164689">
        <ele>145.752709</ele>
        <time>2024-09-08T20:13:25.061Z</time>
      </trkpt>
      <trkpt lat="48.792335" lon="2.164929">
        <ele>146.148361</ele>
        <time>2024-09-08T20:13:33.989Z</time>
      </trkpt>
      <trkpt lat="48.792340" lon="2.165128">
        <ele>146.444982</ele>
        <time>2024-09-08T20:13:39.769Z</time>
      </trkpt>
      <trkpt lat="48.792421" lon="2.165355">
        <ele>146.829503</ele>
        <time>2024-09-08T20:13:47.814Z</time>
      </trkpt>
      <trkpt lat="48.792425" lon="2.165521">
        <ele>147.076920</ele>
        <time>2024-09-08T20:13:52.708Z</time>
      </trkpt>
      <trkpt lat="48.792397" lon="2.165657">
        <ele>147.289150</ele>
        <time>2024-09-08T20:13:56.823Z</time>
      </trkpt>
      <trkpt lat="48.792289" lon="2.165926">
        <ele>147.734122</ele>
        <time>2024-09-08T20:14:06.824Z</time>
      </trkpt>
      <trkpt lat="48.792075" lon="2.166080">
        <ele>148.234683</ele>
        <time>2024-09-08T20:14:18.074Z</time>
      </trkpt>
      <trkpt lat="48.791951" lon="2.166076">
        <ele>148.496826</ele>
        <time>2024-09-08T20:14:24.345Z</time>
      </trkpt>
      <trkpt lat="48.791616" lon="2.165811">
        <ele>149.295255</ele>
        <time>2024-09-08T20:14:41.957Z</time>
      </trkpt>
      <trkpt lat="48.791495" lon="2.165791">
        <ele>149.552509</ele>
        <time>2024-09-08T20:14:46.862Z</time>
      </trkpt>
      <trkpt lat="48.791347" lon="2.165883">
        <ele>149.890534</ele>
        <time>2024-09-08T20:14:53.779Z</time>
      </trkpt>
      <trkpt lat="48.791252" lon="2.166040">
        <ele>150.187363</ele>
        <time>2024-09-08T20:14:58.735Z</time>
      </trkpt>
      <trkpt lat="48.791170" lon="2.166424">
        <ele>150.749446</ele>
        <time>2024-09-08T20:15:07.831Z</time>
      </trkpt>
      <trkpt lat="48.790980" lon="2.166837">
        <ele>151.481060</ele>
        <time>2024-09-08T20:15:19.150Z</time>
      </trkpt>
      <trkpt lat="48.790900" lon="2.166821">
        <ele>151.671204</ele>
        <time>2024-09-08T20:15:22.113Z</time>
      </trkpt>
      <trkpt lat="48.790721" lon="2.166666">
        <ele>152.156814</ele>
        <time>2024-09-08T20:15:29.544Z</time>
      </trkpt>
      <trkpt lat="48.790616" lon="2.166614">
        <ele>152.417075</ele>
        <time>2024-09-08T20:15:34.516Z</time>
      </trkpt>
      <trkpt lat="48.790388" lon="2.166663">
        <ele>152.959699</ele>
        <time>2024-09-08T20:15:44.072Z</time>
      </trkpt>
      <trkpt lat="48.790224" lon="2.166627">
        <ele>153.350173</ele>
        <time>2024-09-08T20:15:52.225Z</time>
      </trkpt>
      <trkpt lat="48.790037" lon="2.166477">
        <ele>153.848572</ele>
        <time>2024-09-08T20:16:01.940Z</time>
      </trkpt>
      <trkpt lat="48.789933" lon="2.166450">
        <ele>154.097199</ele>
        <time>2024-09-08T20:16:07.760Z</time>
      </trkpt>
      <trkpt lat="48.789824" lon="2.166465">
        <ele>154.355103</ele>
        <time>2024-09-08T20:16:13.076Z</time>
      </trkpt>
      <trkpt lat="48.789578" lon="2.166577">
        <ele>154.960300</ele>
        <time>2024-09-08T20:16:25.532Z</time>
      </trkpt>
      <trkpt lat="48.789097" lon="2.166734">
        <ele>156.247967</ele>
        <time>2024-09-08T20:16:47.759Z</time>
      </trkpt>
      <trkpt lat="48.788950" lon="2.166930">
        <ele>156.794368</ele>
        <time>2024-09-08T20:16:56.954Z</time>
      </trkpt>
      <trkpt lat="48.788853" lon="2.167174">
        <ele>157.318683</ele>
        <time>2024-09-08T20:17:04.651Z</time>
      </trkpt>
      <trkpt lat="48.788661" lon="2.167401">
        <ele>157.998322</ele>
        <time>2024-09-08T20:17:15.676Z</time>
      </trkpt>
      <trkpt lat="48.788496" lon="2.167505">
        <ele>158.497246</ele>
        <time>2024-09-08T20:17:24.378Z</time>
      </trkpt>
      <trkpt lat="48.788250" lon="2.167542">
        <ele>159.187582</ele>
        <time>2024-09-08T20:17:36.226Z</time>
      </trkpt>
      <trkpt lat="48.788138" lon="2.167394">
        <ele>159.602276</ele>
        <time>2024-09-08T20:17:43.546Z</time>
      </trkpt>
      <trkpt lat="48.787974" lon="2.167017">
        <ele>160.433464</ele>
        <time>2024-09-08T20:17:56.941Z</time>
      </trkpt>
      <trkpt lat="48.787948" lon="2.166777">
        <ele>160.759735</ele>
        <time>2024-09-08T20:18:04.119Z</time>
      </trkpt>
      <trkpt lat="48.787962" lon="2.166597">
        <ele>160.999577</ele>
        <time>2024-09-08T20:18:08.723Z</time>
      </trkpt>
      <trkpt lat="48.787914" lon="2.166431">
        <ele>161.239464</ele>
        <time>2024-09-08T20:18:13.787Z</time>
      </trkpt>
      <trkpt lat="48.787776" lon="2.166340">
        <ele>161.541660</ele>
        <time>2024-09-08T20:18:19.950Z</time>
      </trkpt>
      <trkpt lat="48.787562" lon="2.166327">
        <ele>161.971814</ele>
        <time>2024-09-08T20:18:28.225Z</time>
      </trkpt>
      <trkpt lat="48.787493" lon="2.166260">
        <ele>162.136331</ele>
        <time>2024-09-08T20:18:31.350Z</time>
      </trkpt>
      <trkpt lat="48.787413" lon="2.165717">
        <ele>162.872619</ele>
        <time>2024-09-08T20:18:45.769Z</time>
      </trkpt>
      <trkpt lat="48.787352" lon="2.165576">
        <ele>163.095831</ele>
        <time>2024-09-08T20:18:50.163Z</time>
      </trkpt>
      <trkpt lat="48.787166" lon="2.165390">
        <ele>163.543198</ele>
        <time>2024-09-08T20:18:59.645Z</time>
      </trkpt>
      <trkpt lat="48.787101" lon="2.165272">
        <ele>163.746731</ele>
        <time>2024-09-08T20:19:03.807Z</time>
      </trkpt>
      <trkpt lat="48.787065" lon="2.165184">
        <ele>163.883802</ele>
        <time>2024-09-08T20:19:06.484Z</time>
      </trkpt>
      <trkpt lat="48.787046" lon="2.164951">
        <ele>164.218234</ele>
        <time>2024-09-08T20:19:13.103Z</time>
      </trkpt>
      <trkpt lat="48.786962" lon="2.164642">
        <ele>164.739706</ele>
        <time>2024-09-08T20:19:23.288Z</time>
      </trkpt>
      <trkpt lat="48.786789" lon="2.164493">
        <ele>165.210689</ele>
        <time>2024-09-08T20:19:32.766Z</time>
      </trkpt>
      <trkpt lat="48.786294" lon="2.164311">
        <ele>166.416641</ele>
        <time>2024-09-08T20:19:55.263Z</time>
      </trkpt>
      <trkpt lat="48.786217" lon="2.164217">
        <ele>166.650619</ele>
        <time>2024-09-08T20:19:59.785Z</time>
      </trkpt>
      <trkpt lat="48.786165" lon="2.164028">
        <ele>166.970145</ele>
        <time>2024-09-08T20:20:05.725Z</time>
      </trkpt>
      <trkpt lat="48.786209" lon="2.163863">
        <ele>167.247839</ele>
        <time>2024-09-08T20:20:10.634Z</time>
      </trkpt>
      <trkpt lat="48.786477" lon="2.163536">
        <ele>168.062036</ele>
        <time>2024-09-08T20:20:25.579Z</time>
      </trkpt>
      <trkpt lat="48.786515" lon="2.163363">
        <ele>168.336714</ele>
        <time>2024-09-08T20:20:31.075Z</time>
      </trkpt>
      <trkpt lat="48.786515" lon="2.163182">
        <ele>168.512581</ele>
        <time>2024-09-08T20:20:36.033Z</time>
      </trkpt>
      <trkpt lat="48.786472" lon="2.162815">
        <ele>168.874766</ele>
        <time>2024-09-08T20:20:45.975Z</time>
      </trkpt>
      <trkpt lat="48.786502" lon="2.162157">
        <ele>169.515633</ele>
        <time>2024-09-08T20:21:03.157Z</time>
      </trkpt>
      <trkpt lat="48.786418" lon="2.162008">
        <ele>169.706171</ele>
        <time>2024-09-08T20:21:07.592Z</time>
      </trkpt>
      <trkpt lat="48.786417" lon="2.162299">
        <ele>169.988922</ele>
        <time>2024-09-08T20:21:12.678Z</time>
      </trkpt>
      <trkpt lat="48.786349" lon="2.162576">
        <ele>170.276141</ele>
        <time>2024-09-08T20:21:17.314Z</time>
      </trkpt>
      <trkpt lat="48.786352" lon="2.163062">
        <ele>170.748379</ele>
        <time>2024-09-08T20:21:26.312Z</time>
      </trkpt>
      <trkpt lat="48.786352" lon="2.163063">
        <ele>170.749350</ele>
        <time>2024-09-08T20:21:26.331Z</time>
      </trkpt>
      <trkpt lat="48.786312" lon="2.163331">
        <ele>171.018774</ele>
        <time>2024-09-08T20:21:31.873Z</time>
      </trkpt>
      <trkpt lat="48.786270" lon="2.163447">
        <ele>171.154579</ele>
        <time>2024-09-08T20:21:34.287Z</time>
      </trkpt>
      <trkpt lat="48.786088" lon="2.163673">
        <ele>171.520768</ele>
        <time>2024-09-08T20:21:41.505Z</time>
      </trkpt>
      <trkpt lat="48.786020" lon="2.163827">
        <ele>171.710977</ele>
        <time>2024-09-08T20:21:44.980Z</time>
      </trkpt>
      <trkpt lat="48.785980" lon="2.164123">
        <ele>172.021001</ele>
        <time>2024-09-08T20:21:50.954Z</time>
      </trkpt>
      <trkpt lat="48.785981" lon="2.164314">
        <ele>172.216978</ele>
        <time>2024-09-08T20:21:54.717Z</time>
      </trkpt>
      <trkpt lat="48.786018" lon="2.164434">
        <ele>172.352916</ele>
        <time>2024-09-08T20:21:57.815Z</time>
      </trkpt>
      <trkpt lat="48.785846" lon="2.164406">
        <ele>172.622297</ele>
        <time>2024-09-08T20:22:04.849Z</time>
      </trkpt>
      <trkpt lat="48.785534" lon="2.164449">
        <ele>173.110155</ele>
        <time>2024-09-08T20:22:17.235Z</time>
      </trkpt>
      <trkpt lat="48.785392" lon="2.164425">
        <ele>173.332649</ele>
        <time>2024-09-08T20:22:22.963Z</time>
      </trkpt>
      <trkpt lat="48.785167" lon="2.164341">
        <ele>173.693473</ele>
        <time>2024-09-08T20:22:32.470Z</time>
      </trkpt>
      <trkpt lat="48.784591" lon="2.163964">
        <ele>174.360532</ele>
        <time>2024-09-08T20:22:57.043Z</time>
      </trkpt>
      <trkpt lat="48.783619" lon="2.163328">
        <ele>175.439245</ele>
        <time>2024-09-08T20:23:34.222Z</time>
      </trkpt>
      <trkpt lat="48.783315" lon="2.163021">
        <ele>175.723813</ele>
        <time>2024-09-08T20:23:47.485Z</time>
      </trkpt>
      <trkpt lat="48.783083" lon="2.162742">
        <ele>175.896287</ele>
        <time>2024-09-08T20:23:58.716Z</time>
      </trkpt>
      <trkpt lat="48.782802" lon="2.163100">
        <ele>176.110060</ele>
        <time>2024-09-08T20:24:11.933Z</time>
      </trkpt>
      <trkpt lat="48.782720" lon="2.163445">
        <ele>176.250870</ele>
        <time>2024-09-08T20:24:17.109Z</time>
      </trkpt>
      <trkpt lat="48.782637" lon="2.164700">
        <ele>176.649563</ele>
        <time>2024-09-08T20:24:34.061Z</time>
      </trkpt>
      <trkpt lat="48.782351" lon="2.164601">
        <ele>176.638123</ele>
        <time>2024-09-08T20:24:43.427Z</time>
      </trkpt>
      <trkpt lat="48.782206" lon="2.164556">
        <ele>176.632352</ele>
        <time>2024-09-08T20:24:48.406Z</time>
      </trkpt>
      <trkpt lat="48.781807" lon="2.164421">
        <ele>176.616410</ele>
        <time>2024-09-08T20:25:02.046Z</time>
      </trkpt>
      <trkpt lat="48.781371" lon="2.164356">
        <ele>176.599325</ele>
        <time>2024-09-08T20:25:15.937Z</time>
      </trkpt>
      <trkpt lat="48.781289" lon="2.164285">
        <ele>176.595643</ele>
        <time>2024-09-08T20:25:18.900Z</time>
      </trkpt>
      <trkpt lat="48.781242" lon="2.164131">
        <ele>176.591282</ele>
        <time>2024-09-08T20:25:22.430Z</time>
      </trkpt>
      <trkpt lat="48.781275" lon="2.162768">
        <ele>175.961789</ele>
        <time>2024-09-08T20:25:48.670Z</time>
      </trkpt>
      <trkpt lat="48.781170" lon="2.162823">
        <ele>175.867277</ele>
        <time>2024-09-08T20:25:50.765Z</time>
      </trkpt>
      <trkpt lat="48.781073" lon="2.162919">
        <ele>175.768745</ele>
        <time>2024-09-08T20:25:52.949Z</time>
      </trkpt>
      <trkpt lat="48.781111" lon="2.162708">
        <ele>175.646107</ele>
        <time>2024-09-08T20:25:56.936Z</time>
      </trkpt>
      <trkpt lat="48.781104" lon="2.162501">
        <ele>175.529897</ele>
        <time>2024-09-08T20:26:01.079Z</time>
      </trkpt>
      <trkpt lat="48.781008" lon="2.162078">
        <ele>175.279065</ele>
        <time>2024-09-08T20:26:09.615Z</time>
      </trkpt>
      <trkpt lat="48.780932" lon="2.161746">
        <ele>175.082013</ele>
        <time>2024-09-08T20:26:16.453Z</time>
      </trkpt>
      <trkpt lat="48.780485" lon="2.161677">
        <ele>174.832460</ele>
        <time>2024-09-08T20:26:29.891Z</time>
      </trkpt>
      <trkpt lat="48.779183" lon="2.161476">
        <ele>174.135671</ele>
        <time>2024-09-08T20:27:09.756Z</time>
      </trkpt>
      <trkpt lat="48.777153" lon="2.161186">
        <ele>173.073654</ele>
        <time>2024-09-08T20:28:12.734Z</time>
      </trkpt>
      <trkpt lat="48.776995" lon="2.161164">
        <ele>172.825148</ele>
        <time>2024-09-08T20:28:17.384Z</time>
      </trkpt>
      <trkpt lat="48.776890" lon="2.161150">
        <ele>172.660059</ele>
        <time>2024-09-08T20:28:20.443Z</time>
      </trkpt>
      <trkpt lat="48.776623" lon="2.161113">
        <ele>172.240133</ele>
        <time>2024-09-08T20:28:28.194Z</time>
      </trkpt>
      <trkpt lat="48.774466" lon="2.160781">
        <ele>167.960330</ele>
        <time>2024-09-08T20:29:27.282Z</time>
      </trkpt>
      <trkpt lat="48.773585" lon="2.160646">
        <ele>165.700497</ele>
        <time>2024-09-08T20:29:50.560Z</time>
      </trkpt>
      <trkpt lat="48.772810" lon="2.160528">
        <ele>163.133226</ele>
        <time>2024-09-08T20:30:10.840Z</time>
      </trkpt>
      <trkpt lat="48.772835" lon="2.160047">
        <ele>162.085128</ele>
        <time>2024-09-08T20:30:19.009Z</time>
      </trkpt>
      <trkpt lat="48.772453" lon="2.159752">
        <ele>160.672343</ele>
        <time>2024-09-08T20:30:29.883Z</time>
      </trkpt>
      <trkpt lat="48.772405" lon="2.159508">
        <ele>160.122284</ele>
        <time>2024-09-08T20:30:34.041Z</time>
      </trkpt>
      <trkpt lat="48.772185" lon="2.159451">
        <ele>159.400316</ele>
        <time>2024-09-08T20:30:39.490Z</time>
      </trkpt>
      <trkpt lat="48.772104" lon="2.159288">
        <ele>158.965095</ele>
        <time>2024-09-08T20:30:42.830Z</time>
      </trkpt>
      <trkpt lat="48.771745" lon="2.159118">
        <ele>157.748541</ele>
        <time>2024-09-08T20:30:52.256Z</time>
      </trkpt>
      <trkpt lat="48.771349" lon="2.159272">
        <ele>156.426133</ele>
        <time>2024-09-08T20:31:02.763Z</time>
      </trkpt>
      <trkpt lat="48.771161" lon="2.159150">
        <ele>155.764694</ele>
        <time>2024-09-08T20:31:08.117Z</time>
      </trkpt>
      <trkpt lat="48.770887" lon="2.159174">
        <ele>154.876868</ele>
        <time>2024-09-08T20:31:15.376Z</time>
      </trkpt>
      <trkpt lat="48.770894" lon="2.158988">
        <ele>154.479670</ele>
        <time>2024-09-08T20:31:17.540Z</time>
      </trkpt>
      <trkpt lat="48.770989" lon="2.156682">
        <ele>152.018040</ele>
        <time>2024-09-08T20:31:44.902Z</time>
      </trkpt>
      <trkpt lat="48.771027" lon="2.154997">
        <ele>148.905782</ele>
        <time>2024-09-08T20:32:06.556Z</time>
      </trkpt>
      <trkpt lat="48.771030" lon="2.154930">
        <ele>148.764115</ele>
        <time>2024-09-08T20:32:07.318Z</time>
      </trkpt>
      <trkpt lat="48.771100" lon="2.153269">
        <ele>144.190970</ele>
        <time>2024-09-08T20:32:24.177Z</time>
      </trkpt>
      <trkpt lat="48.771113" lon="2.152916">
        <ele>142.022579</ele>
        <time>2024-09-08T20:32:27.410Z</time>
      </trkpt>
      <trkpt lat="48.770885" lon="2.152343">
        <ele>137.917436</ele>
        <time>2024-09-08T20:32:36.920Z</time>
      </trkpt>
      <trkpt lat="48.770701" lon="2.152091">
        <ele>135.610778</ele>
        <time>2024-09-08T20:32:42.168Z</time>
      </trkpt>
      <trkpt lat="48.770627" lon="2.152038">
        <ele>134.849280</ele>
        <time>2024-09-08T20:32:43.942Z</time>
      </trkpt>
      <trkpt lat="48.770443" lon="2.151908">
        <ele>132.960470</ele>
        <time>2024-09-08T20:32:48.222Z</time>
      </trkpt>
      <trkpt lat="48.770214" lon="2.151657">
        <ele>130.331549</ele>
        <time>2024-09-08T20:32:54.261Z</time>
      </trkpt>
      <trkpt lat="48.770085" lon="2.151435">
        <ele>128.571725</ele>
        <time>2024-09-08T20:32:58.377Z</time>
      </trkpt>
      <trkpt lat="48.769952" lon="2.150986">
        <ele>125.853568</ele>
        <time>2024-09-08T20:33:05.239Z</time>
      </trkpt>
      <trkpt lat="48.769959" lon="2.150497">
        <ele>123.152787</ele>
        <time>2024-09-08T20:33:12.086Z</time>
      </trkpt>
      <trkpt lat="48.769993" lon="2.150328">
        <ele>122.177102</ele>
        <time>2024-09-08T20:33:14.631Z</time>
      </trkpt>
      <trkpt lat="48.770065" lon="2.149988">
        <ele>120.205176</ele>
        <time>2024-09-08T20:33:19.715Z</time>
      </trkpt>
      <trkpt lat="48.770223" lon="2.149565">
        <ele>117.520457</ele>
        <time>2024-09-08T20:33:26.857Z</time>
      </trkpt>
      <trkpt lat="48.770517" lon="2.148824">
        <ele>113.423661</ele>
        <time>2024-09-08T20:33:40.732Z</time>
      </trkpt>
      <trkpt lat="48.770786" lon="2.148239">
        <ele>111.610348</ele>
        <time>2024-09-08T20:33:52.911Z</time>
      </trkpt>
      <trkpt lat="48.770962" lon="2.147925">
        <ele>110.562498</ele>
        <time>2024-09-08T20:33:59.880Z</time>
      </trkpt>
      <trkpt lat="48.771064" lon="2.147825">
        <ele>110.094091</ele>
        <time>2024-09-08T20:34:03.047Z</time>
      </trkpt>
      <trkpt lat="48.771189" lon="2.147756">
        <ele>109.581039</ele>
        <time>2024-09-08T20:34:06.388Z</time>
      </trkpt>
      <trkpt lat="48.771280" lon="2.147759">
        <ele>109.229960</ele>
        <time>2024-09-08T20:34:08.657Z</time>
      </trkpt>
      <trkpt lat="48.771503" lon="2.147838">
        <ele>108.346695</ele>
        <time>2024-09-08T20:34:14.407Z</time>
      </trkpt>
      <trkpt lat="48.771545" lon="2.147828">
        <ele>108.182715</ele>
        <time>2024-09-08T20:34:15.478Z</time>
      </trkpt>
      <trkpt lat="48.771606" lon="2.147645">
        <ele>107.661402</ele>
        <time>2024-09-08T20:34:18.837Z</time>
      </trkpt>
      <trkpt lat="48.771639" lon="2.147594">
        <ele>107.479717</ele>
        <time>2024-09-08T20:34:20.039Z</time>
      </trkpt>
      <trkpt lat="48.771442" lon="2.147465">
        <ele>106.706918</ele>
        <time>2024-09-08T20:34:23.011Z</time>
      </trkpt>
      <trkpt lat="48.771223" lon="2.147331">
        <ele>105.916862</ele>
        <time>2024-09-08T20:34:26.297Z</time>
      </trkpt>
      <trkpt lat="48.771190" lon="2.147319">
        <ele>105.803326</ele>
        <time>2024-09-08T20:34:26.769Z</time>
      </trkpt>
      <trkpt lat="48.771171" lon="2.147314">
        <ele>105.738807</ele>
        <time>2024-09-08T20:34:27.032Z</time>
      </trkpt>
      <trkpt lat="48.771121" lon="2.147331">
        <ele>105.567371</ele>
        <time>2024-09-08T20:34:27.748Z</time>
      </trkpt>
      <trkpt lat="48.771021" lon="2.147324">
        <ele>105.232439</ele>
        <time>2024-09-08T20:34:29.149Z</time>
      </trkpt>
      <trkpt lat="48.771031" lon="2.147232">
        <ele>105.026831</ele>
        <time>2024-09-08T20:34:30.063Z</time>
      </trkpt>
      <trkpt lat="48.770935" lon="2.147081">
        <ele>104.564194</ele>
        <time>2024-09-08T20:34:32.023Z</time>
      </trkpt>
      <trkpt lat="48.770831" lon="2.146899">
        <ele>104.033027</ele>
        <time>2024-09-08T20:34:34.249Z</time>
      </trkpt>
      <trkpt lat="48.770731" lon="2.146726">
        <ele>103.525612</ele>
        <time>2024-09-08T20:34:36.428Z</time>
      </trkpt>
      <trkpt lat="48.770590" lon="2.146477">
        <ele>102.801714</ele>
        <time>2024-09-08T20:34:39.452Z</time>
      </trkpt>
      <trkpt lat="48.770577" lon="2.146453">
        <ele>102.733212</ele>
        <time>2024-09-08T20:34:39.761Z</time>
      </trkpt>
      <trkpt lat="48.770227" lon="2.145808">
        <ele>101.012159</ele>
        <time>2024-09-08T20:34:47.740Z</time>
      </trkpt>
      <trkpt lat="48.770139" lon="2.145637">
        <ele>100.903982</ele>
        <time>2024-09-08T20:34:49.883Z</time>
      </trkpt>
      <trkpt lat="48.770031" lon="2.145433">
        <ele>100.773512</ele>
        <time>2024-09-08T20:34:52.591Z</time>
      </trkpt>
      <trkpt lat="48.770006" lon="2.145395">
        <ele>100.746740</ele>
        <time>2024-09-08T20:34:53.139Z</time>
      </trkpt>
      <trkpt lat="48.769713" lon="2.145018">
        <ele>100.456099</ele>
        <time>2024-09-08T20:34:59.446Z</time>
      </trkpt>
      <trkpt lat="48.769755" lon="2.144971">
        <ele>100.416617</ele>
        <time>2024-09-08T20:35:01.039Z</time>
      </trkpt>
      <trkpt lat="48.769963" lon="2.144329">
        <ele>100.059915</ele>
        <time>2024-09-08T20:35:15.486Z</time>
      </trkpt>
      <trkpt lat="48.771214" lon="2.141183">
        <ele>102.013899</ele>
        <time>2024-09-08T20:36:42.966Z</time>
      </trkpt>
      <trkpt lat="48.771234" lon="2.141029">
        <ele>102.408067</ele>
        <time>2024-09-08T20:36:47.424Z</time>
      </trkpt>
      <trkpt lat="48.771183" lon="2.141064">
        <ele>102.621345</ele>
        <time>2024-09-08T20:36:49.952Z</time>
      </trkpt>
      <trkpt lat="48.771139" lon="2.141086">
        <ele>102.797866</ele>
        <time>2024-09-08T20:36:51.487Z</time>
      </trkpt>
      <trkpt lat="48.770956" lon="2.141175">
        <ele>103.530095</ele>
        <time>2024-09-08T20:36:58.405Z</time>
      </trkpt>
      <trkpt lat="48.770876" lon="2.141168">
        <ele>103.835425</ele>
        <time>2024-09-08T20:37:01.249Z</time>
      </trkpt>
      <trkpt lat="48.770781" lon="2.141099">
        <ele>104.236739</ele>
        <time>2024-09-08T20:37:05.220Z</time>
      </trkpt>
      <trkpt lat="48.770164" lon="2.140301">
        <ele>107.325912</ele>
        <time>2024-09-08T20:37:40.612Z</time>
      </trkpt>
      <trkpt lat="48.770077" lon="2.140145">
        <ele>107.839105</ele>
        <time>2024-09-08T20:37:47.053Z</time>
      </trkpt>
      <trkpt lat="48.769928" lon="2.139877">
        <ele>108.714389</ele>
        <time>2024-09-08T20:37:58.074Z</time>
      </trkpt>
      <trkpt lat="48.769577" lon="2.139249">
        <ele>110.751114</ele>
        <time>2024-09-08T20:38:24.652Z</time>
      </trkpt>
      <trkpt lat="48.769587" lon="2.139011">
        <ele>111.341013</ele>
        <time>2024-09-08T20:38:30.826Z</time>
      </trkpt>
      <trkpt lat="48.769535" lon="2.138715">
        <ele>112.098744</ele>
        <time>2024-09-08T20:38:39.645Z</time>
      </trkpt>
      <trkpt lat="48.769538" lon="2.138632">
        <ele>112.304357</ele>
        <time>2024-09-08T20:38:41.850Z</time>
      </trkpt>
      <trkpt lat="48.769760" lon="2.137917">
        <ele>114.259359</ele>
        <time>2024-09-08T20:39:00.265Z</time>
      </trkpt>
      <trkpt lat="48.769826" lon="2.137626">
        <ele>115.020584</ele>
        <time>2024-09-08T20:39:07.160Z</time>
      </trkpt>
      <trkpt lat="48.769999" lon="2.137281">
        <ele>115.453381</ele>
        <time>2024-09-08T20:39:15.609Z</time>
      </trkpt>
      <trkpt lat="48.770170" lon="2.137215">
        <ele>115.679077</ele>
        <time>2024-09-08T20:39:20.036Z</time>
      </trkpt>
      <trkpt lat="48.770383" lon="2.137220">
        <ele>115.951562</ele>
        <time>2024-09-08T20:39:25.550Z</time>
      </trkpt>
      <trkpt lat="48.770496" lon="2.137002">
        <ele>116.185374</ele>
        <time>2024-09-08T20:39:29.220Z</time>
      </trkpt>
      <trkpt lat="48.770578" lon="2.136744">
        <ele>116.426848</ele>
        <time>2024-09-08T20:39:33.011Z</time>
      </trkpt>
      <trkpt lat="48.770719" lon="2.136091">
        <ele>117.006142</ele>
        <time>2024-09-08T20:39:43.721Z</time>
      </trkpt>
      <trkpt lat="48.770747" lon="2.135446">
        <ele>117.937680</ele>
        <time>2024-09-08T20:39:56.701Z</time>
      </trkpt>
      <trkpt lat="48.770780" lon="2.135118">
        <ele>119.064482</ele>
        <time>2024-09-08T20:40:05.199Z</time>
      </trkpt>
      <trkpt lat="48.770871" lon="2.134641">
        <ele>120.750885</ele>
        <time>2024-09-08T20:40:19.823Z</time>
      </trkpt>
      <trkpt lat="48.769921" lon="2.133485">
        <ele>127.100360</ele>
        <time>2024-09-08T20:41:36.904Z</time>
      </trkpt>
      <trkpt lat="48.769683" lon="2.133206">
        <ele>128.995741</ele>
        <time>2024-09-08T20:41:57.465Z</time>
      </trkpt>
      <trkpt lat="48.767993" lon="2.131220">
        <ele>141.137211</ele>
        <time>2024-09-08T20:44:11.783Z</time>
      </trkpt>
      <trkpt lat="48.767906" lon="2.131088">
        <ele>141.680400</ele>
        <time>2024-09-08T20:44:17.931Z</time>
      </trkpt>
      <trkpt lat="48.767938" lon="2.130823">
        <ele>142.464341</ele>
        <time>2024-09-08T20:44:25.287Z</time>
      </trkpt>
      <trkpt lat="48.768041" lon="2.130458">
        <ele>143.619678</ele>
        <time>2024-09-08T20:44:35.316Z</time>
      </trkpt>
      <trkpt lat="48.767971" lon="2.130432">
        <ele>143.937839</ele>
        <time>2024-09-08T20:44:38.913Z</time>
      </trkpt>
      <trkpt lat="48.767967" lon="2.130109">
        <ele>144.877881</ele>
        <time>2024-09-08T20:44:46.188Z</time>
      </trkpt>
      <trkpt lat="48.767923" lon="2.129733">
        <ele>145.978074</ele>
        <time>2024-09-08T20:44:54.837Z</time>
      </trkpt>
      <trkpt lat="48.767881" lon="2.129745">
        <ele>146.073014</ele>
        <time>2024-09-08T20:44:56.166Z</time>
      </trkpt>
      <trkpt lat="48.767816" lon="2.129760">
        <ele>146.219068</ele>
        <time>2024-09-08T20:44:58.216Z</time>
      </trkpt>
      <trkpt lat="48.767707" lon="2.129682">
        <ele>146.486787</ele>
        <time>2024-09-08T20:45:02.228Z</time>
      </trkpt>
      <trkpt lat="48.767398" lon="2.129618">
        <ele>147.179578</ele>
        <time>2024-09-08T20:45:11.790Z</time>
      </trkpt>
      <trkpt lat="48.767189" lon="2.129492">
        <ele>147.679170</ele>
        <time>2024-09-08T20:45:18.466Z</time>
      </trkpt>
      <trkpt lat="48.765285" lon="2.128173">
        <ele>151.774850</ele>
        <time>2024-09-08T20:46:19.513Z</time>
      </trkpt>
      <trkpt lat="48.764983" lon="2.127953">
        <ele>152.344825</ele>
        <time>2024-09-08T20:46:28.951Z</time>
      </trkpt>
      <trkpt lat="48.761041" lon="2.125067">
        <ele>156.359086</ele>
        <time>2024-09-08T20:48:13.903Z</time>
      </trkpt>
      <trkpt lat="48.760964" lon="2.125014">
        <ele>156.336368</ele>
        <time>2024-09-08T20:48:15.551Z</time>
      </trkpt>
      <trkpt lat="48.760913" lon="2.125017">
        <ele>156.322656</ele>
        <time>2024-09-08T20:48:16.489Z</time>
      </trkpt>
      <trkpt lat="48.760815" lon="2.125040">
        <ele>156.296013</ele>
        <time>2024-09-08T20:48:18.349Z</time>
      </trkpt>
      <trkpt lat="48.760767" lon="2.125107">
        <ele>156.278488</ele>
        <time>2024-09-08T20:48:19.656Z</time>
      </trkpt>
      <trkpt lat="48.760739" lon="2.125072">
        <ele>156.268740</ele>
        <time>2024-09-08T20:48:20.360Z</time>
      </trkpt>
      <trkpt lat="48.760697" lon="2.125018">
        <ele>156.253948</ele>
        <time>2024-09-08T20:48:21.418Z</time>
      </trkpt>
      <trkpt lat="48.760678" lon="2.124995">
        <ele>156.247417</ele>
        <time>2024-09-08T20:48:21.871Z</time>
      </trkpt>
      <trkpt lat="48.760653" lon="2.124952">
        <ele>156.237263</ele>
        <time>2024-09-08T20:48:22.544Z</time>
      </trkpt>
      <trkpt lat="48.760624" lon="2.124774">
        <ele>156.204789</ele>
        <time>2024-09-08T20:48:24.697Z</time>
      </trkpt>
      <trkpt lat="48.759875" lon="2.124218">
        <ele>155.980751</ele>
        <time>2024-09-08T20:48:39.219Z</time>
      </trkpt>
      <trkpt lat="48.759005" lon="2.123584">
        <ele>154.380905</ele>
        <time>2024-09-08T20:48:54.555Z</time>
      </trkpt>
      <trkpt lat="48.758830" lon="2.123353">
        <ele>153.993312</ele>
        <time>2024-09-08T20:48:58.147Z</time>
      </trkpt>
      <trkpt lat="48.757434" lon="2.122328">
        <ele>151.285992</ele>
        <time>2024-09-08T20:49:22.166Z</time>
      </trkpt>
      <trkpt lat="48.755715" lon="2.121095">
        <ele>148.448272</ele>
        <time>2024-09-08T20:49:52.656Z</time>
      </trkpt>
      <trkpt lat="48.755483" lon="2.120955">
        <ele>148.137653</ele>
        <time>2024-09-08T20:49:56.835Z</time>
      </trkpt>
      <trkpt lat="48.755127" lon="2.120796">
        <ele>147.675975</ele>
        <time>2024-09-08T20:50:03.165Z</time>
      </trkpt>
      <trkpt lat="48.754569" lon="2.120659">
        <ele>147.545127</ele>
        <time>2024-09-08T20:50:13.061Z</time>
      </trkpt>
      <trkpt lat="48.750931" lon="2.120140">
        <ele>149.022505</ele>
        <time>2024-09-08T20:51:30.691Z</time>
      </trkpt>
      <trkpt lat="48.750869" lon="2.120129">
        <ele>149.097018</ele>
        <time>2024-09-08T20:51:32.190Z</time>
      </trkpt>
      <trkpt lat="48.750846" lon="2.120125">
        <ele>149.124653</ele>
        <time>2024-09-08T20:51:32.724Z</time>
      </trkpt>
      <trkpt lat="48.750544" lon="2.120086">
        <ele>149.486449</ele>
        <time>2024-09-08T20:51:40.363Z</time>
      </trkpt>
      <trkpt lat="48.750420" lon="2.120154">
        <ele>149.643844</ele>
        <time>2024-09-08T20:51:43.662Z</time>
      </trkpt>
      <trkpt lat="48.750395" lon="2.120132">
        <ele>149.678345</ele>
        <time>2024-09-08T20:51:44.476Z</time>
      </trkpt>
      <trkpt lat="48.750350" lon="2.119985">
        <ele>149.805902</ele>
        <time>2024-09-08T20:51:47.403Z</time>
      </trkpt>
      <trkpt lat="48.750324" lon="2.119927">
        <ele>149.861102</ele>
        <time>2024-09-08T20:51:48.639Z</time>
      </trkpt>
      <trkpt lat="48.750230" lon="2.119849">
        <ele>149.989004</ele>
        <time>2024-09-08T20:51:51.493Z</time>
      </trkpt>
      <trkpt lat="48.750140" lon="2.119794">
        <ele>150.104828</ele>
        <time>2024-09-08T20:51:54.163Z</time>
      </trkpt>
      <trkpt lat="48.749992" lon="2.119765">
        <ele>150.282961</ele>
        <time>2024-09-08T20:51:58.421Z</time>
      </trkpt>
      <trkpt lat="48.749908" lon="2.119751">
        <ele>150.383834</ele>
        <time>2024-09-08T20:52:00.695Z</time>
      </trkpt>
      <trkpt lat="48.749828" lon="2.119811">
        <ele>150.490367</ele>
        <time>2024-09-08T20:52:03.119Z</time>
      </trkpt>
      <trkpt lat="48.749244" lon="2.119667">
        <ele>151.456330</ele>
        <time>2024-09-08T20:52:19.979Z</time>
      </trkpt>
      <trkpt lat="48.748929" lon="2.119518">
        <ele>152.018191</ele>
        <time>2024-09-08T20:52:29.404Z</time>
      </trkpt>
      <trkpt lat="48.748649" lon="2.119305">
        <ele>152.551588</ele>
        <time>2024-09-08T20:52:38.248Z</time>
      </trkpt>
      <trkpt lat="48.748150" lon="2.118742">
        <ele>153.610619</ele>
        <time>2024-09-08T20:52:55.320Z</time>
      </trkpt>
      <trkpt lat="48.747953" lon="2.118403">
        <ele>153.924757</ele>
        <time>2024-09-08T20:53:03.038Z</time>
      </trkpt>
      <trkpt lat="48.747698" lon="2.117860">
        <ele>154.363928</ele>
        <time>2024-09-08T20:53:14.042Z</time>
      </trkpt>
      <trkpt lat="48.747687" lon="2.117796">
        <ele>154.407499</ele>
        <time>2024-09-08T20:53:15.069Z</time>
      </trkpt>
      <trkpt lat="48.747711" lon="2.117653">
        <ele>154.504709</ele>
        <time>2024-09-08T20:53:17.357Z</time>
      </trkpt>
      <trkpt lat="48.747682" lon="2.117525">
        <ele>154.593872</ele>
        <time>2024-09-08T20:53:19.466Z</time>
      </trkpt>
      <trkpt lat="48.747617" lon="2.117442">
        <ele>154.678767</ele>
        <time>2024-09-08T20:53:21.389Z</time>
      </trkpt>
      <trkpt lat="48.747527" lon="2.117407">
        <ele>154.771596</ele>
        <time>2024-09-08T20:53:23.504Z</time>
      </trkpt>
      <trkpt lat="48.747469" lon="2.117284">
        <ele>154.871215</ele>
        <time>2024-09-08T20:53:25.823Z</time>
      </trkpt>
      <trkpt lat="48.747336" lon="2.117019">
        <ele>155.090612</ele>
        <time>2024-09-08T20:53:30.881Z</time>
      </trkpt>
      <trkpt lat="48.747226" lon="2.116921">
        <ele>155.218074</ele>
        <time>2024-09-08T20:53:33.762Z</time>
      </trkpt>
      <trkpt lat="48.747014" lon="2.116364">
        <ele>155.591581</ele>
        <time>2024-09-08T20:53:43.413Z</time>
      </trkpt>
      <trkpt lat="48.746886" lon="2.115926">
        <ele>155.825682</ele>
        <time>2024-09-08T20:53:50.603Z</time>
      </trkpt>
      <trkpt lat="48.746804" lon="2.115705">
        <ele>155.949594</ele>
        <time>2024-09-08T20:53:54.369Z</time>
      </trkpt>
      <trkpt lat="48.746762" lon="2.115594">
        <ele>156.012128</ele>
        <time>2024-09-08T20:53:56.197Z</time>
      </trkpt>
      <trkpt lat="48.746384" lon="2.114782">
        <ele>156.497821</ele>
        <time>2024-09-08T20:54:11.044Z</time>
      </trkpt>
      <trkpt lat="48.746384" lon="2.114782">
        <ele>156.497821</ele>
        <time>2024-09-08T20:54:11.056Z</time>
      </trkpt>
      <trkpt lat="48.746174" lon="2.114447">
        <ele>156.723684</ele>
        <time>2024-09-08T20:54:24.091Z</time>
      </trkpt>
      <trkpt lat="48.746142" lon="2.114383">
        <ele>156.762931</ele>
        <time>2024-09-08T20:54:26.357Z</time>
      </trkpt>
      <trkpt lat="48.746136" lon="2.114249">
        <ele>156.822914</ele>
        <time>2024-09-08T20:54:30.144Z</time>
      </trkpt>
      <trkpt lat="48.746150" lon="2.114180">
        <ele>156.854059</ele>
        <time>2024-09-08T20:54:32.181Z</time>
      </trkpt>
      <trkpt lat="48.746140" lon="2.113938">
        <ele>156.958665</ele>
        <time>2024-09-08T20:54:39.019Z</time>
      </trkpt>
      <trkpt lat="48.746087" lon="2.113769">
        <ele>157.039399</ele>
        <time>2024-09-08T20:54:44.297Z</time>
      </trkpt>
      <trkpt lat="48.746060" lon="2.113657">
        <ele>157.090845</ele>
        <time>2024-09-08T20:54:47.660Z</time>
      </trkpt>
      <trkpt lat="48.746064" lon="2.113124">
        <ele>157.320802</ele>
        <time>2024-09-08T20:55:02.692Z</time>
      </trkpt>
      <trkpt lat="48.746044" lon="2.113102">
        <ele>157.336967</ele>
        <time>2024-09-08T20:55:03.749Z</time>
      </trkpt>
      <trkpt lat="48.745907" lon="2.113107">
        <ele>157.426625</ele>
        <time>2024-09-08T20:55:09.610Z</time>
      </trkpt>
      <trkpt lat="48.745955" lon="2.112278">
        <ele>157.785643</ele>
        <time>2024-09-08T20:55:33.078Z</time>
      </trkpt>
      <trkpt lat="48.745955" lon="2.112278">
        <ele>157.785643</ele>
        <time>2024-09-08T20:55:33.126Z</time>
      </trkpt>
      <trkpt lat="48.745962" lon="2.112140">
        <ele>157.845353</ele>
        <time>2024-09-08T20:55:34.942Z</time>
      </trkpt>
      <trkpt lat="48.746004" lon="2.111914">
        <ele>157.946651</ele>
        <time>2024-09-08T20:55:38.129Z</time>
      </trkpt>
      <trkpt lat="48.746026" lon="2.111818">
        <ele>157.983278</ele>
        <time>2024-09-08T20:55:39.468Z</time>
      </trkpt>
      <trkpt lat="48.746016" lon="2.111782">
        <ele>157.996486</ele>
        <time>2024-09-08T20:55:40.016Z</time>
      </trkpt>
      <trkpt lat="48.746069" lon="2.111648">
        <ele>158.049320</ele>
        <time>2024-09-08T20:55:42.659Z</time>
      </trkpt>
      <trkpt lat="48.746065" lon="2.111569">
        <ele>158.076110</ele>
        <time>2024-09-08T20:55:43.718Z</time>
      </trkpt>
      <trkpt lat="48.746113" lon="2.111541">
        <ele>158.102481</ele>
        <time>2024-09-08T20:55:44.883Z</time>
      </trkpt>
      <trkpt lat="48.746150" lon="2.111050">
        <ele>158.269579</ele>
        <time>2024-09-08T20:55:52.781Z</time>
      </trkpt>
      <trkpt lat="48.746118" lon="2.109084">
        <ele>158.923765</ele>
        <time>2024-09-08T20:56:23.610Z</time>
      </trkpt>
      <trkpt lat="48.746187" lon="2.108731">
        <ele>159.023953</ele>
        <time>2024-09-08T20:56:29.440Z</time>
      </trkpt>
      <trkpt lat="48.746178" lon="2.108647">
        <ele>159.047110</ele>
        <time>2024-09-08T20:56:30.783Z</time>
      </trkpt>
      <trkpt lat="48.746111" lon="2.108518">
        <ele>159.091794</ele>
        <time>2024-09-08T20:56:33.402Z</time>
      </trkpt>
      <trkpt lat="48.746064" lon="2.107947">
        <ele>159.248378</ele>
        <time>2024-09-08T20:56:42.387Z</time>
      </trkpt>
      <trkpt lat="48.745948" lon="2.107593">
        <ele>159.355945</ele>
        <time>2024-09-08T20:56:48.470Z</time>
      </trkpt>
      <trkpt lat="48.745782" lon="2.107297">
        <ele>159.461683</ele>
        <time>2024-09-08T20:56:54.419Z</time>
      </trkpt>
      <trkpt lat="48.745130" lon="2.106414">
        <ele>159.749213</ele>
        <time>2024-09-08T20:57:14.438Z</time>
      </trkpt>
      <trkpt lat="48.745072" lon="2.106413">
        <ele>159.764421</ele>
        <time>2024-09-08T20:57:15.747Z</time>
      </trkpt>
      <trkpt lat="48.745488" lon="2.101263">
        <ele>160.535061</ele>
        <time>2024-09-08T20:58:25.315Z</time>
      </trkpt>
      <trkpt lat="48.745559" lon="2.100947">
        <ele>160.545794</ele>
        <time>2024-09-08T20:58:29.962Z</time>
      </trkpt>
      <trkpt lat="48.746231" lon="2.098947">
        <ele>160.486179</ele>
        <time>2024-09-08T20:58:58.241Z</time>
      </trkpt>
      <trkpt lat="48.746255" lon="2.098826">
        <ele>160.449599</ele>
        <time>2024-09-08T20:58:59.763Z</time>
      </trkpt>
      <trkpt lat="48.746184" lon="2.098794">
        <ele>160.417080</ele>
        <time>2024-09-08T20:59:01.115Z</time>
      </trkpt>
      <trkpt lat="48.745903" lon="2.098540">
        <ele>160.273460</ele>
        <time>2024-09-08T20:59:07.050Z</time>
      </trkpt>
      <trkpt lat="48.745619" lon="2.098354">
        <ele>160.137644</ele>
        <time>2024-09-08T20:59:12.607Z</time>
      </trkpt>
      <trkpt lat="48.745252" lon="2.098221">
        <ele>159.971982</ele>
        <time>2024-09-08T20:59:19.243Z</time>
      </trkpt>
      <trkpt lat="48.742728" lon="2.097869">
        <ele>158.232399</ele>
        <time>2024-09-08T21:00:03.158Z</time>
      </trkpt>
      <trkpt lat="48.742455" lon="2.097901">
        <ele>158.051530</ele>
        <time>2024-09-08T21:00:07.919Z</time>
      </trkpt>
      <trkpt lat="48.742019" lon="2.098052">
        <ele>157.756115</ele>
        <time>2024-09-08T21:00:15.695Z</time>
      </trkpt>
      <trkpt lat="48.741731" lon="2.098035">
        <ele>157.565732</ele>
        <time>2024-09-08T21:00:20.732Z</time>
      </trkpt>
      <trkpt lat="48.741394" lon="2.097959">
        <ele>157.340678</ele>
        <time>2024-09-08T21:00:26.874Z</time>
      </trkpt>
      <trkpt lat="48.740820" lon="2.097768">
        <ele>157.181087</ele>
        <time>2024-09-08T21:00:37.518Z</time>
      </trkpt>
      <trkpt lat="48.740668" lon="2.097415">
        <ele>157.120195</ele>
        <time>2024-09-08T21:00:42.902Z</time>
      </trkpt>
      <trkpt lat="48.740604" lon="2.097194">
        <ele>157.085333</ele>
        <time>2024-09-08T21:00:46.054Z</time>
      </trkpt>
      <trkpt lat="48.740638" lon="2.097100">
        <ele>157.069847</ele>
        <time>2024-09-08T21:00:47.379Z</time>
      </trkpt>
      <trkpt lat="48.740666" lon="2.096891">
        <ele>157.039044</ele>
        <time>2024-09-08T21:00:50.029Z</time>
      </trkpt>
      <trkpt lat="48.740627" lon="2.096692">
        <ele>157.009059</ele>
        <time>2024-09-08T21:00:52.683Z</time>
      </trkpt>
      <trkpt lat="48.740568" lon="2.096544">
        <ele>156.984080</ele>
        <time>2024-09-08T21:00:54.849Z</time>
      </trkpt>
      <trkpt lat="48.740547" lon="2.096489">
        <ele>156.974900</ele>
        <time>2024-09-08T21:00:55.655Z</time>
      </trkpt>
      <trkpt lat="48.740445" lon="2.096393">
        <ele>156.948607</ele>
        <time>2024-09-08T21:00:57.946Z</time>
      </trkpt>
      <trkpt lat="48.740242" lon="2.096364">
        <ele>156.903949</ele>
        <time>2024-09-08T21:01:01.877Z</time>
      </trkpt>
      <trkpt lat="48.740124" lon="2.096452">
        <ele>156.861672</ele>
        <time>2024-09-08T21:01:04.365Z</time>
      </trkpt>
      <trkpt lat="48.739989" lon="2.096373">
        <ele>156.813157</ele>
        <time>2024-09-08T21:01:07.182Z</time>
      </trkpt>
      <trkpt lat="48.739702" lon="2.095912">
        <ele>156.672984</ele>
        <time>2024-09-08T21:01:15.319Z</time>
      </trkpt>
      <trkpt lat="48.739505" lon="2.095604">
        <ele>156.578115</ele>
        <time>2024-09-08T21:01:20.571Z</time>
      </trkpt>
      <trkpt lat="48.739142" lon="2.094965">
        <ele>156.391637</ele>
        <time>2024-09-08T21:01:30.462Z</time>
      </trkpt>
      <trkpt lat="48.739006" lon="2.094787">
        <ele>156.331404</ele>
        <time>2024-09-08T21:01:33.617Z</time>
      </trkpt>
      <trkpt lat="48.738829" lon="2.094614">
        <ele>156.122554</ele>
        <time>2024-09-08T21:01:37.213Z</time>
      </trkpt>
      <trkpt lat="48.738667" lon="2.094473">
        <ele>155.824048</ele>
        <time>2024-09-08T21:01:40.416Z</time>
      </trkpt>
      <trkpt lat="48.738380" lon="2.094217">
        <ele>155.291927</ele>
        <time>2024-09-08T21:01:45.948Z</time>
      </trkpt>
      <trkpt lat="48.738316" lon="2.094161">
        <ele>155.173842</ele>
        <time>2024-09-08T21:01:47.132Z</time>
      </trkpt>
      <trkpt lat="48.738156" lon="2.094019">
        <ele>154.877572</ele>
        <time>2024-09-08T21:01:50.144Z</time>
      </trkpt>
      <trkpt lat="48.738135" lon="2.093999">
        <ele>154.837942</ele>
        <time>2024-09-08T21:01:50.538Z</time>
      </trkpt>
      <trkpt lat="48.738112" lon="2.093976">
        <ele>154.793912</ele>
        <time>2024-09-08T21:01:50.994Z</time>
      </trkpt>
      <trkpt lat="48.738097" lon="2.093963">
        <ele>154.766302</ele>
        <time>2024-09-08T21:01:51.272Z</time>
      </trkpt>
      <trkpt lat="48.738005" lon="2.093883">
        <ele>154.596818</ele>
        <time>2024-09-08T21:01:52.916Z</time>
      </trkpt>
      <trkpt lat="48.737851" lon="2.093752">
        <ele>154.314631</ele>
        <time>2024-09-08T21:01:55.669Z</time>
      </trkpt>
      <trkpt lat="48.737709" lon="2.093596">
        <ele>154.034403</ele>
        <time>2024-09-08T21:01:58.350Z</time>
      </trkpt>
      <trkpt lat="48.737328" lon="2.092888">
        <ele>152.471700</ele>
        <time>2024-09-08T21:02:07.566Z</time>
      </trkpt>
      <trkpt lat="48.737074" lon="2.092501">
        <ele>150.915495</ele>
        <time>2024-09-08T21:02:13.011Z</time>
      </trkpt>
      <trkpt lat="48.736798" lon="2.092064">
        <ele>149.190882</ele>
        <time>2024-09-08T21:02:18.675Z</time>
      </trkpt>
      <trkpt lat="48.736488" lon="2.091575">
        <ele>147.257581</ele>
        <time>2024-09-08T21:02:24.608Z</time>
      </trkpt>
      <trkpt lat="48.736437" lon="2.091458">
        <ele>146.857836</ele>
        <time>2024-09-08T21:02:25.839Z</time>
      </trkpt>
      <trkpt lat="48.736373" lon="2.091328">
        <ele>146.395443</ele>
        <time>2024-09-08T21:02:27.209Z</time>
      </trkpt>
      <trkpt lat="48.736283" lon="2.091240">
        <ele>145.932617</ele>
        <time>2024-09-08T21:02:28.553Z</time>
      </trkpt>
      <trkpt lat="48.736145" lon="2.091200">
        <ele>144.922054</ele>
        <time>2024-09-08T21:02:30.324Z</time>
      </trkpt>
      <trkpt lat="48.735837" lon="2.091160">
        <ele>141.924622</ele>
        <time>2024-09-08T21:02:34.136Z</time>
      </trkpt>
      <trkpt lat="48.735780" lon="2.091167">
        <ele>141.370116</ele>
        <time>2024-09-08T21:02:34.853Z</time>
      </trkpt>
      <trkpt lat="48.735577" lon="2.091254">
        <ele>139.324622</ele>
        <time>2024-09-08T21:02:37.427Z</time>
      </trkpt>
      <trkpt lat="48.735252" lon="2.091339">
        <ele>136.126747</ele>
        <time>2024-09-08T21:02:41.417Z</time>
      </trkpt>
      <trkpt lat="48.734915" lon="2.091427">
        <ele>132.810946</ele>
        <time>2024-09-08T21:02:45.457Z</time>
      </trkpt>
      <trkpt lat="48.734420" lon="2.091483">
        <ele>127.993218</ele>
        <time>2024-09-08T21:02:51.225Z</time>
      </trkpt>
      <trkpt lat="48.734150" lon="2.091414">
        <ele>125.279781</ele>
        <time>2024-09-08T21:02:54.431Z</time>
      </trkpt>
      <trkpt lat="48.733963" lon="2.091250">
        <ele>123.138925</ele>
        <time>2024-09-08T21:02:56.968Z</time>
      </trkpt>
      <trkpt lat="48.733889" lon="2.091255">
        <ele>122.404858</ele>
        <time>2024-09-08T21:02:57.847Z</time>
      </trkpt>
      <trkpt lat="48.733760" lon="2.091197">
        <ele>121.071444</ele>
        <time>2024-09-08T21:02:59.425Z</time>
      </trkpt>
      <trkpt lat="48.733631" lon="2.091221">
        <ele>119.783468</ele>
        <time>2024-09-08T21:03:00.959Z</time>
      </trkpt>
      <trkpt lat="48.733531" lon="2.091305">
        <ele>118.650540</ele>
        <time>2024-09-08T21:03:02.332Z</time>
      </trkpt>
      <trkpt lat="48.733474" lon="2.091442">
        <ele>117.591797</ele>
        <time>2024-09-08T21:03:03.584Z</time>
      </trkpt>
      <trkpt lat="48.733443" lon="2.091604">
        <ele>116.489258</ele>
        <time>2024-09-08T21:03:04.921Z</time>
      </trkpt>
      <trkpt lat="48.733440" lon="2.091819">
        <ele>115.083648</ele>
        <time>2024-09-08T21:03:06.657Z</time>
      </trkpt>
      <trkpt lat="48.733500" lon="2.092120">
        <ele>113.028348</ele>
        <time>2024-09-08T21:03:09.156Z</time>
      </trkpt>
      <trkpt lat="48.733288" lon="2.091974">
        <ele>110.720854</ele>
        <time>2024-09-08T21:03:12.055Z</time>
      </trkpt>
      <trkpt lat="48.732994" lon="2.091840">
        <ele>109.463516</ele>
        <time>2024-09-08T21:03:15.963Z</time>
      </trkpt>
      <trkpt lat="48.732889" lon="2.091712">
        <ele>109.008977</ele>
        <time>2024-09-08T21:03:17.698Z</time>
      </trkpt>
      <trkpt lat="48.732706" lon="2.091459">
        <ele>108.173455</ele>
        <time>2024-09-08T21:03:21.110Z</time>
      </trkpt>
      <trkpt lat="48.732638" lon="2.091386">
        <ele>107.892359</ele>
        <time>2024-09-08T21:03:22.281Z</time>
      </trkpt>
      <trkpt lat="48.732258" lon="2.091236">
        <ele>106.567625</ele>
        <time>2024-09-08T21:03:28.245Z</time>
      </trkpt>
      <trkpt lat="48.731740" lon="2.091094">
        <ele>104.791726</ele>
        <time>2024-09-08T21:03:36.627Z</time>
      </trkpt>
      <trkpt lat="48.731732" lon="2.091092">
        <ele>104.764373</ele>
        <time>2024-09-08T21:03:36.771Z</time>
      </trkpt>
      <trkpt lat="48.731682" lon="2.091078">
        <ele>104.592836</ele>
        <time>2024-09-08T21:03:37.650Z</time>
      </trkpt>
      <trkpt lat="48.731607" lon="2.091053">
        <ele>104.333768</ele>
        <time>2024-09-08T21:03:38.971Z</time>
      </trkpt>
      <trkpt lat="48.731508" lon="2.091019">
        <ele>104.391614</ele>
        <time>2024-09-08T21:03:40.775Z</time>
      </trkpt>
      <trkpt lat="48.731491" lon="2.090582">
        <ele>104.615517</ele>
        <time>2024-09-08T21:03:46.148Z</time>
      </trkpt>
      <trkpt lat="48.731488" lon="2.090501">
        <ele>104.657012</ele>
        <time>2024-09-08T21:03:47.430Z</time>
      </trkpt>
      <trkpt lat="48.731472" lon="2.089953">
        <ele>104.937575</ele>
        <time>2024-09-08T21:03:56.855Z</time>
      </trkpt>
      <trkpt lat="48.731498" lon="2.089641">
        <ele>105.098424</ele>
        <time>2024-09-08T21:04:02.603Z</time>
      </trkpt>
      <trkpt lat="48.731536" lon="2.089477">
        <ele>105.187331</ele>
        <time>2024-09-08T21:04:05.917Z</time>
      </trkpt>
      <trkpt lat="48.731648" lon="2.089186">
        <ele>105.359656</ele>
        <time>2024-09-08T21:04:11.747Z</time>
      </trkpt>
      <trkpt lat="48.731656" lon="2.089173">
        <ele>105.368749</ele>
        <time>2024-09-08T21:04:12.109Z</time>
      </trkpt>
      <trkpt lat="48.731777" lon="2.088964">
        <ele>105.510985</ele>
        <time>2024-09-08T21:04:17.211Z</time>
      </trkpt>
      <trkpt lat="48.732186" lon="2.088475">
        <ele>105.996567</ele>
        <time>2024-09-08T21:04:29.197Z</time>
      </trkpt>
      <trkpt lat="48.732228" lon="2.088422">
        <ele>106.055960</ele>
        <time>2024-09-08T21:04:30.404Z</time>
      </trkpt>
      <trkpt lat="48.732477" lon="2.088125">
        <ele>106.400313</ele>
        <time>2024-09-08T21:04:37.529Z</time>
      </trkpt>
      <trkpt lat="48.732768" lon="2.087784">
        <ele>106.800060</ele>
        <time>2024-09-08T21:04:45.573Z</time>
      </trkpt>
      <trkpt lat="48.733236" lon="2.087261">
        <ele>107.431975</ele>
        <time>2024-09-08T21:04:58.681Z</time>
      </trkpt>
      <trkpt lat="48.733866" lon="2.086879">
        <ele>110.294786</ele>
        <time>2024-09-08T21:05:19.268Z</time>
      </trkpt>
      <trkpt lat="48.734088" lon="2.086610">
        <ele>111.908902</ele>
        <time>2024-09-08T21:05:30.138Z</time>
      </trkpt>
      <trkpt lat="48.734121" lon="2.086467">
        <ele>112.476441</ele>
        <time>2024-09-08T21:05:34.502Z</time>
      </trkpt>
      <trkpt lat="48.734133" lon="2.086408">
        <ele>112.707732</ele>
        <time>2024-09-08T21:05:36.895Z</time>
      </trkpt>
      <trkpt lat="48.734174" lon="2.086206">
        <ele>113.499469</ele>
        <time>2024-09-08T21:05:43.716Z</time>
      </trkpt>
      <trkpt lat="48.734158" lon="2.085970">
        <ele>114.388211</ele>
        <time>2024-09-08T21:05:51.966Z</time>
      </trkpt>
      <trkpt lat="48.733779" lon="2.084681">
        <ele>121.606299</ele>
        <time>2024-09-08T21:06:54.096Z</time>
      </trkpt>
      <trkpt lat="48.733689" lon="2.084596">
        <ele>122.857335</ele>
        <time>2024-09-08T21:07:03.672Z</time>
      </trkpt>
      <trkpt lat="48.733070" lon="2.083360">
        <ele>134.934264</ele>
        <time>2024-09-08T21:08:43.905Z</time>
      </trkpt>
      <trkpt lat="48.732383" lon="2.082359">
        <ele>144.324054</ele>
        <time>2024-09-08T21:10:11.018Z</time>
      </trkpt>
      <trkpt lat="48.732342" lon="2.082297">
        <ele>144.828355</ele>
        <time>2024-09-08T21:10:15.021Z</time>
      </trkpt>
      <trkpt lat="48.731469" lon="2.081567">
        <ele>153.510751</ele>
        <time>2024-09-08T21:11:13.576Z</time>
      </trkpt>
      <trkpt lat="48.730395" lon="2.080473">
        <ele>158.682181</ele>
        <time>2024-09-08T21:12:02.622Z</time>
      </trkpt>
      <trkpt lat="48.730170" lon="2.080245">
        <ele>159.603747</ele>
        <time>2024-09-08T21:12:10.663Z</time>
      </trkpt>
      <trkpt lat="48.729785" lon="2.080826">
        <ele>161.106568</ele>
        <time>2024-09-08T21:12:27.291Z</time>
      </trkpt>
      <trkpt lat="48.729751" lon="2.080967">
        <ele>161.235269</ele>
        <time>2024-09-08T21:12:30.269Z</time>
      </trkpt>
      <trkpt lat="48.729765" lon="2.081088">
        <ele>161.340584</ele>
        <time>2024-09-08T21:12:32.595Z</time>
      </trkpt>
      <trkpt lat="48.728912" lon="2.081396">
        <ele>162.480222</ele>
        <time>2024-09-08T21:12:57.645Z</time>
      </trkpt>
      <trkpt lat="48.728881" lon="2.081317">
        <ele>162.559027</ele>
        <time>2024-09-08T21:12:59.280Z</time>
      </trkpt>
      <trkpt lat="48.728862" lon="2.081256">
        <ele>162.616859</ele>
        <time>2024-09-08T21:13:00.311Z</time>
      </trkpt>
      <trkpt lat="48.728773" lon="2.081251">
        <ele>162.732610</ele>
        <time>2024-09-08T21:13:02.284Z</time>
      </trkpt>
      <trkpt lat="48.728715" lon="2.081196">
        <ele>162.821524</ele>
        <time>2024-09-08T21:13:03.949Z</time>
      </trkpt>
      <trkpt lat="48.728627" lon="2.081031">
        <ele>163.003431</ele>
        <time>2024-09-08T21:13:07.309Z</time>
      </trkpt>
      <trkpt lat="48.728609" lon="2.080899">
        <ele>163.118988</ele>
        <time>2024-09-08T21:13:09.264Z</time>
      </trkpt>
      <trkpt lat="48.728621" lon="2.080814">
        <ele>163.193509</ele>
        <time>2024-09-08T21:13:10.453Z</time>
      </trkpt>
      <trkpt lat="48.728701" lon="2.080617">
        <ele>163.286425</ele>
        <time>2024-09-08T21:13:13.933Z</time>
      </trkpt>
      <trkpt lat="48.728938" lon="2.080043">
        <ele>163.488710</ele>
        <time>2024-09-08T21:13:23.764Z</time>
      </trkpt>
      <trkpt lat="48.729081" lon="2.079663">
        <ele>163.619397</ele>
        <time>2024-09-08T21:13:30.101Z</time>
      </trkpt>
      <trkpt lat="48.729140" lon="2.079398">
        <ele>163.702945</ele>
        <time>2024-09-08T21:13:33.998Z</time>
      </trkpt>
      <trkpt lat="48.729172" lon="2.079038">
        <ele>163.811455</ele>
        <time>2024-09-08T21:13:39.354Z</time>
      </trkpt>
      <trkpt lat="48.729155" lon="2.078676">
        <ele>163.919864</ele>
        <time>2024-09-08T21:13:44.265Z</time>
      </trkpt>
      <trkpt lat="48.729167" lon="2.078561">
        <ele>163.954644</ele>
        <time>2024-09-08T21:13:45.806Z</time>
      </trkpt>
      <trkpt lat="48.729091" lon="2.078282">
        <ele>164.044389</ele>
        <time>2024-09-08T21:13:49.700Z</time>
      </trkpt>
      <trkpt lat="48.729028" lon="2.078128">
        <ele>163.995353</ele>
        <time>2024-09-08T21:13:52.084Z</time>
      </trkpt>
      <trkpt lat="48.728723" lon="2.077959">
        <ele>163.862136</ele>
        <time>2024-09-08T21:13:58.208Z</time>
      </trkpt>
      <trkpt lat="48.728194" lon="2.077514">
        <ele>163.613951</ele>
        <time>2024-09-08T21:14:09.416Z</time>
      </trkpt>
      <trkpt lat="48.727556" lon="2.076960">
        <ele>163.312327</ele>
        <time>2024-09-08T21:14:24.256Z</time>
      </trkpt>
      <trkpt lat="48.726048" lon="2.075602">
        <ele>160.267988</ele>
        <time>2024-09-08T21:15:12.969Z</time>
      </trkpt>
      <trkpt lat="48.725729" lon="2.075289">
        <ele>159.272569</ele>
        <time>2024-09-08T21:15:23.046Z</time>
      </trkpt>
      <trkpt lat="48.724918" lon="2.074660">
        <ele>156.741962</ele>
        <time>2024-09-08T21:15:47.054Z</time>
      </trkpt>
      <trkpt lat="48.724052" lon="2.073845">
        <ele>153.236939</ele>
        <time>2024-09-08T21:16:13.501Z</time>
      </trkpt>
      <trkpt lat="48.723984" lon="2.073639">
        <ele>152.589075</ele>
        <time>2024-09-08T21:16:17.281Z</time>
      </trkpt>
      <trkpt lat="48.723960" lon="2.073241">
        <ele>151.465025</ele>
        <time>2024-09-08T21:16:23.858Z</time>
      </trkpt>
      <trkpt lat="48.723984" lon="2.073088">
        <ele>151.022712</ele>
        <time>2024-09-08T21:16:26.393Z</time>
      </trkpt>
      <trkpt lat="48.723834" lon="2.072847">
        <ele>150.090826</ele>
        <time>2024-09-08T21:16:31.787Z</time>
      </trkpt>
      <trkpt lat="48.723245" lon="2.072309">
        <ele>146.960630</ele>
        <time>2024-09-08T21:16:48.308Z</time>
      </trkpt>
      <trkpt lat="48.723180" lon="2.072037">
        <ele>145.675519</ele>
        <time>2024-09-08T21:16:52.799Z</time>
      </trkpt>
      <trkpt lat="48.722695" lon="2.071381">
        <ele>141.298569</ele>
        <time>2024-09-08T21:17:07.861Z</time>
      </trkpt>
      <trkpt lat="48.722449" lon="2.070994">
        <ele>138.911218</ele>
        <time>2024-09-08T21:17:15.895Z</time>
      </trkpt>
      <trkpt lat="48.722076" lon="2.070597">
        <ele>135.842226</ele>
        <time>2024-09-08T21:17:26.136Z</time>
      </trkpt>
      <trkpt lat="48.721691" lon="2.070308">
        <ele>132.017237</ele>
        <time>2024-09-08T21:17:35.740Z</time>
      </trkpt>
      <trkpt lat="48.721197" lon="2.069764">
        <ele>126.335443</ele>
        <time>2024-09-08T21:17:49.156Z</time>
      </trkpt>
      <trkpt lat="48.720979" lon="2.069564">
        <ele>123.964285</ele>
        <time>2024-09-08T21:17:54.682Z</time>
      </trkpt>
      <trkpt lat="48.720760" lon="2.069399">
        <ele>121.688587</ele>
        <time>2024-09-08T21:17:59.928Z</time>
      </trkpt>
      <trkpt lat="48.720598" lon="2.069344">
        <ele>120.143793</ele>
        <time>2024-09-08T21:18:03.456Z</time>
      </trkpt>
      <trkpt lat="48.720522" lon="2.069269">
        <ele>119.299924</ele>
        <time>2024-09-08T21:18:05.376Z</time>
      </trkpt>
      <trkpt lat="48.720385" lon="2.069224">
        <ele>117.842283</ele>
        <time>2024-09-08T21:18:08.346Z</time>
      </trkpt>
      <trkpt lat="48.720182" lon="2.069095">
        <ele>115.316761</ele>
        <time>2024-09-08T21:18:12.977Z</time>
      </trkpt>
      <trkpt lat="48.719867" lon="2.069151">
        <ele>111.677841</ele>
        <time>2024-09-08T21:18:19.601Z</time>
      </trkpt>
      <trkpt lat="48.719662" lon="2.069063">
        <ele>109.233271</ele>
        <time>2024-09-08T21:18:23.987Z</time>
      </trkpt>
      <trkpt lat="48.719604" lon="2.068978">
        <ele>108.307626</ele>
        <time>2024-09-08T21:18:25.666Z</time>
      </trkpt>
      <trkpt lat="48.719578" lon="2.068781">
        <ele>106.786875</ele>
        <time>2024-09-08T21:18:28.450Z</time>
      </trkpt>
      <trkpt lat="48.719490" lon="2.068540">
        <ele>104.701838</ele>
        <time>2024-09-08T21:18:32.197Z</time>
      </trkpt>
      <trkpt lat="48.719469" lon="2.068485">
        <ele>104.220816</ele>
        <time>2024-09-08T21:18:33.080Z</time>
      </trkpt>
      <trkpt lat="48.719488" lon="2.067919">
        <ele>99.930887</ele>
        <time>2024-09-08T21:18:40.917Z</time>
      </trkpt>
      <trkpt lat="48.719525" lon="2.067731">
        <ele>98.445836</ele>
        <time>2024-09-08T21:18:43.674Z</time>
      </trkpt>
      <trkpt lat="48.719512" lon="2.067589">
        <ele>97.650176</ele>
        <time>2024-09-08T21:18:45.677Z</time>
      </trkpt>
      <trkpt lat="48.719445" lon="2.067229">
        <ele>96.068785</ele>
        <time>2024-09-08T21:18:51.024Z</time>
      </trkpt>
      <trkpt lat="48.719315" lon="2.067023">
        <ele>94.863593</ele>
        <time>2024-09-08T21:18:55.101Z</time>
      </trkpt>
      <trkpt lat="48.719454" lon="2.066782">
        <ele>93.510247</ele>
        <time>2024-09-08T21:18:59.895Z</time>
      </trkpt>
      <trkpt lat="48.719404" lon="2.066453">
        <ele>92.082887</ele>
        <time>2024-09-08T21:19:04.992Z</time>
      </trkpt>
      <trkpt lat="48.719411" lon="2.066217">
        <ele>91.084128</ele>
        <time>2024-09-08T21:19:08.674Z</time>
      </trkpt>
      <trkpt lat="48.719709" lon="2.066082">
        <ele>89.091030</ele>
        <time>2024-09-08T21:19:16.259Z</time>
      </trkpt>
      <trkpt lat="48.720129" lon="2.066027">
        <ele>86.470154</ele>
        <time>2024-09-08T21:19:26.999Z</time>
      </trkpt>
      <trkpt lat="48.720130" lon="2.066027">
        <ele>86.468864</ele>
        <time>2024-09-08T21:19:27.011Z</time>
      </trkpt>
      <trkpt lat="48.720488" lon="2.065926">
        <ele>85.999041</ele>
        <time>2024-09-08T21:19:36.963Z</time>
      </trkpt>
      <trkpt lat="48.720789" lon="2.065705">
        <ele>85.567532</ele>
        <time>2024-09-08T21:19:46.395Z</time>
      </trkpt>
      <trkpt lat="48.720968" lon="2.065527">
        <ele>85.291324</ele>
        <time>2024-09-08T21:19:52.863Z</time>
      </trkpt>
      <trkpt lat="48.721082" lon="2.065334">
        <ele>85.070825</ele>
        <time>2024-09-08T21:19:58.056Z</time>
      </trkpt>
      <trkpt lat="48.721257" lon="2.064811">
        <ele>84.571677</ele>
        <time>2024-09-08T21:20:09.652Z</time>
      </trkpt>
      <trkpt lat="48.721437" lon="2.064369">
        <ele>84.211471</ele>
        <time>2024-09-08T21:20:20.114Z</time>
      </trkpt>
      <trkpt lat="48.721711" lon="2.063943">
        <ele>84.734130</ele>
        <time>2024-09-08T21:20:32.148Z</time>
      </trkpt>
      <trkpt lat="48.721804" lon="2.063758">
        <ele>84.938454</ele>
        <time>2024-09-08T21:20:36.972Z</time>
      </trkpt>
      <trkpt lat="48.721816" lon="2.063630">
        <ele>85.052029</ele>
        <time>2024-09-08T21:20:39.751Z</time>
      </trkpt>
      <trkpt lat="48.721613" lon="2.063255">
        <ele>85.478168</ele>
        <time>2024-09-08T21:20:50.636Z</time>
      </trkpt>
      <trkpt lat="48.721556" lon="2.063155">
        <ele>85.594264</ele>
        <time>2024-09-08T21:20:53.840Z</time>
      </trkpt>
      <trkpt lat="48.721053" lon="2.062277">
        <ele>86.821646</ele>
        <time>2024-09-08T21:21:26.578Z</time>
      </trkpt>
      <trkpt lat="48.720462" lon="2.060684">
        <ele>94.924558</ele>
        <time>2024-09-08T21:22:40.382Z</time>
      </trkpt>
      <trkpt lat="48.720276" lon="2.060080">
        <ele>97.879852</ele>
        <time>2024-09-08T21:23:12.911Z</time>
      </trkpt>
      <trkpt lat="48.719757" lon="2.058064">
        <ele>113.522039</ele>
        <time>2024-09-08T21:25:08.551Z</time>
      </trkpt>
      <trkpt lat="48.719696" lon="2.057893">
        <ele>114.974758</ele>
        <time>2024-09-08T21:25:19.012Z</time>
      </trkpt>
      <trkpt lat="48.719609" lon="2.057473">
        <ele>118.264483</ele>
        <time>2024-09-08T21:25:45.124Z</time>
      </trkpt>
      <trkpt lat="48.719638" lon="2.057294">
        <ele>119.549603</ele>
        <time>2024-09-08T21:25:56.082Z</time>
      </trkpt>
      <trkpt lat="48.719575" lon="2.057107">
        <ele>120.883629</ele>
        <time>2024-09-08T21:26:07.704Z</time>
      </trkpt>
      <trkpt lat="48.719274" lon="2.056970">
        <ele>123.910149</ele>
        <time>2024-09-08T21:26:34.195Z</time>
      </trkpt>
      <trkpt lat="48.719096" lon="2.056912">
        <ele>125.663466</ele>
        <time>2024-09-08T21:26:48.640Z</time>
      </trkpt>
      <trkpt lat="48.718910" lon="2.056747">
        <ele>127.738884</ele>
        <time>2024-09-08T21:27:06.647Z</time>
      </trkpt>
      <trkpt lat="48.718770" lon="2.056623">
        <ele>129.300407</ele>
        <time>2024-09-08T21:27:19.444Z</time>
      </trkpt>
      <trkpt lat="48.718671" lon="2.056306">
        <ele>131.528719</ele>
        <time>2024-09-08T21:27:38.048Z</time>
      </trkpt>
      <trkpt lat="48.718635" lon="2.055965">
        <ele>133.722829</ele>
        <time>2024-09-08T21:27:55.617Z</time>
      </trkpt>
      <trkpt lat="48.718491" lon="2.055732">
        <ele>135.751259</ele>
        <time>2024-09-08T21:28:10.231Z</time>
      </trkpt>
      <trkpt lat="48.718491" lon="2.055732">
        <ele>135.751259</ele>
        <time>2024-09-08T21:28:10.233Z</time>
      </trkpt>
      <trkpt lat="48.718404" lon="2.055302">
        <ele>138.092281</ele>
        <time>2024-09-08T21:28:30.988Z</time>
      </trkpt>
      <trkpt lat="48.718360" lon="2.054793">
        <ele>140.608979</ele>
        <time>2024-09-08T21:28:54.152Z</time>
      </trkpt>
      <trkpt lat="48.718317" lon="2.054504">
        <ele>142.061383</ele>
        <time>2024-09-08T21:29:08.214Z</time>
      </trkpt>
      <trkpt lat="48.718297" lon="2.054021">
        <ele>144.433951</ele>
        <time>2024-09-08T21:29:30.314Z</time>
      </trkpt>
      <trkpt lat="48.718271" lon="2.053489">
        <ele>147.049229</ele>
        <time>2024-09-08T21:29:54.296Z</time>
      </trkpt>
      <trkpt lat="48.718007" lon="2.052405">
        <ele>151.898832</ele>
        <time>2024-09-08T21:30:45.402Z</time>
      </trkpt>
      <trkpt lat="48.716809" lon="2.052586">
        <ele>158.415403</ele>
        <time>2024-09-08T21:31:56.012Z</time>
      </trkpt>
      <trkpt lat="48.716296" lon="2.052849">
        <ele>160.434563</ele>
        <time>2024-09-08T21:32:22.358Z</time>
      </trkpt>
      <trkpt lat="48.715567" lon="2.053419">
        <ele>162.741914</ele>
        <time>2024-09-08T21:32:59.834Z</time>
      </trkpt>
      <trkpt lat="48.714946" lon="2.053498">
        <ele>164.494832</ele>
        <time>2024-09-08T21:33:27.046Z</time>
      </trkpt>
      <trkpt lat="48.714249" lon="2.053385">
        <ele>165.327820</ele>
        <time>2024-09-08T21:33:54.938Z</time>
      </trkpt>
      <trkpt lat="48.713279" lon="2.053053">
        <ele>166.499464</ele>
        <time>2024-09-08T21:34:31.002Z</time>
      </trkpt>
      <trkpt lat="48.712978" lon="2.052849">
        <ele>166.554705</ele>
        <time>2024-09-08T21:34:38.067Z</time>
      </trkpt>
      <trkpt lat="48.712741" lon="2.052511">
        <ele>166.449952</ele>
        <time>2024-09-08T21:34:44.541Z</time>
      </trkpt>
      <trkpt lat="48.712479" lon="2.051513">
        <ele>166.221824</ele>
        <time>2024-09-08T21:34:57.595Z</time>
      </trkpt>
      <trkpt lat="48.712302" lon="2.050762">
        <ele>166.052447</ele>
        <time>2024-09-08T21:35:06.694Z</time>
      </trkpt>
      <trkpt lat="48.711809" lon="2.048973">
        <ele>163.643179</ele>
        <time>2024-09-08T21:35:26.875Z</time>
      </trkpt>
      <trkpt lat="48.711706" lon="2.047352">
        <ele>161.305778</ele>
        <time>2024-09-08T21:35:42.811Z</time>
      </trkpt>
      <trkpt lat="48.711686" lon="2.047112">
        <ele>160.915442</ele>
        <time>2024-09-08T21:35:45.154Z</time>
      </trkpt>
      <trkpt lat="48.711644" lon="2.046958">
        <ele>160.646561</ele>
        <time>2024-09-08T21:35:46.793Z</time>
      </trkpt>
      <trkpt lat="48.711564" lon="2.046667">
        <ele>160.137885</ele>
        <time>2024-09-08T21:35:49.899Z</time>
      </trkpt>
      <trkpt lat="48.711555" lon="2.046291">
        <ele>159.530777</ele>
        <time>2024-09-08T21:35:53.633Z</time>
      </trkpt>
      <trkpt lat="48.711583" lon="2.045541">
        <ele>158.318651</ele>
        <time>2024-09-08T21:36:01.084Z</time>
      </trkpt>
      <trkpt lat="48.711587" lon="2.045484">
        <ele>158.226157</ele>
        <time>2024-09-08T21:36:01.648Z</time>
      </trkpt>
      <trkpt lat="48.711654" lon="2.043307">
        <ele>154.558158</ele>
        <time>2024-09-08T21:36:24.098Z</time>
      </trkpt>
      <trkpt lat="48.711537" lon="2.042985">
        <ele>153.939475</ele>
        <time>2024-09-08T21:36:27.644Z</time>
      </trkpt>
      <trkpt lat="48.711550" lon="2.042816">
        <ele>153.653110</ele>
        <time>2024-09-08T21:36:29.261Z</time>
      </trkpt>
      <trkpt lat="48.711511" lon="2.042377">
        <ele>151.246823</ele>
        <time>2024-09-08T21:36:33.131Z</time>
      </trkpt>
      <trkpt lat="48.711427" lon="2.042079">
        <ele>149.461051</ele>
        <time>2024-09-08T21:36:35.931Z</time>
      </trkpt>
      <trkpt lat="48.711310" lon="2.041701">
        <ele>147.160191</ele>
        <time>2024-09-08T21:36:39.482Z</time>
      </trkpt>
      <trkpt lat="48.711305" lon="2.041484">
        <ele>145.963625</ele>
        <time>2024-09-08T21:36:41.212Z</time>
      </trkpt>
      <trkpt lat="48.711152" lon="2.041442">
        <ele>144.665050</ele>
        <time>2024-09-08T21:36:43.079Z</time>
      </trkpt>
      <trkpt lat="48.711092" lon="2.041444">
        <ele>144.163838</ele>
        <time>2024-09-08T21:36:43.797Z</time>
      </trkpt>
      <trkpt lat="48.710848" lon="2.041323">
        <ele>142.019745</ele>
        <time>2024-09-08T21:36:47.251Z</time>
      </trkpt>
      <trkpt lat="48.710487" lon="2.041100">
        <ele>138.764006</ele>
        <time>2024-09-08T21:36:52.446Z</time>
      </trkpt>
      <trkpt lat="48.710434" lon="2.041145">
        <ele>138.078124</ele>
        <time>2024-09-08T21:36:53.256Z</time>
      </trkpt>
      <trkpt lat="48.710121" lon="2.041433">
        <ele>133.502676</ele>
        <time>2024-09-08T21:37:18.843Z</time>
      </trkpt>
      <trkpt lat="48.710017" lon="2.041556">
        <ele>131.854274</ele>
        <time>2024-09-08T21:37:28.140Z</time>
      </trkpt>
      <trkpt lat="48.709776" lon="2.041591">
        <ele>128.829131</ele>
        <time>2024-09-08T21:37:45.032Z</time>
      </trkpt>
      <trkpt lat="48.709667" lon="2.041674">
        <ele>127.304883</ele>
        <time>2024-09-08T21:37:53.595Z</time>
      </trkpt>
      <trkpt lat="48.709613" lon="2.041793">
        <ele>126.114082</ele>
        <time>2024-09-08T21:38:00.247Z</time>
      </trkpt>
      <trkpt lat="48.709537" lon="2.042198">
        <ele>122.642334</ele>
        <time>2024-09-08T21:38:19.692Z</time>
      </trkpt>
      <trkpt lat="48.709516" lon="2.042225">
        <ele>122.298220</ele>
        <time>2024-09-08T21:38:21.628Z</time>
      </trkpt>
      <trkpt lat="48.709506" lon="2.042238">
        <ele>122.133592</ele>
        <time>2024-09-08T21:38:22.561Z</time>
      </trkpt>
      <trkpt lat="48.709484" lon="2.042204">
        <ele>121.740962</ele>
        <time>2024-09-08T21:38:24.758Z</time>
      </trkpt>
      <trkpt lat="48.709465" lon="2.041942">
        <ele>119.567685</ele>
        <time>2024-09-08T21:38:36.941Z</time>
      </trkpt>
      <trkpt lat="48.709474" lon="2.041656">
        <ele>117.206846</ele>
        <time>2024-09-08T21:38:50.099Z</time>
      </trkpt>
      <trkpt lat="48.709451" lon="2.041622">
        <ele>116.805369</ele>
        <time>2024-09-08T21:38:52.386Z</time>
      </trkpt>
      <trkpt lat="48.709423" lon="2.041634">
        <ele>116.441781</ele>
        <time>2024-09-08T21:38:54.394Z</time>
      </trkpt>
      <trkpt lat="48.709308" lon="2.041889">
        <ele>114.552782</ele>
        <time>2024-09-08T21:39:08.653Z</time>
      </trkpt>
      <trkpt lat="48.709227" lon="2.042320">
        <ele>111.939290</ele>
        <time>2024-09-08T21:39:29.307Z</time>
      </trkpt>
      <trkpt lat="48.709220" lon="2.042317">
        <ele>111.874999</ele>
        <time>2024-09-08T21:39:29.844Z</time>
      </trkpt>
      <trkpt lat="48.709175" lon="2.042299">
        <ele>111.463678</ele>
        <time>2024-09-08T21:39:33.068Z</time>
      </trkpt>
      <trkpt lat="48.709095" lon="2.042058">
        <ele>109.890377</ele>
        <time>2024-09-08T21:39:45.513Z</time>
      </trkpt>
      <trkpt lat="48.709051" lon="2.041735">
        <ele>107.966954</ele>
        <time>2024-09-08T21:39:48.159Z</time>
      </trkpt>
      <trkpt lat="48.709028" lon="2.040934">
        <ele>103.291175</ele>
        <time>2024-09-08T21:39:54.680Z</time>
      </trkpt>
      <trkpt lat="48.709006" lon="2.040827">
        <ele>102.637572</ele>
        <time>2024-09-08T21:39:55.603Z</time>
      </trkpt>
      <trkpt lat="48.708923" lon="2.040736">
        <ele>101.732187</ele>
        <time>2024-09-08T21:39:56.875Z</time>
      </trkpt>
      <trkpt lat="48.709032" lon="2.040334">
        <ele>99.617211</ele>
        <time>2024-09-08T21:40:02.067Z</time>
      </trkpt>
      <trkpt lat="48.709033" lon="2.040233">
        <ele>99.263919</ele>
        <time>2024-09-08T21:40:03.279Z</time>
      </trkpt>
      <trkpt lat="48.708992" lon="2.040199">
        <ele>99.016199</ele>
        <time>2024-09-08T21:40:04.091Z</time>
      </trkpt>
      <trkpt lat="48.708825" lon="2.040213">
        <ele>98.129702</ele>
        <time>2024-09-08T21:40:07.088Z</time>
      </trkpt>
      <trkpt lat="48.708612" lon="2.040078">
        <ele>96.905983</ele>
        <time>2024-09-08T21:40:11.234Z</time>
      </trkpt>
      <trkpt lat="48.708665" lon="2.039907">
        <ele>96.245211</ele>
        <time>2024-09-08T21:40:12.875Z</time>
      </trkpt>
      <trkpt lat="48.708681" lon="2.039674">
        <ele>95.425875</ele>
        <time>2024-09-08T21:40:14.933Z</time>
      </trkpt>
      <trkpt lat="48.708669" lon="2.038916">
        <ele>92.773948</ele>
        <time>2024-09-08T21:40:21.554Z</time>
      </trkpt>
      <trkpt lat="48.708809" lon="2.038646">
        <ele>91.572946</ele>
        <time>2024-09-08T21:40:24.741Z</time>
      </trkpt>
      <trkpt lat="48.708847" lon="2.038598">
        <ele>91.310743</ele>
        <time>2024-09-08T21:40:25.377Z</time>
      </trkpt>
      <trkpt lat="48.709396" lon="2.037959">
        <ele>88.801008</ele>
        <time>2024-09-08T21:40:34.924Z</time>
      </trkpt>
      <trkpt lat="48.709365" lon="2.037968">
        <ele>88.696867</ele>
        <time>2024-09-08T21:40:35.356Z</time>
      </trkpt>
      <trkpt lat="48.709305" lon="2.037914">
        <ele>88.466626</ele>
        <time>2024-09-08T21:40:36.302Z</time>
      </trkpt>
      <trkpt lat="48.708982" lon="2.037005">
        <ele>86.218869</ele>
        <time>2024-09-08T21:40:46.444Z</time>
      </trkpt>
      <trkpt lat="48.708915" lon="2.036906">
        <ele>85.910121</ele>
        <time>2024-09-08T21:40:47.771Z</time>
      </trkpt>
      <trkpt lat="48.708744" lon="2.036821">
        <ele>85.316354</ele>
        <time>2024-09-08T21:40:50.400Z</time>
      </trkpt>
      <trkpt lat="48.708627" lon="2.036865">
        <ele>84.918619</ele>
        <time>2024-09-08T21:40:52.119Z</time>
      </trkpt>
      <trkpt lat="48.708276" lon="2.037101">
        <ele>84.352099</ele>
        <time>2024-09-08T21:40:57.805Z</time>
      </trkpt>
      <trkpt lat="48.707975" lon="2.037229">
        <ele>83.961889</ele>
        <time>2024-09-08T21:41:02.622Z</time>
      </trkpt>
      <trkpt lat="48.707806" lon="2.037253">
        <ele>83.750024</ele>
        <time>2024-09-08T21:41:05.378Z</time>
      </trkpt>
      <trkpt lat="48.707476" lon="2.037314">
        <ele>83.335077</ele>
        <time>2024-09-08T21:41:10.964Z</time>
      </trkpt>
      <trkpt lat="48.707425" lon="2.037354">
        <ele>83.263399</ele>
        <time>2024-09-08T21:41:11.934Z</time>
      </trkpt>
      <trkpt lat="48.707361" lon="2.037434">
        <ele>83.159846</ele>
        <time>2024-09-08T21:41:13.332Z</time>
      </trkpt>
      <trkpt lat="48.707271" lon="2.037234">
        <ele>82.960456</ele>
        <time>2024-09-08T21:41:16.299Z</time>
      </trkpt>
      <trkpt lat="48.706852" lon="2.036702">
        <ele>82.935754</ele>
        <time>2024-09-08T21:41:27.066Z</time>
      </trkpt>
      <trkpt lat="48.706644" lon="2.036357">
        <ele>83.542874</ele>
        <time>2024-09-08T21:41:34.219Z</time>
      </trkpt>
      <trkpt lat="48.706522" lon="2.035867">
        <ele>84.223288</ele>
        <time>2024-09-08T21:41:43.297Z</time>
      </trkpt>
      <trkpt lat="48.706473" lon="2.035508">
        <ele>84.699575</ele>
        <time>2024-09-08T21:41:50.497Z</time>
      </trkpt>
      <trkpt lat="48.706338" lon="2.034057">
        <ele>87.309684</ele>
        <time>2024-09-08T21:42:24.896Z</time>
      </trkpt>
      <trkpt lat="48.706468" lon="2.034007">
        <ele>87.926299</ele>
        <time>2024-09-08T21:42:30.436Z</time>
      </trkpt>
      <trkpt lat="48.707112" lon="2.033478">
        <ele>91.294050</ele>
        <time>2024-09-08T21:43:02.081Z</time>
      </trkpt>
      <trkpt lat="48.707767" lon="2.033019">
        <ele>94.749789</ele>
        <time>2024-09-08T21:43:34.096Z</time>
      </trkpt>
      <trkpt lat="48.707890" lon="2.032931">
        <ele>95.696909</ele>
        <time>2024-09-08T21:43:40.178Z</time>
      </trkpt>
      <trkpt lat="48.708174" lon="2.032772">
        <ele>97.805080</ele>
        <time>2024-09-08T21:43:53.754Z</time>
      </trkpt>
      <trkpt lat="48.707381" lon="2.031162">
        <ele>107.173554</ele>
        <time>2024-09-08T21:45:23.015Z</time>
      </trkpt>
      <trkpt lat="48.707574" lon="2.030848">
        <ele>110.746451</ele>
        <time>2024-09-08T21:45:42.855Z</time>
      </trkpt>
      <trkpt lat="48.707724" lon="2.030503">
        <ele>114.186476</ele>
        <time>2024-09-08T21:46:03.775Z</time>
      </trkpt>
      <trkpt lat="48.707951" lon="2.029609">
        <ele>122.162207</ele>
        <time>2024-09-08T21:46:58.565Z</time>
      </trkpt>
      <trkpt lat="48.707897" lon="2.029216">
        <ele>125.504617</ele>
        <time>2024-09-08T21:47:23.672Z</time>
      </trkpt>
      <trkpt lat="48.707466" lon="2.027986">
        <ele>136.832459</ele>
        <time>2024-09-08T21:48:50.947Z</time>
      </trkpt>
      <trkpt lat="48.707291" lon="2.027239">
        <ele>143.198082</ele>
        <time>2024-09-08T21:49:35.273Z</time>
      </trkpt>
      <trkpt lat="48.707259" lon="2.026486">
        <ele>149.257626</ele>
        <time>2024-09-08T21:50:10.997Z</time>
      </trkpt>
      <trkpt lat="48.707216" lon="2.026267">
        <ele>151.092519</ele>
        <time>2024-09-08T21:50:20.321Z</time>
      </trkpt>
      <trkpt lat="48.707116" lon="2.025676">
        <ele>153.182845</ele>
        <time>2024-09-08T21:50:43.425Z</time>
      </trkpt>
      <trkpt lat="48.706955" lon="2.025106">
        <ele>155.082239</ele>
        <time>2024-09-08T21:51:02.847Z</time>
      </trkpt>
      <trkpt lat="48.706881" lon="2.024700">
        <ele>156.372570</ele>
        <time>2024-09-08T21:51:14.113Z</time>
      </trkpt>
      <trkpt lat="48.706851" lon="2.024269">
        <ele>157.700244</ele>
        <time>2024-09-08T21:51:24.670Z</time>
      </trkpt>
      <trkpt lat="48.706988" lon="2.022566">
        <ele>160.840212</ele>
        <time>2024-09-08T21:52:00.188Z</time>
      </trkpt>
      <trkpt lat="48.707080" lon="2.021756">
        <ele>161.670144</ele>
        <time>2024-09-08T21:52:15.532Z</time>
      </trkpt>
      <trkpt lat="48.707039" lon="2.020656">
        <ele>162.436609</ele>
        <time>2024-09-08T21:52:35.100Z</time>
      </trkpt>
      <trkpt lat="48.707028" lon="2.019478">
        <ele>161.840331</ele>
        <time>2024-09-08T21:52:54.159Z</time>
      </trkpt>
      <trkpt lat="48.707028" lon="2.019478">
        <ele>161.840331</ele>
        <time>2024-09-08T21:52:54.165Z</time>
      </trkpt>
      <trkpt lat="48.707365" lon="2.017601">
        <ele>158.829643</ele>
        <time>2024-09-08T21:53:16.564Z</time>
      </trkpt>
      <trkpt lat="48.705926" lon="2.016885">
        <ele>149.742178</ele>
        <time>2024-09-08T21:53:51.399Z</time>
      </trkpt>
      <trkpt lat="48.705763" lon="2.016628">
        <ele>147.501313</ele>
        <time>2024-09-08T21:53:56.501Z</time>
      </trkpt>
      <trkpt lat="48.705706" lon="2.016285">
        <ele>145.277684</ele>
        <time>2024-09-08T21:54:01.585Z</time>
      </trkpt>
      <trkpt lat="48.705756" lon="2.015652">
        <ele>141.269846</ele>
        <time>2024-09-08T21:54:10.665Z</time>
      </trkpt>
      <trkpt lat="48.705699" lon="2.015491">
        <ele>140.121245</ele>
        <time>2024-09-08T21:54:13.227Z</time>
      </trkpt>
      <trkpt lat="48.705621" lon="2.015480">
        <ele>139.374986</ele>
        <time>2024-09-08T21:54:14.283Z</time>
      </trkpt>
      <trkpt lat="48.705480" lon="2.015716">
        <ele>137.373636</ele>
        <time>2024-09-08T21:54:17.117Z</time>
      </trkpt>
      <trkpt lat="48.705267" lon="2.016424">
        <ele>132.416434</ele>
        <time>2024-09-08T21:54:24.001Z</time>
      </trkpt>
      <trkpt lat="48.705140" lon="2.017057">
        <ele>128.055964</ele>
        <time>2024-09-08T21:54:29.912Z</time>
      </trkpt>
      <trkpt lat="48.704835" lon="2.017432">
        <ele>124.133372</ele>
        <time>2024-09-08T21:54:35.205Z</time>
      </trkpt>
      <trkpt lat="48.704481" lon="2.018141">
        <ele>118.273789</ele>
        <time>2024-09-08T21:54:43.152Z</time>
      </trkpt>
      <trkpt lat="48.704396" lon="2.018913">
        <ele>113.853429</ele>
        <time>2024-09-08T21:54:50.246Z</time>
      </trkpt>
      <trkpt lat="48.704326" lon="2.019342">
        <ele>111.719984</ele>
        <time>2024-09-08T21:54:54.333Z</time>
      </trkpt>
      <trkpt lat="48.703927" lon="2.019841">
        <ele>107.935432</ele>
        <time>2024-09-08T21:55:01.822Z</time>
      </trkpt>
      <trkpt lat="48.703763" lon="2.019917">
        <ele>106.680872</ele>
        <time>2024-09-08T21:55:04.291Z</time>
      </trkpt>
      <trkpt lat="48.703707" lon="2.018516">
        <ele>100.796089</ele>
        <time>2024-09-08T21:55:16.163Z</time>
      </trkpt>
      <trkpt lat="48.703608" lon="2.017677">
        <ele>97.985575</ele>
        <time>2024-09-08T21:55:23.509Z</time>
      </trkpt>
      <trkpt lat="48.703500" lon="2.017196">
        <ele>96.310167</ele>
        <time>2024-09-08T21:55:28.117Z</time>
      </trkpt>
      <trkpt lat="48.703464" lon="2.017009">
        <ele>95.667824</ele>
        <time>2024-09-08T21:55:29.848Z</time>
      </trkpt>
      <trkpt lat="48.703432" lon="2.016666">
        <ele>94.525516</ele>
        <time>2024-09-08T21:55:33.001Z</time>
      </trkpt>
      <trkpt lat="48.703467" lon="2.015598">
        <ele>93.128694</ele>
        <time>2024-09-08T21:55:43.003Z</time>
      </trkpt>
      <trkpt lat="48.703457" lon="2.014446">
        <ele>92.292499</ele>
        <time>2024-09-08T21:55:56.257Z</time>
      </trkpt>
      <trkpt lat="48.703483" lon="2.014162">
        <ele>92.084398</ele>
        <time>2024-09-08T21:56:00.478Z</time>
      </trkpt>
      <trkpt lat="48.703629" lon="2.013732">
        <ele>91.765314</ele>
        <time>2024-09-08T21:56:08.544Z</time>
      </trkpt>
      <trkpt lat="48.703837" lon="2.013285">
        <ele>92.067413</ele>
        <time>2024-09-08T21:56:17.946Z</time>
      </trkpt>
      <trkpt lat="48.703898" lon="2.013017">
        <ele>92.223998</ele>
        <time>2024-09-08T21:56:23.186Z</time>
      </trkpt>
      <trkpt lat="48.703948" lon="2.012559">
        <ele>92.480408</ele>
        <time>2024-09-08T21:56:31.448Z</time>
      </trkpt>
      <trkpt lat="48.704115" lon="2.009418">
        <ele>93.521888</ele>
        <time>2024-09-08T21:57:15.183Z</time>
      </trkpt>
      <trkpt lat="48.704116" lon="2.009418">
        <ele>93.522118</ele>
        <time>2024-09-08T21:57:15.185Z</time>
      </trkpt>
      <trkpt lat="48.704205" lon="2.008869">
        <ele>93.607948</ele>
        <time>2024-09-08T21:57:22.285Z</time>
      </trkpt>
      <trkpt lat="48.704066" lon="2.008849">
        <ele>93.640069</ele>
        <time>2024-09-08T21:57:25.718Z</time>
      </trkpt>
      <trkpt lat="48.703732" lon="2.008814">
        <ele>93.768172</ele>
        <time>2024-09-08T21:57:34.207Z</time>
      </trkpt>
      <trkpt lat="48.704066" lon="2.008849">
        <ele>93.929977</ele>
        <time>2024-09-08T21:57:43.203Z</time>
      </trkpt>
      <trkpt lat="48.704205" lon="2.008869">
        <ele>93.997457</ele>
        <time>2024-09-08T21:57:47.115Z</time>
      </trkpt>
      <trkpt lat="48.705837" lon="2.000573">
        <ele>96.499457</ele>
        <time>2024-09-08T21:59:51.593Z</time>
      </trkpt>
      <trkpt lat="48.706020" lon="1.999871">
        <ele>96.610283</ele>
        <time>2024-09-08T22:00:00.713Z</time>
      </trkpt>
      <trkpt lat="48.707184" lon="1.995843">
        <ele>99.820077</ele>
        <time>2024-09-08T22:00:57.823Z</time>
      </trkpt>
      <trkpt lat="48.707209" lon="1.995668">
        <ele>100.264440</ele>
        <time>2024-09-08T22:01:02.102Z</time>
      </trkpt>
      <trkpt lat="48.707244" lon="1.995809">
        <ele>100.638300</ele>
        <time>2024-09-08T22:01:07.332Z</time>
      </trkpt>
      <trkpt lat="48.707250" lon="1.996308">
        <ele>101.876887</ele>
        <time>2024-09-08T22:01:26.441Z</time>
      </trkpt>
      <trkpt lat="48.707278" lon="1.996987">
        <ele>103.565266</ele>
        <time>2024-09-08T22:01:56.965Z</time>
      </trkpt>
      <trkpt lat="48.707380" lon="1.997285">
        <ele>105.757812</ele>
        <time>2024-09-08T22:02:14.634Z</time>
      </trkpt>
      <trkpt lat="48.707380" lon="1.997478">
        <ele>107.043975</ele>
        <time>2024-09-08T22:02:25.527Z</time>
      </trkpt>
      <trkpt lat="48.707514" lon="1.997811">
        <ele>109.643143</ele>
        <time>2024-09-08T22:02:48.384Z</time>
      </trkpt>
      <trkpt lat="48.707542" lon="1.998004">
        <ele>110.960016</ele>
        <time>2024-09-08T22:02:59.488Z</time>
      </trkpt>
      <trkpt lat="48.707638" lon="1.998291">
        <ele>113.104262</ele>
        <time>2024-09-08T22:03:17.634Z</time>
      </trkpt>
      <trkpt lat="48.707640" lon="1.998508">
        <ele>114.550495</ele>
        <time>2024-09-08T22:03:29.374Z</time>
      </trkpt>
      <trkpt lat="48.707579" lon="1.998777">
        <ele>116.446006</ele>
        <time>2024-09-08T22:03:45.470Z</time>
      </trkpt>
      <trkpt lat="48.707597" lon="1.999161">
        <ele>119.011440</ele>
        <time>2024-09-08T22:04:06.714Z</time>
      </trkpt>
      <trkpt lat="48.707648" lon="1.999354">
        <ele>120.396881</ele>
        <time>2024-09-08T22:04:17.893Z</time>
      </trkpt>
      <trkpt lat="48.707759" lon="1.999553">
        <ele>122.148471</ele>
        <time>2024-09-08T22:04:31.985Z</time>
      </trkpt>
      <trkpt lat="48.707765" lon="1.999664">
        <ele>122.920450</ele>
        <time>2024-09-08T22:04:38.932Z</time>
      </trkpt>
      <trkpt lat="48.707695" lon="1.999962">
        <ele>125.113018</ele>
        <time>2024-09-08T22:04:56.542Z</time>
      </trkpt>
      <trkpt lat="48.707574" lon="2.000204">
        <ele>127.217582</ele>
        <time>2024-09-08T22:05:13.965Z</time>
      </trkpt>
      <trkpt lat="48.707450" lon="2.000342">
        <ele>128.833591</ele>
        <time>2024-09-08T22:05:27.223Z</time>
      </trkpt>
      <trkpt lat="48.707397" lon="2.000457">
        <ele>129.805881</ele>
        <time>2024-09-08T22:05:35.466Z</time>
      </trkpt>
      <trkpt lat="48.707146" lon="2.001409">
        <ele>136.911979</ele>
        <time>2024-09-08T22:06:33.227Z</time>
      </trkpt>
      <trkpt lat="48.707134" lon="2.001516">
        <ele>137.664299</ele>
        <time>2024-09-08T22:06:39.287Z</time>
      </trkpt>
      <trkpt lat="48.707153" lon="2.001642">
        <ele>138.560197</ele>
        <time>2024-09-08T22:06:46.023Z</time>
      </trkpt>
      <trkpt lat="48.707249" lon="2.001761">
        <ele>139.862975</ele>
        <time>2024-09-08T22:06:55.497Z</time>
      </trkpt>
      <trkpt lat="48.707456" lon="2.001878">
        <ele>142.012960</ele>
        <time>2024-09-08T22:07:12.325Z</time>
      </trkpt>
      <trkpt lat="48.707596" lon="2.001881">
        <ele>143.320198</ele>
        <time>2024-09-08T22:07:23.929Z</time>
      </trkpt>
      <trkpt lat="48.707744" lon="2.001989">
        <ele>144.853864</ele>
        <time>2024-09-08T22:07:38.032Z</time>
      </trkpt>
      <trkpt lat="48.707901" lon="2.002236">
        <ele>146.966807</ele>
        <time>2024-09-08T22:07:57.883Z</time>
      </trkpt>
      <trkpt lat="48.707951" lon="2.002563">
        <ele>149.034872</ele>
        <time>2024-09-08T22:08:17.086Z</time>
      </trkpt>
      <trkpt lat="48.708020" lon="2.002693">
        <ele>150.062748</ele>
        <time>2024-09-08T22:08:26.020Z</time>
      </trkpt>
      <trkpt lat="48.708064" lon="2.002706">
        <ele>150.481288</ele>
        <time>2024-09-08T22:08:29.618Z</time>
      </trkpt>
      <trkpt lat="48.708186" lon="2.002616">
        <ele>151.748137</ele>
        <time>2024-09-08T22:08:40.879Z</time>
      </trkpt>
      <trkpt lat="48.708539" lon="2.002485">
        <ele>155.141301</ele>
        <time>2024-09-08T22:09:09.083Z</time>
      </trkpt>
      <trkpt lat="48.708971" lon="2.002498">
        <ele>158.183389</ele>
        <time>2024-09-08T22:09:38.684Z</time>
      </trkpt>
      <trkpt lat="48.709232" lon="2.002631">
        <ele>159.283638</ele>
        <time>2024-09-08T22:09:54.918Z</time>
      </trkpt>
      <trkpt lat="48.708861" lon="2.003795">
        <ele>162.691973</ele>
        <time>2024-09-08T22:10:28.519Z</time>
      </trkpt>
      <trkpt lat="48.708832" lon="2.004291">
        <ele>164.004890</ele>
        <time>2024-09-08T22:10:38.405Z</time>
      </trkpt>
      <trkpt lat="48.708909" lon="2.004927">
        <ele>164.812016</ele>
        <time>2024-09-08T22:10:48.597Z</time>
      </trkpt>
      <trkpt lat="48.709062" lon="2.005654">
        <ele>165.154323</ele>
        <time>2024-09-08T22:11:00.180Z</time>
      </trkpt>
      <trkpt lat="48.709260" lon="2.006265">
        <ele>165.459676</ele>
        <time>2024-09-08T22:11:10.619Z</time>
      </trkpt>
      <trkpt lat="48.709547" lon="2.006745">
        <ele>165.750240</ele>
        <time>2024-09-08T22:11:20.181Z</time>
      </trkpt>
      <trkpt lat="48.710043" lon="2.007272">
        <ele>165.721589</ele>
        <time>2024-09-08T22:11:32.879Z</time>
      </trkpt>
      <trkpt lat="48.710459" lon="2.007621">
        <ele>165.587587</ele>
        <time>2024-09-08T22:11:41.800Z</time>
      </trkpt>
      <trkpt lat="48.710626" lon="2.007642">
        <ele>165.540361</ele>
        <time>2024-09-08T22:11:44.797Z</time>
      </trkpt>
      <trkpt lat="48.711701" lon="2.008528">
        <ele>165.004208</ele>
        <time>2024-09-08T22:12:21.616Z</time>
      </trkpt>
      <trkpt lat="48.713466" lon="2.007553">
        <ele>163.671573</ele>
        <time>2024-09-08T22:13:17.918Z</time>
      </trkpt>
      <trkpt lat="48.714128" lon="2.008892">
        <ele>162.740116</ele>
        <time>2024-09-08T22:13:50.655Z</time>
      </trkpt>
      <trkpt lat="48.715320" lon="2.010235">
        <ele>160.554088</ele>
        <time>2024-09-08T22:14:33.005Z</time>
      </trkpt>
      <trkpt lat="48.715905" lon="2.010649">
        <ele>159.446044</ele>
        <time>2024-09-08T22:14:50.678Z</time>
      </trkpt>
      <trkpt lat="48.716478" lon="2.010861">
        <ele>158.234759</ele>
        <time>2024-09-08T22:15:06.770Z</time>
      </trkpt>
      <trkpt lat="48.716646" lon="2.011049">
        <ele>157.805899</ele>
        <time>2024-09-08T22:15:12.413Z</time>
      </trkpt>
      <trkpt lat="48.716835" lon="2.011550">
        <ele>157.023940</ele>
        <time>2024-09-08T22:15:22.662Z</time>
      </trkpt>
      <trkpt lat="48.717012" lon="2.012301">
        <ele>156.104305</ele>
        <time>2024-09-08T22:15:31.209Z</time>
      </trkpt>
      <trkpt lat="48.717643" lon="2.013263">
        <ele>155.222154</ele>
        <time>2024-09-08T22:15:46.762Z</time>
      </trkpt>
      <trkpt lat="48.717964" lon="2.012794">
        <ele>154.782693</ele>
        <time>2024-09-08T22:15:55.164Z</time>
      </trkpt>
      <trkpt lat="48.718108" lon="2.012703">
        <ele>154.628917</ele>
        <time>2024-09-08T22:15:58.107Z</time>
      </trkpt>
      <trkpt lat="48.718127" lon="2.012592">
        <ele>154.554344</ele>
        <time>2024-09-08T22:15:59.615Z</time>
      </trkpt>
      <trkpt lat="48.718212" lon="2.012025">
        <ele>154.704480</ele>
        <time>2024-09-08T22:16:07.264Z</time>
      </trkpt>
      <trkpt lat="48.718414" lon="2.010968">
        <ele>155.233440</ele>
        <time>2024-09-08T22:16:24.223Z</time>
      </trkpt>
      <trkpt lat="48.718547" lon="2.010360">
        <ele>155.541336</ele>
        <time>2024-09-08T22:16:35.101Z</time>
      </trkpt>
      <trkpt lat="48.718672" lon="2.009792">
        <ele>155.811299</ele>
        <time>2024-09-08T22:16:45.111Z</time>
      </trkpt>
      <trkpt lat="48.718911" lon="2.008349">
        <ele>156.197136</ele>
        <time>2024-09-08T22:17:06.536Z</time>
      </trkpt>
      <trkpt lat="48.721218" lon="2.008956">
        <ele>157.169939</ele>
        <time>2024-09-08T22:18:20.858Z</time>
      </trkpt>
      <trkpt lat="48.724029" lon="2.009882">
        <ele>162.535695</ele>
        <time>2024-09-08T22:20:23.719Z</time>
      </trkpt>
      <trkpt lat="48.724065" lon="2.009800">
        <ele>162.657986</ele>
        <time>2024-09-08T22:20:25.533Z</time>
      </trkpt>
      <trkpt lat="48.724899" lon="2.010586">
        <ele>164.366703</ele>
        <time>2024-09-08T22:21:05.801Z</time>
      </trkpt>
      <trkpt lat="48.726017" lon="2.011563">
        <ele>165.086078</ele>
        <time>2024-09-08T22:21:51.223Z</time>
      </trkpt>
      <trkpt lat="48.727492" lon="2.013008">
        <ele>164.211891</ele>
        <time>2024-09-08T22:22:44.563Z</time>
      </trkpt>
      <trkpt lat="48.727966" lon="2.013627">
        <ele>163.289280</ele>
        <time>2024-09-08T22:23:02.516Z</time>
      </trkpt>
      <trkpt lat="48.728518" lon="2.015750">
        <ele>158.605450</ele>
        <time>2024-09-08T22:23:41.815Z</time>
      </trkpt>
      <trkpt lat="48.728757" lon="2.016182">
        <ele>156.271892</ele>
        <time>2024-09-08T22:23:50.596Z</time>
      </trkpt>
      <trkpt lat="48.728995" lon="2.016455">
        <ele>153.987003</ele>
        <time>2024-09-08T22:23:54.404Z</time>
      </trkpt>
      <trkpt lat="48.729147" lon="2.016562">
        <ele>152.703976</ele>
        <time>2024-09-08T22:23:56.491Z</time>
      </trkpt>
      <trkpt lat="48.729280" lon="2.016642">
        <ele>151.608526</ele>
        <time>2024-09-08T22:23:58.281Z</time>
      </trkpt>
      <trkpt lat="48.729644" lon="2.016742">
        <ele>148.776400</ele>
        <time>2024-09-08T22:24:02.812Z</time>
      </trkpt>
      <trkpt lat="48.729785" lon="2.016820">
        <ele>147.627302</ele>
        <time>2024-09-08T22:24:04.624Z</time>
      </trkpt>
      <trkpt lat="48.730174" lon="2.017134">
        <ele>144.216745</ele>
        <time>2024-09-08T22:24:09.924Z</time>
      </trkpt>
      <trkpt lat="48.730564" lon="2.017248">
        <ele>140.692366</ele>
        <time>2024-09-08T22:24:14.682Z</time>
      </trkpt>
      <trkpt lat="48.730708" lon="2.017324">
        <ele>139.339379</ele>
        <time>2024-09-08T22:24:16.511Z</time>
      </trkpt>
      <trkpt lat="48.731137" lon="2.017667">
        <ele>135.035749</ele>
        <time>2024-09-08T22:24:22.370Z</time>
      </trkpt>
      <trkpt lat="48.731355" lon="2.017807">
        <ele>132.934951</ele>
        <time>2024-09-08T22:24:25.271Z</time>
      </trkpt>
      <trkpt lat="48.731464" lon="2.017922">
        <ele>131.756598</ele>
        <time>2024-09-08T22:24:26.911Z</time>
      </trkpt>
      <trkpt lat="48.731862" lon="2.018456">
        <ele>127.454522</ele>
        <time>2024-09-08T22:24:33.465Z</time>
      </trkpt>
      <trkpt lat="48.732174" lon="2.018815">
        <ele>124.949219</ele>
        <time>2024-09-08T22:24:38.394Z</time>
      </trkpt>
      <trkpt lat="48.732335" lon="2.018263">
        <ele>122.402876</ele>
        <time>2024-09-08T22:24:43.846Z</time>
      </trkpt>
      <trkpt lat="48.732376" lon="2.018197">
        <ele>122.020377</ele>
        <time>2024-09-08T22:24:44.695Z</time>
      </trkpt>
      <trkpt lat="48.732555" lon="2.018351">
        <ele>120.703944</ele>
        <time>2024-09-08T22:24:47.512Z</time>
      </trkpt>
      <trkpt lat="48.733225" lon="2.019558">
        <ele>114.669937</ele>
        <time>2024-09-08T22:25:02.088Z</time>
      </trkpt>
      <trkpt lat="48.733225" lon="2.019558">
        <ele>114.669937</ele>
        <time>2024-09-08T22:25:02.137Z</time>
      </trkpt>
      <trkpt lat="48.733225" lon="2.019558">
        <ele>114.669937</ele>
        <time>2024-09-08T22:25:02.137Z</time>
      </trkpt>
      <trkpt lat="48.733398" lon="2.020865">
        <ele>110.222767</ele>
        <time>2024-09-08T22:25:39.792Z</time>
      </trkpt>
      <trkpt lat="48.733727" lon="2.022045">
        <ele>107.358987</ele>
        <time>2024-09-08T22:26:15.946Z</time>
      </trkpt>
      <trkpt lat="48.733727" lon="2.022045">
        <ele>107.358987</ele>
        <time>2024-09-08T22:26:16.166Z</time>
      </trkpt>
      <trkpt lat="48.734065" lon="2.022408">
        <ele>106.761820</ele>
        <time>2024-09-08T22:26:23.023Z</time>
      </trkpt>
      <trkpt lat="48.734103" lon="2.022456">
        <ele>106.690513</ele>
        <time>2024-09-08T22:26:24.110Z</time>
      </trkpt>
      <trkpt lat="48.734455" lon="2.022887">
        <ele>106.038205</ele>
        <time>2024-09-08T22:26:32.657Z</time>
      </trkpt>
      <trkpt lat="48.734692" lon="2.022924">
        <ele>105.694711</ele>
        <time>2024-09-08T22:26:39.592Z</time>
      </trkpt>
      <trkpt lat="48.735262" lon="2.022943">
        <ele>105.994243</ele>
        <time>2024-09-08T22:27:00.919Z</time>
      </trkpt>
      <trkpt lat="48.735717" lon="2.022888">
        <ele>106.957282</ele>
        <time>2024-09-08T22:27:21.453Z</time>
      </trkpt>
      <trkpt lat="48.736452" lon="2.022902">
        <ele>108.508161</ele>
        <time>2024-09-08T22:27:54.748Z</time>
      </trkpt>
      <trkpt lat="48.737519" lon="2.022582">
        <ele>110.725079</ele>
        <time>2024-09-08T22:28:41.664Z</time>
      </trkpt>
      <trkpt lat="48.738214" lon="2.022503">
        <ele>112.127348</ele>
        <time>2024-09-08T22:29:07.874Z</time>
      </trkpt>
      <trkpt lat="48.739325" lon="2.022681">
        <ele>117.027850</ele>
        <time>2024-09-08T22:29:57.636Z</time>
      </trkpt>
      <trkpt lat="48.739922" lon="2.022963">
        <ele>120.329235</ele>
        <time>2024-09-08T22:30:36.370Z</time>
      </trkpt>
      <trkpt lat="48.739936" lon="2.023254">
        <ele>121.345147</ele>
        <time>2024-09-08T22:30:50.789Z</time>
      </trkpt>
      <trkpt lat="48.739864" lon="2.023787">
        <ele>124.355281</ele>
        <time>2024-09-08T22:31:19.320Z</time>
      </trkpt>
      <trkpt lat="48.739756" lon="2.024186">
        <ele>127.530252</ele>
        <time>2024-09-08T22:31:43.462Z</time>
      </trkpt>
      <trkpt lat="48.739600" lon="2.024607">
        <ele>131.085109</ele>
        <time>2024-09-08T22:32:11.830Z</time>
      </trkpt>
      <trkpt lat="48.739456" lon="2.025159">
        <ele>135.454984</ele>
        <time>2024-09-08T22:32:48.506Z</time>
      </trkpt>
      <trkpt lat="48.739432" lon="2.025335">
        <ele>136.778005</ele>
        <time>2024-09-08T22:33:00.102Z</time>
      </trkpt>
      <trkpt lat="48.739444" lon="2.025529">
        <ele>138.212394</ele>
        <time>2024-09-08T22:33:12.196Z</time>
      </trkpt>
      <trkpt lat="48.739556" lon="2.025848">
        <ele>140.872747</ele>
        <time>2024-09-08T22:33:34.364Z</time>
      </trkpt>
      <trkpt lat="48.739756" lon="2.026253">
        <ele>144.016470</ele>
        <time>2024-09-08T22:34:05.095Z</time>
      </trkpt>
      <trkpt lat="48.740016" lon="2.026531">
        <ele>146.663735</ele>
        <time>2024-09-08T22:34:32.958Z</time>
      </trkpt>
      <trkpt lat="48.740766" lon="2.027090">
        <ele>153.617720</ele>
        <time>2024-09-08T22:35:33.323Z</time>
      </trkpt>
      <trkpt lat="48.741146" lon="2.027529">
        <ele>157.392293</ele>
        <time>2024-09-08T22:36:01.443Z</time>
      </trkpt>
      <trkpt lat="48.741687" lon="2.028164">
        <ele>159.411400</ele>
        <time>2024-09-08T22:36:36.861Z</time>
      </trkpt>
      <trkpt lat="48.742297" lon="2.029116">
        <ele>161.994839</ele>
        <time>2024-09-08T22:37:14.492Z</time>
      </trkpt>
      <trkpt lat="48.741641" lon="2.030148">
        <ele>163.363547</ele>
        <time>2024-09-08T22:37:36.320Z</time>
      </trkpt>
      <trkpt lat="48.741455" lon="2.030509">
        <ele>163.677707</ele>
        <time>2024-09-08T22:37:43.443Z</time>
      </trkpt>
      <trkpt lat="48.741299" lon="2.030943">
        <ele>164.016668</ele>
        <time>2024-09-08T22:37:51.234Z</time>
      </trkpt>
      <trkpt lat="48.740871" lon="2.032334">
        <ele>164.954810</ele>
        <time>2024-09-08T22:38:16.376Z</time>
      </trkpt>
      <trkpt lat="48.740702" lon="2.032935">
        <ele>165.318558</ele>
        <time>2024-09-08T22:38:26.889Z</time>
      </trkpt>
      <trkpt lat="48.740508" lon="2.033756">
        <ele>165.804099</ele>
        <time>2024-09-08T22:38:39.944Z</time>
      </trkpt>
      <trkpt lat="48.740294" lon="2.034848">
        <ele>165.865265</ele>
        <time>2024-09-08T22:38:55.436Z</time>
      </trkpt>
      <trkpt lat="48.740021" lon="2.035401">
        <ele>165.769716</ele>
        <time>2024-09-08T22:39:04.053Z</time>
      </trkpt>
      <trkpt lat="48.739981" lon="2.035464">
        <ele>165.757619</ele>
        <time>2024-09-08T22:39:05.094Z</time>
      </trkpt>
      <trkpt lat="48.739788" lon="2.035964">
        <ele>165.677483</ele>
        <time>2024-09-08T22:39:11.987Z</time>
      </trkpt>
      <trkpt lat="48.739540" lon="2.036507">
        <ele>165.552772</ele>
        <time>2024-09-08T22:39:19.585Z</time>
      </trkpt>
      <trkpt lat="48.739007" lon="2.037165">
        <ele>165.106899</ele>
        <time>2024-09-08T22:39:31.294Z</time>
      </trkpt>
      <trkpt lat="48.738912" lon="2.037007">
        <ele>165.015426</ele>
        <time>2024-09-08T22:39:33.717Z</time>
      </trkpt>
      <trkpt lat="48.738701" lon="2.036747">
        <ele>164.839048</ele>
        <time>2024-09-08T22:39:38.490Z</time>
      </trkpt>
      <trkpt lat="48.738577" lon="2.036725">
        <ele>164.758057</ele>
        <time>2024-09-08T22:39:40.692Z</time>
      </trkpt>
      <trkpt lat="48.738425" lon="2.036776">
        <ele>164.657066</ele>
        <time>2024-09-08T22:39:43.421Z</time>
      </trkpt>
      <trkpt lat="48.737904" lon="2.037322">
        <ele>164.422889</ele>
        <time>2024-09-08T22:39:54.874Z</time>
      </trkpt>
      <trkpt lat="48.738117" lon="2.037805">
        <ele>164.406653</ele>
        <time>2024-09-08T22:40:02.075Z</time>
      </trkpt>
      <trkpt lat="48.738371" lon="2.038490">
        <ele>164.384693</ele>
        <time>2024-09-08T22:40:11.891Z</time>
      </trkpt>
      <trkpt lat="48.738883" lon="2.039509">
        <ele>164.398041</ele>
        <time>2024-09-08T22:40:29.103Z</time>
      </trkpt>
      <trkpt lat="48.739260" lon="2.040267">
        <ele>164.500240</ele>
        <time>2024-09-08T22:40:42.077Z</time>
      </trkpt>
      <trkpt lat="48.739973" lon="2.042090">
        <ele>164.536321</ele>
        <time>2024-09-08T22:41:09.683Z</time>
      </trkpt>
      <trkpt lat="48.740308" lon="2.042664">
        <ele>164.409707</ele>
        <time>2024-09-08T22:41:19.008Z</time>
      </trkpt>
      <trkpt lat="48.740420" lon="2.042614">
        <ele>164.380463</ele>
        <time>2024-09-08T22:41:21.265Z</time>
      </trkpt>
      <trkpt lat="48.740567" lon="2.042585">
        <ele>164.343332</ele>
        <time>2024-09-08T22:41:23.941Z</time>
      </trkpt>
      <trkpt lat="48.740707" lon="2.042613">
        <ele>164.307962</ele>
        <time>2024-09-08T22:41:26.498Z</time>
      </trkpt>
      <trkpt lat="48.741169" lon="2.042823">
        <ele>164.167998</ele>
        <time>2024-09-08T22:41:35.108Z</time>
      </trkpt>
      <trkpt lat="48.742956" lon="2.044326">
        <ele>162.985442</ele>
        <time>2024-09-08T22:42:11.164Z</time>
      </trkpt>
      <trkpt lat="48.743163" lon="2.044567">
        <ele>162.823993</ele>
        <time>2024-09-08T22:42:15.830Z</time>
      </trkpt>
      <trkpt lat="48.743341" lon="2.044903">
        <ele>162.648166</ele>
        <time>2024-09-08T22:42:20.880Z</time>
      </trkpt>
      <trkpt lat="48.743560" lon="2.045491">
        <ele>162.372672</ele>
        <time>2024-09-08T22:42:28.780Z</time>
      </trkpt>
      <trkpt lat="48.744317" lon="2.047167">
        <ele>161.198814</ele>
        <time>2024-09-08T22:42:52.103Z</time>
      </trkpt>
      <trkpt lat="48.744898" lon="2.048671">
        <ele>159.505981</ele>
        <time>2024-09-08T22:43:11.146Z</time>
      </trkpt>
      <trkpt lat="48.745075" lon="2.048983">
        <ele>158.488665</ele>
        <time>2024-09-08T22:43:15.390Z</time>
      </trkpt>
      <trkpt lat="48.745471" lon="2.049513">
        <ele>156.508878</ele>
        <time>2024-09-08T22:43:23.345Z</time>
      </trkpt>
      <trkpt lat="48.746383" lon="2.050900">
        <ele>150.018782</ele>
        <time>2024-09-08T22:43:40.128Z</time>
      </trkpt>
      <trkpt lat="48.746535" lon="2.050977">
        <ele>148.866715</ele>
        <time>2024-09-08T22:43:42.122Z</time>
      </trkpt>
      <trkpt lat="48.746745" lon="2.051020">
        <ele>147.343344</ele>
        <time>2024-09-08T22:43:44.720Z</time>
      </trkpt>
      <trkpt lat="48.747305" lon="2.050968">
        <ele>143.310009</ele>
        <time>2024-09-08T22:43:51.574Z</time>
      </trkpt>
      <trkpt lat="48.747481" lon="2.050874">
        <ele>141.968591</ele>
        <time>2024-09-08T22:43:53.888Z</time>
      </trkpt>
      <trkpt lat="48.747639" lon="2.050728">
        <ele>140.638510</ele>
        <time>2024-09-08T22:43:56.210Z</time>
      </trkpt>
      <trkpt lat="48.747769" lon="2.050530">
        <ele>139.927150</ele>
        <time>2024-09-08T22:43:58.545Z</time>
      </trkpt>
      <trkpt lat="48.748315" lon="2.049497">
        <ele>136.807258</ele>
        <time>2024-09-08T22:44:10.206Z</time>
      </trkpt>
      <trkpt lat="48.748346" lon="2.049440">
        <ele>136.633139</ele>
        <time>2024-09-08T22:44:10.919Z</time>
      </trkpt>
      <trkpt lat="48.748539" lon="2.049099">
        <ele>135.574122</ele>
        <time>2024-09-08T22:44:15.516Z</time>
      </trkpt>
      <trkpt lat="48.748657" lon="2.049084">
        <ele>135.150919</ele>
        <time>2024-09-08T22:44:17.494Z</time>
      </trkpt>
      <trkpt lat="48.748897" lon="2.049228">
        <ele>134.228490</ele>
        <time>2024-09-08T22:44:22.321Z</time>
      </trkpt>
      <trkpt lat="48.749178" lon="2.049466">
        <ele>134.193830</ele>
        <time>2024-09-08T22:44:30.568Z</time>
      </trkpt>
      <trkpt lat="48.749682" lon="2.050676">
        <ele>134.485266</ele>
        <time>2024-09-08T22:44:53.421Z</time>
      </trkpt>
      <trkpt lat="48.749874" lon="2.050994">
        <ele>134.573067</ele>
        <time>2024-09-08T22:44:58.594Z</time>
      </trkpt>
      <trkpt lat="48.749954" lon="2.051064">
        <ele>134.601590</ele>
        <time>2024-09-08T22:45:00.247Z</time>
      </trkpt>
      <trkpt lat="48.749966" lon="2.051530">
        <ele>134.596875</ele>
        <time>2024-09-08T22:45:09.600Z</time>
      </trkpt>
      <trkpt lat="48.749850" lon="2.051703">
        <ele>134.507932</ele>
        <time>2024-09-08T22:45:14.387Z</time>
      </trkpt>
      <trkpt lat="48.749608" lon="2.051816">
        <ele>134.369499</ele>
        <time>2024-09-08T22:45:22.112Z</time>
      </trkpt>
      <trkpt lat="48.749349" lon="2.052050">
        <ele>134.204680</ele>
        <time>2024-09-08T22:45:31.354Z</time>
      </trkpt>
      <trkpt lat="48.749221" lon="2.052248">
        <ele>134.104723</ele>
        <time>2024-09-08T22:45:36.872Z</time>
      </trkpt>
      <trkpt lat="48.749157" lon="2.052505">
        <ele>134.005693</ele>
        <time>2024-09-08T22:45:42.727Z</time>
      </trkpt>
      <trkpt lat="48.748871" lon="2.054082">
        <ele>133.079889</ele>
        <time>2024-09-08T22:46:14.662Z</time>
      </trkpt>
      <trkpt lat="48.748902" lon="2.054409">
        <ele>132.807464</ele>
        <time>2024-09-08T22:46:21.130Z</time>
      </trkpt>
      <trkpt lat="48.749035" lon="2.054939">
        <ele>132.339833</ele>
        <time>2024-09-08T22:46:32.046Z</time>
      </trkpt>
      <trkpt lat="48.749047" lon="2.055257">
        <ele>132.077175</ele>
        <time>2024-09-08T22:46:37.961Z</time>
      </trkpt>
      <trkpt lat="48.749062" lon="2.055606">
        <ele>131.788772</ele>
        <time>2024-09-08T22:46:44.370Z</time>
      </trkpt>
      <trkpt lat="48.749031" lon="2.055810">
        <ele>131.616139</ele>
        <time>2024-09-08T22:46:48.110Z</time>
      </trkpt>
      <trkpt lat="48.748884" lon="2.056358">
        <ele>130.929593</ele>
        <time>2024-09-08T22:46:58.935Z</time>
      </trkpt>
      <trkpt lat="48.748571" lon="2.057188">
        <ele>129.618039</ele>
        <time>2024-09-08T22:47:16.212Z</time>
      </trkpt>
      <trkpt lat="48.748490" lon="2.057810">
        <ele>128.748363</ele>
        <time>2024-09-08T22:47:27.125Z</time>
      </trkpt>
      <trkpt lat="48.748453" lon="2.058291">
        <ele>128.084103</ele>
        <time>2024-09-08T22:47:35.606Z</time>
      </trkpt>
      <trkpt lat="48.748342" lon="2.058579">
        <ele>127.663950</ele>
        <time>2024-09-08T22:47:41.620Z</time>
      </trkpt>
      <trkpt lat="48.748037" lon="2.059210">
        <ele>127.266013</ele>
        <time>2024-09-08T22:47:56.919Z</time>
      </trkpt>
      <trkpt lat="48.747964" lon="2.059378">
        <ele>127.163678</ele>
        <time>2024-09-08T22:48:00.924Z</time>
      </trkpt>
      <trkpt lat="48.747876" lon="2.059702">
        <ele>126.985451</ele>
        <time>2024-09-08T22:48:08.422Z</time>
      </trkpt>
      <trkpt lat="48.747572" lon="2.060267">
        <ele>126.614544</ele>
        <time>2024-09-08T22:48:23.444Z</time>
      </trkpt>
      <trkpt lat="48.747498" lon="2.060449">
        <ele>126.505789</ele>
        <time>2024-09-08T22:48:27.705Z</time>
      </trkpt>
      <trkpt lat="48.747388" lon="2.060822">
        <ele>126.298748</ele>
        <time>2024-09-08T22:48:35.670Z</time>
      </trkpt>
      <trkpt lat="48.747371" lon="2.060928">
        <ele>126.313466</ele>
        <time>2024-09-08T22:48:37.748Z</time>
      </trkpt>
      <trkpt lat="48.747384" lon="2.061086">
        <ele>126.334948</ele>
        <time>2024-09-08T22:48:40.938Z</time>
      </trkpt>
      <trkpt lat="48.747389" lon="2.061185">
        <ele>126.348344</ele>
        <time>2024-09-08T22:48:42.788Z</time>
      </trkpt>
      <trkpt lat="48.747346" lon="2.061390">
        <ele>126.377368</ele>
        <time>2024-09-08T22:48:46.840Z</time>
      </trkpt>
      <trkpt lat="48.747294" lon="2.061499">
        <ele>126.395519</ele>
        <time>2024-09-08T22:48:49.411Z</time>
      </trkpt>
      <trkpt lat="48.747281" lon="2.061626">
        <ele>126.412859</ele>
        <time>2024-09-08T22:48:51.946Z</time>
      </trkpt>
      <trkpt lat="48.747205" lon="2.061796">
        <ele>126.440569</ele>
        <time>2024-09-08T22:48:56.007Z</time>
      </trkpt>
      <trkpt lat="48.747144" lon="2.062289">
        <ele>126.508244</ele>
        <time>2024-09-08T22:49:05.971Z</time>
      </trkpt>
      <trkpt lat="48.747016" lon="2.062448">
        <ele>126.542098</ele>
        <time>2024-09-08T22:49:11.129Z</time>
      </trkpt>
      <trkpt lat="48.746821" lon="2.062908">
        <ele>126.615879</ele>
        <time>2024-09-08T22:49:23.925Z</time>
      </trkpt>
      <trkpt lat="48.746770" lon="2.063095">
        <ele>126.643182</ele>
        <time>2024-09-08T22:49:29.298Z</time>
      </trkpt>
      <trkpt lat="48.746717" lon="2.063194">
        <ele>126.660387</ele>
        <time>2024-09-08T22:49:32.777Z</time>
      </trkpt>
      <trkpt lat="48.746647" lon="2.063199">
        <ele>126.894855</ele>
        <time>2024-09-08T22:49:35.617Z</time>
      </trkpt>
      <trkpt lat="48.746575" lon="2.063282">
        <ele>127.414997</ele>
        <time>2024-09-08T22:49:39.418Z</time>
      </trkpt>
      <trkpt lat="48.746303" lon="2.063400">
        <ele>129.042087</ele>
        <time>2024-09-08T22:49:52.946Z</time>
      </trkpt>
      <trkpt lat="48.746274" lon="2.063407">
        <ele>129.210973</ele>
        <time>2024-09-08T22:49:54.412Z</time>
      </trkpt>
      <trkpt lat="48.746148" lon="2.063388">
        <ele>129.939206</ele>
        <time>2024-09-08T22:50:01.157Z</time>
      </trkpt>
      <trkpt lat="48.746060" lon="2.063294">
        <ele>130.558260</ele>
        <time>2024-09-08T22:50:07.211Z</time>
      </trkpt>
      <trkpt lat="48.745975" lon="2.063110">
        <ele>131.410258</ele>
        <time>2024-09-08T22:50:15.714Z</time>
      </trkpt>
      <trkpt lat="48.745760" lon="2.062694">
        <ele>133.414730</ele>
        <time>2024-09-08T22:50:37.961Z</time>
      </trkpt>
      <trkpt lat="48.745188" lon="2.061996">
        <ele>137.788942</ele>
        <time>2024-09-08T22:51:32.494Z</time>
      </trkpt>
      <trkpt lat="48.745097" lon="2.061713">
        <ele>139.272342</ele>
        <time>2024-09-08T22:51:49.021Z</time>
      </trkpt>
      <trkpt lat="48.745025" lon="2.060834">
        <ele>143.445478</ele>
        <time>2024-09-08T22:52:34.821Z</time>
      </trkpt>
      <trkpt lat="48.744868" lon="2.060783">
        <ele>144.592665</ele>
        <time>2024-09-08T22:52:44.901Z</time>
      </trkpt>
      <trkpt lat="48.744746" lon="2.060788">
        <ele>145.464654</ele>
        <time>2024-09-08T22:52:52.014Z</time>
      </trkpt>
      <trkpt lat="48.744572" lon="2.060895">
        <ele>146.806180</ele>
        <time>2024-09-08T22:53:02.039Z</time>
      </trkpt>
      <trkpt lat="48.744139" lon="2.060696">
        <ele>149.792884</ele>
        <time>2024-09-08T22:53:21.914Z</time>
      </trkpt>
      <trkpt lat="48.743911" lon="2.060685">
        <ele>149.154650</ele>
        <time>2024-09-08T22:53:29.312Z</time>
      </trkpt>
      <trkpt lat="48.743811" lon="2.060803">
        <ele>148.800140</ele>
        <time>2024-09-08T22:53:32.455Z</time>
      </trkpt>
      <trkpt lat="48.743861" lon="2.060972">
        <ele>148.458394</ele>
        <time>2024-09-08T22:53:34.883Z</time>
      </trkpt>
      <trkpt lat="48.743856" lon="2.061212">
        <ele>148.015378</ele>
        <time>2024-09-08T22:53:37.635Z</time>
      </trkpt>
      <trkpt lat="48.743851" lon="2.061503">
        <ele>147.478306</ele>
        <time>2024-09-08T22:53:40.540Z</time>
      </trkpt>
      <trkpt lat="48.743813" lon="2.061692">
        <ele>147.113756</ele>
        <time>2024-09-08T22:53:42.408Z</time>
      </trkpt>
      <trkpt lat="48.743750" lon="2.061836">
        <ele>146.794923</ele>
        <time>2024-09-08T22:53:43.952Z</time>
      </trkpt>
      <trkpt lat="48.743698" lon="2.061956">
        <ele>146.530000</ele>
        <time>2024-09-08T22:53:45.202Z</time>
      </trkpt>
      <trkpt lat="48.743686" lon="2.062094">
        <ele>146.273188</ele>
        <time>2024-09-08T22:53:47.394Z</time>
      </trkpt>
      <trkpt lat="48.744003" lon="2.062494">
        <ele>145.119384</ele>
        <time>2024-09-08T22:53:56.794Z</time>
      </trkpt>
      <trkpt lat="48.744161" lon="2.062794">
        <ele>143.476514</ele>
        <time>2024-09-08T22:54:02.367Z</time>
      </trkpt>
      <trkpt lat="48.744267" lon="2.063099">
        <ele>141.420805</ele>
        <time>2024-09-08T22:54:07.273Z</time>
      </trkpt>
      <trkpt lat="48.744530" lon="2.063651">
        <ele>137.360234</ele>
        <time>2024-09-08T22:54:16.867Z</time>
      </trkpt>
      <trkpt lat="48.744666" lon="2.063880">
        <ele>135.522673</ele>
        <time>2024-09-08T22:54:21.199Z</time>
      </trkpt>
      <trkpt lat="48.745474" lon="2.064612">
        <ele>128.185273</ele>
        <time>2024-09-08T22:54:41.719Z</time>
      </trkpt>
      <trkpt lat="48.745609" lon="2.064774">
        <ele>127.803756</ele>
        <time>2024-09-08T22:54:45.616Z</time>
      </trkpt>
      <trkpt lat="48.745650" lon="2.064864">
        <ele>127.643900</ele>
        <time>2024-09-08T22:54:47.325Z</time>
      </trkpt>
      <trkpt lat="48.745803" lon="2.065044">
        <ele>127.214759</ele>
        <time>2024-09-08T22:54:51.945Z</time>
      </trkpt>
      <trkpt lat="48.745853" lon="2.065095">
        <ele>127.081219</ele>
        <time>2024-09-08T22:54:52.747Z</time>
      </trkpt>
      <trkpt lat="48.745895" lon="2.065138">
        <ele>126.968915</ele>
        <time>2024-09-08T22:54:53.987Z</time>
      </trkpt>
      <trkpt lat="48.746081" lon="2.065296">
        <ele>126.496447</ele>
        <time>2024-09-08T22:54:59.630Z</time>
      </trkpt>
      <trkpt lat="48.746035" lon="2.065409">
        <ele>126.302383</ele>
        <time>2024-09-08T22:55:01.944Z</time>
      </trkpt>
      <trkpt lat="48.745928" lon="2.065805">
        <ele>125.676994</ele>
        <time>2024-09-08T22:55:10.591Z</time>
      </trkpt>
      <trkpt lat="48.745857" lon="2.065940">
        <ele>125.424648</ele>
        <time>2024-09-08T22:55:14.413Z</time>
      </trkpt>
      <trkpt lat="48.745590" lon="2.066290">
        <ele>124.642516</ele>
        <time>2024-09-08T22:55:30.619Z</time>
      </trkpt>
      <trkpt lat="48.745438" lon="2.066538">
        <ele>126.190946</ele>
        <time>2024-09-08T22:55:43.660Z</time>
      </trkpt>
      <trkpt lat="48.745363" lon="2.066825">
        <ele>127.872057</ele>
        <time>2024-09-08T22:55:55.952Z</time>
      </trkpt>
      <trkpt lat="48.745678" lon="2.067426">
        <ele>132.052691</ele>
        <time>2024-09-08T22:56:32.020Z</time>
      </trkpt>
      <trkpt lat="48.746077" lon="2.067646">
        <ele>135.558732</ele>
        <time>2024-09-08T22:57:07.302Z</time>
      </trkpt>
      <trkpt lat="48.746259" lon="2.068184">
        <ele>138.851409</ele>
        <time>2024-09-08T22:57:42.162Z</time>
      </trkpt>
      <trkpt lat="48.746375" lon="2.068433">
        <ele>140.626163</ele>
        <time>2024-09-08T22:58:00.117Z</time>
      </trkpt>
      <trkpt lat="48.746387" lon="2.068614">
        <ele>141.722044</ele>
        <time>2024-09-08T22:58:10.695Z</time>
      </trkpt>
      <trkpt lat="48.746896" lon="2.069044">
        <ele>147.045085</ele>
        <time>2024-09-08T22:59:00.896Z</time>
      </trkpt>
      <trkpt lat="48.747552" lon="2.069601">
        <ele>153.913680</ele>
        <time>2024-09-08T22:59:56.898Z</time>
      </trkpt>
      <trkpt lat="48.747797" lon="2.069808">
        <ele>156.094689</ele>
        <time>2024-09-08T23:00:15.676Z</time>
      </trkpt>
      <trkpt lat="48.748240" lon="2.070227">
        <ele>157.883320</ele>
        <time>2024-09-08T23:00:40.599Z</time>
      </trkpt>
      <trkpt lat="48.749181" lon="2.071317">
        <ele>161.939829</ele>
        <time>2024-09-08T23:01:19.323Z</time>
      </trkpt>
      <trkpt lat="48.750177" lon="2.068834">
        <ele>163.324885</ele>
        <time>2024-09-08T23:02:00.927Z</time>
      </trkpt>
      <trkpt lat="48.750261" lon="2.068596">
        <ele>163.413607</ele>
        <time>2024-09-08T23:02:04.769Z</time>
      </trkpt>
      <trkpt lat="48.750487" lon="2.067666">
        <ele>163.739355</ele>
        <time>2024-09-08T23:02:19.215Z</time>
      </trkpt>
      <trkpt lat="48.750527" lon="2.067742">
        <ele>163.771315</ele>
        <time>2024-09-08T23:02:20.576Z</time>
      </trkpt>
      <trkpt lat="48.750672" lon="2.067876">
        <ele>163.855952</ele>
        <time>2024-09-08T23:02:24.219Z</time>
      </trkpt>
      <trkpt lat="48.750876" lon="2.067911">
        <ele>163.958286</ele>
        <time>2024-09-08T23:02:28.775Z</time>
      </trkpt>
      <trkpt lat="48.750949" lon="2.067824">
        <ele>164.004564</ele>
        <time>2024-09-08T23:02:30.814Z</time>
      </trkpt>
      <trkpt lat="48.751112" lon="2.067649">
        <ele>164.104109</ele>
        <time>2024-09-08T23:02:35.201Z</time>
      </trkpt>
      <trkpt lat="48.751212" lon="2.067644">
        <ele>164.153982</ele>
        <time>2024-09-08T23:02:37.292Z</time>
      </trkpt>
      <trkpt lat="48.751492" lon="2.067807">
        <ele>164.173222</ele>
        <time>2024-09-08T23:02:43.755Z</time>
      </trkpt>
      <trkpt lat="48.753764" lon="2.069593">
        <ele>164.014228</ele>
        <time>2024-09-08T23:03:31.810Z</time>
      </trkpt>
      <trkpt lat="48.755189" lon="2.070717">
        <ele>163.846389</ele>
        <time>2024-09-08T23:04:02.047Z</time>
      </trkpt>
      <trkpt lat="48.755598" lon="2.071006">
        <ele>163.815420</ele>
        <time>2024-09-08T23:04:10.619Z</time>
      </trkpt>
      <trkpt lat="48.755572" lon="2.071186">
        <ele>163.807082</ele>
        <time>2024-09-08T23:04:12.896Z</time>
      </trkpt>
      <trkpt lat="48.755646" lon="2.071246">
        <ele>163.801323</ele>
        <time>2024-09-08T23:04:14.491Z</time>
      </trkpt>
      <trkpt lat="48.755679" lon="2.071445">
        <ele>163.792038</ele>
        <time>2024-09-08T23:04:17.055Z</time>
      </trkpt>
      <trkpt lat="48.755739" lon="2.071579">
        <ele>163.784708</ele>
        <time>2024-09-08T23:04:19.072Z</time>
      </trkpt>
      <trkpt lat="48.755876" lon="2.071727">
        <ele>163.791980</ele>
        <time>2024-09-08T23:04:22.292Z</time>
      </trkpt>
      <trkpt lat="48.755952" lon="2.071761">
        <ele>163.802630</ele>
        <time>2024-09-08T23:04:23.783Z</time>
      </trkpt>
      <trkpt lat="48.756015" lon="2.071781">
        <ele>163.811281</ele>
        <time>2024-09-08T23:04:25.017Z</time>
      </trkpt>
      <trkpt lat="48.756296" lon="2.071676">
        <ele>163.850178</ele>
        <time>2024-09-08T23:04:30.541Z</time>
      </trkpt>
      <trkpt lat="48.757138" lon="2.072276">
        <ele>163.975216</ele>
        <time>2024-09-08T23:04:48.924Z</time>
      </trkpt>
      <trkpt lat="48.757942" lon="2.072914">
        <ele>164.182478</ele>
        <time>2024-09-08T23:05:08.106Z</time>
      </trkpt>
      <trkpt lat="48.758618" lon="2.073405">
        <ele>164.396441</ele>
        <time>2024-09-08T23:05:23.622Z</time>
      </trkpt>
      <trkpt lat="48.759226" lon="2.073707">
        <ele>164.540290</ele>
        <time>2024-09-08T23:05:36.714Z</time>
      </trkpt>
      <trkpt lat="48.759263" lon="2.073673">
        <ele>164.541835</ele>
        <time>2024-09-08T23:05:37.565Z</time>
      </trkpt>
      <trkpt lat="48.759314" lon="2.073641">
        <ele>164.543806</ele>
        <time>2024-09-08T23:05:38.667Z</time>
      </trkpt>
      <trkpt lat="48.759394" lon="2.073643">
        <ele>164.546663</ele>
        <time>2024-09-08T23:05:40.274Z</time>
      </trkpt>
      <trkpt lat="48.759465" lon="2.073700">
        <ele>164.549532</ele>
        <time>2024-09-08T23:05:41.884Z</time>
      </trkpt>
      <trkpt lat="48.759496" lon="2.073739">
        <ele>164.550970</ele>
        <time>2024-09-08T23:05:42.709Z</time>
      </trkpt>
      <trkpt lat="48.759565" lon="2.073699">
        <ele>164.553608</ele>
        <time>2024-09-08T23:05:44.191Z</time>
      </trkpt>
      <trkpt lat="48.760077" lon="2.073629">
        <ele>164.571967</ele>
        <time>2024-09-08T23:05:54.198Z</time>
      </trkpt>
      <trkpt lat="48.761525" lon="2.072885">
        <ele>164.346873</ele>
        <time>2024-09-08T23:06:22.992Z</time>
      </trkpt>
      <trkpt lat="48.761739" lon="2.073025">
        <ele>164.270814</ele>
        <time>2024-09-08T23:06:27.238Z</time>
      </trkpt>
      <trkpt lat="48.761939" lon="2.073034">
        <ele>164.205514</ele>
        <time>2024-09-08T23:06:30.863Z</time>
      </trkpt>
      <trkpt lat="48.762126" lon="2.073459">
        <ele>164.095585</ele>
        <time>2024-09-08T23:06:36.903Z</time>
      </trkpt>
      <trkpt lat="48.762401" lon="2.073734">
        <ele>163.962636</ele>
        <time>2024-09-08T23:06:42.747Z</time>
      </trkpt>
      <trkpt lat="48.762610" lon="2.074063">
        <ele>163.759559</ele>
        <time>2024-09-08T23:06:48.030Z</time>
      </trkpt>
      <trkpt lat="48.763434" lon="2.075680">
        <ele>162.851171</ele>
        <time>2024-09-08T23:07:11.432Z</time>
      </trkpt>
      <trkpt lat="48.765320" lon="2.079263">
        <ele>161.252344</ele>
        <time>2024-09-08T23:08:05.103Z</time>
      </trkpt>
      <trkpt lat="48.765667" lon="2.079951">
        <ele>160.976123</ele>
        <time>2024-09-08T23:08:15.445Z</time>
      </trkpt>
      <trkpt lat="48.765687" lon="2.080063">
        <ele>160.939124</ele>
        <time>2024-09-08T23:08:16.934Z</time>
      </trkpt>
      <trkpt lat="48.765638" lon="2.080624">
        <ele>160.846785</ele>
        <time>2024-09-08T23:08:24.135Z</time>
      </trkpt>
      <trkpt lat="48.765700" lon="2.080745">
        <ele>160.822063</ele>
        <time>2024-09-08T23:08:26.102Z</time>
      </trkpt>
      <trkpt lat="48.765774" lon="2.080877">
        <ele>160.794111</ele>
        <time>2024-09-08T23:08:28.330Z</time>
      </trkpt>
      <trkpt lat="48.766053" lon="2.080869">
        <ele>160.725820</ele>
        <time>2024-09-08T23:08:33.757Z</time>
      </trkpt>
      <trkpt lat="48.766168" lon="2.080827">
        <ele>160.696873</ele>
        <time>2024-09-08T23:08:36.067Z</time>
      </trkpt>
      <trkpt lat="48.766301" lon="2.080709">
        <ele>160.659168</ele>
        <time>2024-09-08T23:08:39.050Z</time>
      </trkpt>
      <trkpt lat="48.766394" lon="2.080687">
        <ele>160.636134</ele>
        <time>2024-09-08T23:08:40.920Z</time>
      </trkpt>
      <trkpt lat="48.770238" lon="2.082400">
        <ele>160.058342</ele>
        <time>2024-09-08T23:10:46.182Z</time>
      </trkpt>
      <trkpt lat="48.770286" lon="2.082422">
        <ele>160.054427</ele>
        <time>2024-09-08T23:10:47.863Z</time>
      </trkpt>
      <trkpt lat="48.770452" lon="2.082518">
        <ele>160.089789</ele>
        <time>2024-09-08T23:10:53.821Z</time>
      </trkpt>
      <trkpt lat="48.770550" lon="2.082573">
        <ele>160.157720</ele>
        <time>2024-09-08T23:10:57.299Z</time>
      </trkpt>
      <trkpt lat="48.770699" lon="2.082903">
        <ele>160.329119</ele>
        <time>2024-09-08T23:11:03.305Z</time>
      </trkpt>
      <trkpt lat="48.770710" lon="2.082982">
        <ele>160.363716</ele>
        <time>2024-09-08T23:11:04.524Z</time>
      </trkpt>
      <trkpt lat="48.770769" lon="2.083029">
        <ele>160.407039</ele>
        <time>2024-09-08T23:11:06.034Z</time>
      </trkpt>
      <trkpt lat="48.770883" lon="2.083079">
        <ele>160.484188</ele>
        <time>2024-09-08T23:11:08.853Z</time>
      </trkpt>
      <trkpt lat="48.770939" lon="2.083111">
        <ele>160.523092</ele>
        <time>2024-09-08T23:11:10.264Z</time>
      </trkpt>
      <trkpt lat="48.771165" lon="2.082951">
        <ele>160.685228</ele>
        <time>2024-09-08T23:11:16.275Z</time>
      </trkpt>
      <trkpt lat="48.771227" lon="2.082877">
        <ele>160.736513</ele>
        <time>2024-09-08T23:11:18.189Z</time>
      </trkpt>
      <trkpt lat="48.771300" lon="2.082852">
        <ele>160.785166</ele>
        <time>2024-09-08T23:11:20.029Z</time>
      </trkpt>
      <trkpt lat="48.772514" lon="2.083578">
        <ele>161.661381</ele>
        <time>2024-09-08T23:11:51.192Z</time>
      </trkpt>
      <trkpt lat="48.772839" lon="2.083964">
        <ele>161.947579</ele>
        <time>2024-09-08T23:12:00.824Z</time>
      </trkpt>
      <trkpt lat="48.773094" lon="2.084426">
        <ele>162.222982</ele>
        <time>2024-09-08T23:12:09.724Z</time>
      </trkpt>
      <trkpt lat="48.773317" lon="2.085027">
        <ele>162.454108</ele>
        <time>2024-09-08T23:12:19.423Z</time>
      </trkpt>
      <trkpt lat="48.774320" lon="2.089438">
        <ele>161.740311</ele>
        <time>2024-09-08T23:13:16.900Z</time>
      </trkpt>
      <trkpt lat="48.774595" lon="2.090442">
        <ele>160.825527</ele>
        <time>2024-09-08T23:13:28.992Z</time>
      </trkpt>
      <trkpt lat="48.774632" lon="2.090431">
        <ele>160.733581</ele>
        <time>2024-09-08T23:13:29.607Z</time>
      </trkpt>
      <trkpt lat="48.774665" lon="2.090422">
        <ele>160.651816</ele>
        <time>2024-09-08T23:13:30.143Z</time>
      </trkpt>
      <trkpt lat="48.774697" lon="2.090632">
        <ele>160.305416</ele>
        <time>2024-09-08T23:13:40.033Z</time>
      </trkpt>
      <trkpt lat="48.774761" lon="2.090521">
        <ele>160.068388</ele>
        <time>2024-09-08T23:13:41.566Z</time>
      </trkpt>
      <trkpt lat="48.774840" lon="2.090709">
        <ele>159.710055</ele>
        <time>2024-09-08T23:13:43.858Z</time>
      </trkpt>
      <trkpt lat="48.775207" lon="2.091598">
        <ele>158.024159</ele>
        <time>2024-09-08T23:13:54.167Z</time>
      </trkpt>
      <trkpt lat="48.775237" lon="2.091675">
        <ele>157.880404</ele>
        <time>2024-09-08T23:13:55.009Z</time>
      </trkpt>
      <trkpt lat="48.775303" lon="2.091833">
        <ele>157.579768</ele>
        <time>2024-09-08T23:13:56.748Z</time>
      </trkpt>
      <trkpt lat="48.775381" lon="2.092124">
        <ele>156.910535</ele>
        <time>2024-09-08T23:13:59.631Z</time>
      </trkpt>
      <trkpt lat="48.775523" lon="2.093013">
        <ele>153.135967</ele>
        <time>2024-09-08T23:14:07.694Z</time>
      </trkpt>
      <trkpt lat="48.775665" lon="2.093431">
        <ele>151.195461</ele>
        <time>2024-09-08T23:14:11.710Z</time>
      </trkpt>
      <trkpt lat="48.775859" lon="2.093746">
        <ele>149.416405</ele>
        <time>2024-09-08T23:14:15.300Z</time>
      </trkpt>
      <trkpt lat="48.776501" lon="2.094649">
        <ele>143.403183</ele>
        <time>2024-09-08T23:14:26.080Z</time>
      </trkpt>
      <trkpt lat="48.776766" lon="2.094925">
        <ele>140.850479</ele>
        <time>2024-09-08T23:14:29.984Z</time>
      </trkpt>
      <trkpt lat="48.777356" lon="2.095378">
        <ele>135.598963</ele>
        <time>2024-09-08T23:14:38.054Z</time>
      </trkpt>
      <trkpt lat="48.777581" lon="2.095599">
        <ele>133.470314</ele>
        <time>2024-09-08T23:14:41.383Z</time>
      </trkpt>
      <trkpt lat="48.778004" lon="2.096025">
        <ele>130.534261</ele>
        <time>2024-09-08T23:14:48.292Z</time>
      </trkpt>
      <trkpt lat="48.778267" lon="2.096218">
        <ele>129.372944</ele>
        <time>2024-09-08T23:14:52.433Z</time>
      </trkpt>
      <trkpt lat="48.778298" lon="2.096277">
        <ele>129.175274</ele>
        <time>2024-09-08T23:14:53.153Z</time>
      </trkpt>
      <trkpt lat="48.778298" lon="2.096417">
        <ele>128.808532</ele>
        <time>2024-09-08T23:14:54.512Z</time>
      </trkpt>
      <trkpt lat="48.778265" lon="2.096497">
        <ele>128.561293</ele>
        <time>2024-09-08T23:14:55.437Z</time>
      </trkpt>
      <trkpt lat="48.778150" lon="2.096619">
        <ele>128.003507</ele>
        <time>2024-09-08T23:14:57.517Z</time>
      </trkpt>
      <trkpt lat="48.778007" lon="2.096699">
        <ele>127.397649</ele>
        <time>2024-09-08T23:14:59.686Z</time>
      </trkpt>
      <trkpt lat="48.777836" lon="2.096796">
        <ele>126.671943</ele>
        <time>2024-09-08T23:15:02.349Z</time>
      </trkpt>
      <trkpt lat="48.777799" lon="2.096819">
        <ele>126.512997</ele>
        <time>2024-09-08T23:15:02.932Z</time>
      </trkpt>
      <trkpt lat="48.777700" lon="2.096878">
        <ele>126.090186</ele>
        <time>2024-09-08T23:15:04.502Z</time>
      </trkpt>
      <trkpt lat="48.777388" lon="2.097082">
        <ele>124.739680</ele>
        <time>2024-09-08T23:15:09.703Z</time>
      </trkpt>
      <trkpt lat="48.777300" lon="2.097132">
        <ele>124.415302</ele>
        <time>2024-09-08T23:15:11.222Z</time>
      </trkpt>
      <trkpt lat="48.776890" lon="2.097360">
        <ele>123.412754</ele>
        <time>2024-09-08T23:15:18.170Z</time>
      </trkpt>
      <trkpt lat="48.776709" lon="2.097548">
        <ele>122.909166</ele>
        <time>2024-09-08T23:15:21.697Z</time>
      </trkpt>
      <trkpt lat="48.776326" lon="2.098249">
        <ele>121.531429</ele>
        <time>2024-09-08T23:15:31.023Z</time>
      </trkpt>
      <trkpt lat="48.775712" lon="2.099602">
        <ele>119.014003</ele>
        <time>2024-09-08T23:15:46.527Z</time>
      </trkpt>
      <trkpt lat="48.775643" lon="2.099732">
        <ele>118.755286</ele>
        <time>2024-09-08T23:15:49.450Z</time>
      </trkpt>
      <trkpt lat="48.775963" lon="2.100204">
        <ele>117.705708</ele>
        <time>2024-09-08T23:16:01.332Z</time>
      </trkpt>
      <trkpt lat="48.776054" lon="2.100342">
        <ele>117.403128</ele>
        <time>2024-09-08T23:16:04.866Z</time>
      </trkpt>
      <trkpt lat="48.776158" lon="2.100548">
        <ele>117.000921</ele>
        <time>2024-09-08T23:16:09.622Z</time>
      </trkpt>
      <trkpt lat="48.776205" lon="2.100695">
        <ele>116.747684</ele>
        <time>2024-09-08T23:16:12.591Z</time>
      </trkpt>
      <trkpt lat="48.776230" lon="2.101079">
        <ele>116.149619</ele>
        <time>2024-09-08T23:16:19.811Z</time>
      </trkpt>
      <trkpt lat="48.776161" lon="2.102078">
        <ele>115.820999</ele>
        <time>2024-09-08T23:16:39.251Z</time>
      </trkpt>
      <trkpt lat="48.776189" lon="2.102487">
        <ele>115.695317</ele>
        <time>2024-09-08T23:16:47.907Z</time>
      </trkpt>
      <trkpt lat="48.776256" lon="2.102985">
        <ele>115.539966</ele>
        <time>2024-09-08T23:16:59.348Z</time>
      </trkpt>
      <trkpt lat="48.776258" lon="2.103000">
        <ele>115.535288</ele>
        <time>2024-09-08T23:16:59.687Z</time>
      </trkpt>
      <trkpt lat="48.776272" lon="2.103311">
        <ele>115.440011</ele>
        <time>2024-09-08T23:17:06.440Z</time>
      </trkpt>
      <trkpt lat="48.776251" lon="2.103687">
        <ele>115.324676</ele>
        <time>2024-09-08T23:17:14.164Z</time>
      </trkpt>
      <trkpt lat="48.776154" lon="2.104561">
        <ele>114.746676</ele>
        <time>2024-09-08T23:17:31.576Z</time>
      </trkpt>
      <trkpt lat="48.776059" lon="2.105057">
        <ele>114.382234</ele>
        <time>2024-09-08T23:17:41.412Z</time>
      </trkpt>
      <trkpt lat="48.775975" lon="2.105375">
        <ele>114.140511</ele>
        <time>2024-09-08T23:17:47.875Z</time>
      </trkpt>
      <trkpt lat="48.775821" lon="2.105727">
        <ele>113.842403</ele>
        <time>2024-09-08T23:17:55.765Z</time>
      </trkpt>
      <trkpt lat="48.775440" lon="2.106471">
        <ele>113.225378</ele>
        <time>2024-09-08T23:18:13.385Z</time>
      </trkpt>
      <trkpt lat="48.775367" lon="2.106667">
        <ele>113.107517</ele>
        <time>2024-09-08T23:18:17.614Z</time>
      </trkpt>
      <trkpt lat="48.775361" lon="2.106998">
        <ele>112.934169</ele>
        <time>2024-09-08T23:18:23.824Z</time>
      </trkpt>
      <trkpt lat="48.775380" lon="2.107056">
        <ele>112.900261</ele>
        <time>2024-09-08T23:18:25.060Z</time>
      </trkpt>
      <trkpt lat="48.775658" lon="2.107919">
        <ele>112.397387</ele>
        <time>2024-09-08T23:18:43.803Z</time>
      </trkpt>
      <trkpt lat="48.775789" lon="2.108146">
        <ele>112.239427</ele>
        <time>2024-09-08T23:18:49.970Z</time>
      </trkpt>
      <trkpt lat="48.775881" lon="2.108340">
        <ele>112.114304</ele>
        <time>2024-09-08T23:18:54.837Z</time>
      </trkpt>
      <trkpt lat="48.776167" lon="2.109244">
        <ele>111.808786</ele>
        <time>2024-09-08T23:19:15.813Z</time>
      </trkpt>
      <trkpt lat="48.776462" lon="2.109939">
        <ele>111.651599</ele>
        <time>2024-09-08T23:19:32.849Z</time>
      </trkpt>
      <trkpt lat="48.776681" lon="2.110447">
        <ele>111.536176</ele>
        <time>2024-09-08T23:19:45.163Z</time>
      </trkpt>
      <trkpt lat="48.776877" lon="2.110987">
        <ele>111.418958</ele>
        <time>2024-09-08T23:19:57.531Z</time>
      </trkpt>
      <trkpt lat="48.776961" lon="2.111312">
        <ele>111.300400</ele>
        <time>2024-09-08T23:20:04.568Z</time>
      </trkpt>
      <trkpt lat="48.777080" lon="2.112136">
        <ele>111.005906</ele>
        <time>2024-09-08T23:20:21.493Z</time>
      </trkpt>
      <trkpt lat="48.777098" lon="2.112373">
        <ele>110.922619</ele>
        <time>2024-09-08T23:20:26.213Z</time>
      </trkpt>
      <trkpt lat="48.777109" lon="2.112807">
        <ele>110.770994</ele>
        <time>2024-09-08T23:20:34.713Z</time>
      </trkpt>
      <trkpt lat="48.777039" lon="2.113300">
        <ele>110.594933</ele>
        <time>2024-09-08T23:20:44.745Z</time>
      </trkpt>
      <trkpt lat="48.777027" lon="2.113541">
        <ele>110.510557</ele>
        <time>2024-09-08T23:20:49.525Z</time>
      </trkpt>
      <trkpt lat="48.777062" lon="2.113771">
        <ele>110.433812</ele>
        <time>2024-09-08T23:20:54.339Z</time>
      </trkpt>
      <trkpt lat="48.777070" lon="2.113908">
        <ele>110.393797</ele>
        <time>2024-09-08T23:20:57.195Z</time>
      </trkpt>
      <trkpt lat="48.777037" lon="2.114040">
        <ele>110.352723</ele>
        <time>2024-09-08T23:20:59.996Z</time>
      </trkpt>
      <trkpt lat="48.776949" lon="2.114254">
        <ele>110.279335</ele>
        <time>2024-09-08T23:21:05.165Z</time>
      </trkpt>
      <trkpt lat="48.776873" lon="2.114562">
        <ele>110.183651</ele>
        <time>2024-09-08T23:21:11.843Z</time>
      </trkpt>
      <trkpt lat="48.776872" lon="2.114582">
        <ele>110.177816</ele>
        <time>2024-09-08T23:21:12.264Z</time>
      </trkpt>
      <trkpt lat="48.776864" lon="2.114833">
        <ele>110.104705</ele>
        <time>2024-09-08T23:21:17.417Z</time>
      </trkpt>
      <trkpt lat="48.776894" lon="2.115092">
        <ele>110.028198</ele>
        <time>2024-09-08T23:21:22.632Z</time>
      </trkpt>
      <trkpt lat="48.776953" lon="2.115327">
        <ele>109.955034</ele>
        <time>2024-09-08T23:21:27.798Z</time>
      </trkpt>
      <trkpt lat="48.777069" lon="2.115676">
        <ele>109.841313</ele>
        <time>2024-09-08T23:21:35.621Z</time>
      </trkpt>
      <trkpt lat="48.777320" lon="2.116437">
        <ele>109.617231</ele>
        <time>2024-09-08T23:21:52.443Z</time>
      </trkpt>
      <trkpt lat="48.777386" lon="2.117007">
        <ele>109.502100</ele>
        <time>2024-09-08T23:22:04.179Z</time>
      </trkpt>
      <trkpt lat="48.777455" lon="2.117613">
        <ele>109.379758</ele>
        <time>2024-09-08T23:22:16.760Z</time>
      </trkpt>
      <trkpt lat="48.777536" lon="2.117809">
        <ele>109.333734</ele>
        <time>2024-09-08T23:22:21.450Z</time>
      </trkpt>
      <trkpt lat="48.777604" lon="2.118059">
        <ele>109.279930</ele>
        <time>2024-09-08T23:22:26.912Z</time>
      </trkpt>
      <trkpt lat="48.777626" lon="2.118261">
        <ele>109.239200</ele>
        <time>2024-09-08T23:22:31.055Z</time>
      </trkpt>
      <trkpt lat="48.777659" lon="2.118938">
        <ele>109.144999</ele>
        <time>2024-09-08T23:22:45.035Z</time>
      </trkpt>
      <trkpt lat="48.777683" lon="2.119074">
        <ele>109.171672</ele>
        <time>2024-09-08T23:22:48.070Z</time>
      </trkpt>
      <trkpt lat="48.777679" lon="2.119359">
        <ele>109.225677</ele>
        <time>2024-09-08T23:22:54.073Z</time>
      </trkpt>
      <trkpt lat="48.777613" lon="2.119803">
        <ele>109.311905</ele>
        <time>2024-09-08T23:23:03.736Z</time>
      </trkpt>
      <trkpt lat="48.777635" lon="2.120520">
        <ele>109.447886</ele>
        <time>2024-09-08T23:23:19.798Z</time>
      </trkpt>
      <trkpt lat="48.777683" lon="2.121373">
        <ele>109.610074</ele>
        <time>2024-09-08T23:23:39.339Z</time>
      </trkpt>
      <trkpt lat="48.777656" lon="2.121943">
        <ele>109.593488</ele>
        <time>2024-09-08T23:23:52.385Z</time>
      </trkpt>
      <trkpt lat="48.777430" lon="2.122653">
        <ele>109.498052</ele>
        <time>2024-09-08T23:24:03.306Z</time>
      </trkpt>
      <trkpt lat="48.777182" lon="2.123292">
        <ele>109.408293</ele>
        <time>2024-09-08T23:24:12.373Z</time>
      </trkpt>
      <trkpt lat="48.777127" lon="2.123457">
        <ele>109.385912</ele>
        <time>2024-09-08T23:24:14.544Z</time>
      </trkpt>
      <trkpt lat="48.777022" lon="2.123870">
        <ele>109.332333</ele>
        <time>2024-09-08T23:24:19.720Z</time>
      </trkpt>
      <trkpt lat="48.776915" lon="2.124130">
        <ele>109.212428</ele>
        <time>2024-09-08T23:24:23.362Z</time>
      </trkpt>
      <trkpt lat="48.776659" lon="2.124507">
        <ele>108.819469</ele>
        <time>2024-09-08T23:24:29.645Z</time>
      </trkpt>
      <trkpt lat="48.776317" lon="2.124813">
        <ele>108.382129</ele>
        <time>2024-09-08T23:24:36.458Z</time>
      </trkpt>
      <trkpt lat="48.775921" lon="2.125047">
        <ele>107.914009</ele>
        <time>2024-09-08T23:24:43.770Z</time>
      </trkpt>
      <trkpt lat="48.775872" lon="2.125105">
        <ele>107.845554</ele>
        <time>2024-09-08T23:24:44.893Z</time>
      </trkpt>
      <trkpt lat="48.775823" lon="2.125163">
        <ele>107.777099</ele>
        <time>2024-09-08T23:24:45.989Z</time>
      </trkpt>
      <trkpt lat="48.775769" lon="2.125361">
        <ele>107.621543</ele>
        <time>2024-09-08T23:24:48.476Z</time>
      </trkpt>
      <trkpt lat="48.775799" lon="2.125841">
        <ele>107.352882</ele>
        <time>2024-09-08T23:24:54.256Z</time>
      </trkpt>
      <trkpt lat="48.775851" lon="2.126179">
        <ele>107.448460</ele>
        <time>2024-09-08T23:24:58.570Z</time>
      </trkpt>
      <trkpt lat="48.775961" lon="2.126552">
        <ele>107.560990</ele>
        <time>2024-09-08T23:25:03.950Z</time>
      </trkpt>
      <trkpt lat="48.775971" lon="2.126708">
        <ele>107.604150</ele>
        <time>2024-09-08T23:25:06.040Z</time>
      </trkpt>
      <trkpt lat="48.775931" lon="2.126961">
        <ele>107.675796</ele>
        <time>2024-09-08T23:25:09.796Z</time>
      </trkpt>
      <trkpt lat="48.775894" lon="2.127021">
        <ele>107.698424</ele>
        <time>2024-09-08T23:25:10.849Z</time>
      </trkpt>
      <trkpt lat="48.776048" lon="2.127327">
        <ele>107.804449</ele>
        <time>2024-09-08T23:25:16.340Z</time>
      </trkpt>
      <trkpt lat="48.776218" lon="2.127606">
        <ele>107.909086</ele>
        <time>2024-09-08T23:25:22.225Z</time>
      </trkpt>
      <trkpt lat="48.776374" lon="2.127801">
        <ele>107.993541</ele>
        <time>2024-09-08T23:25:27.326Z</time>
      </trkpt>
      <trkpt lat="48.776708" lon="2.127963">
        <ele>108.458397</ele>
        <time>2024-09-08T23:25:36.660Z</time>
      </trkpt>
      <trkpt lat="48.776642" lon="2.128901">
        <ele>110.144588</ele>
        <time>2024-09-08T23:25:55.462Z</time>
      </trkpt>
      <trkpt lat="48.776608" lon="2.129646">
        <ele>111.479455</ele>
        <time>2024-09-08T23:26:12.006Z</time>
      </trkpt>
      <trkpt lat="48.777517" lon="2.129588">
        <ele>114.774669</ele>
        <time>2024-09-08T23:26:47.107Z</time>
      </trkpt>
      <trkpt lat="48.777986" lon="2.129558">
        <ele>117.115948</ele>
        <time>2024-09-08T23:27:08.371Z</time>
      </trkpt>
      <trkpt lat="48.778234" lon="2.129671">
        <ele>118.407437</ele>
        <time>2024-09-08T23:27:20.557Z</time>
      </trkpt>
      <trkpt lat="48.778312" lon="2.129735">
        <ele>118.849699</ele>
        <time>2024-09-08T23:27:24.609Z</time>
      </trkpt>
      <trkpt lat="48.778830" lon="2.130487">
        <ele>122.388338</ele>
        <time>2024-09-08T23:27:57.972Z</time>
      </trkpt>
      <trkpt lat="48.778923" lon="2.130586">
        <ele>122.912666</ele>
        <time>2024-09-08T23:28:03.331Z</time>
      </trkpt>
      <trkpt lat="48.779249" lon="2.130819">
        <ele>124.575873</ele>
        <time>2024-09-08T23:28:19.887Z</time>
      </trkpt>
      <trkpt lat="48.780324" lon="2.131596">
        <ele>130.071651</ele>
        <time>2024-09-08T23:29:08.823Z</time>
      </trkpt>
      <trkpt lat="48.780746" lon="2.131533">
        <ele>131.614292</ele>
        <time>2024-09-08T23:29:24.294Z</time>
      </trkpt>
      <trkpt lat="48.781719" lon="2.132068">
        <ele>135.287998</ele>
        <time>2024-09-08T23:30:01.226Z</time>
      </trkpt>
      <trkpt lat="48.782765" lon="2.132303">
        <ele>139.283545</ele>
        <time>2024-09-08T23:30:41.196Z</time>
      </trkpt>
      <trkpt lat="48.784340" lon="2.132610">
        <ele>145.259156</ele>
        <time>2024-09-08T23:31:43.942Z</time>
      </trkpt>
      <trkpt lat="48.785260" lon="2.132805">
        <ele>148.444731</ele>
        <time>2024-09-08T23:32:18.246Z</time>
      </trkpt>
      <trkpt lat="48.785652" lon="2.132854">
        <ele>149.793569</ele>
        <time>2024-09-08T23:32:31.119Z</time>
      </trkpt>
      <trkpt lat="48.785818" lon="2.132835">
        <ele>150.259340</ele>
        <time>2024-09-08T23:32:36.321Z</time>
      </trkpt>
      <trkpt lat="48.785863" lon="2.132761">
        <ele>150.443820</ele>
        <time>2024-09-08T23:32:38.403Z</time>
      </trkpt>
      <trkpt lat="48.786123" lon="2.132801">
        <ele>151.170439</ele>
        <time>2024-09-08T23:32:46.387Z</time>
      </trkpt>
      <trkpt lat="48.786189" lon="2.132817">
        <ele>151.356275</ele>
        <time>2024-09-08T23:32:48.434Z</time>
      </trkpt>
      <trkpt lat="48.786216" lon="2.132916">
        <ele>151.552561</ele>
        <time>2024-09-08T23:32:50.734Z</time>
      </trkpt>
      <trkpt lat="48.786287" lon="2.132932">
        <ele>151.752137</ele>
        <time>2024-09-08T23:32:52.958Z</time>
      </trkpt>
      <trkpt lat="48.786351" lon="2.132942">
        <ele>151.931026</ele>
        <time>2024-09-08T23:32:55.031Z</time>
      </trkpt>
      <trkpt lat="48.786687" lon="2.132996">
        <ele>152.870477</ele>
        <time>2024-09-08T23:33:06.271Z</time>
      </trkpt>
      <trkpt lat="48.786947" lon="2.133176">
        <ele>153.665046</ele>
        <time>2024-09-08T23:33:16.278Z</time>
      </trkpt>
      <trkpt lat="48.787044" lon="2.133178">
        <ele>153.934774</ele>
        <time>2024-09-08T23:33:19.728Z</time>
      </trkpt>
      <trkpt lat="48.787123" lon="2.133120">
        <ele>154.178777</ele>
        <time>2024-09-08T23:33:22.885Z</time>
      </trkpt>
      <trkpt lat="48.787458" lon="2.133202">
        <ele>155.218702</ele>
        <time>2024-09-08T23:33:34.831Z</time>
      </trkpt>
      <trkpt lat="48.787602" lon="2.133245">
        <ele>155.752772</ele>
        <time>2024-09-08T23:33:40.005Z</time>
      </trkpt>
      <trkpt lat="48.787679" lon="2.133268">
        <ele>156.038354</ele>
        <time>2024-09-08T23:33:42.755Z</time>
      </trkpt>
      <trkpt lat="48.787787" lon="2.133467">
        <ele>156.656503</ele>
        <time>2024-09-08T23:33:48.914Z</time>
      </trkpt>
      <trkpt lat="48.787797" lon="2.133477">
        <ele>156.700082</ele>
        <time>2024-09-08T23:33:49.330Z</time>
      </trkpt>
      <trkpt lat="48.788417" lon="2.133794">
        <ele>159.080873</ele>
        <time>2024-09-08T23:34:13.687Z</time>
      </trkpt>
      <trkpt lat="48.788681" lon="2.133996">
        <ele>160.156754</ele>
        <time>2024-09-08T23:34:25.112Z</time>
      </trkpt>
      <trkpt lat="48.788728" lon="2.134032">
        <ele>160.348334</ele>
        <time>2024-09-08T23:34:27.201Z</time>
      </trkpt>
      <trkpt lat="48.788697" lon="2.134211">
        <ele>160.792075</ele>
        <time>2024-09-08T23:34:33.483Z</time>
      </trkpt>
      <trkpt lat="48.788762" lon="2.134381">
        <ele>161.263323</ele>
        <time>2024-09-08T23:34:40.198Z</time>
      </trkpt>
      <trkpt lat="48.788793" lon="2.134780">
        <ele>162.222922</ele>
        <time>2024-09-08T23:34:54.285Z</time>
      </trkpt>
      <trkpt lat="48.788833" lon="2.134929">
        <ele>162.607057</ele>
        <time>2024-09-08T23:34:59.972Z</time>
      </trkpt>
      <trkpt lat="48.789454" lon="2.135984">
        <ele>165.984713</ele>
        <time>2024-09-08T23:35:47.955Z</time>
      </trkpt>
      <trkpt lat="48.789475" lon="2.136115">
        <ele>166.306596</ele>
        <time>2024-09-08T23:35:52.351Z</time>
      </trkpt>
      <trkpt lat="48.789389" lon="2.136335">
        <ele>166.917337</ele>
        <time>2024-09-08T23:36:00.420Z</time>
      </trkpt>
      <trkpt lat="48.789075" lon="2.136698">
        <ele>167.999538</ele>
        <time>2024-09-08T23:36:18.642Z</time>
      </trkpt>
      <trkpt lat="48.788878" lon="2.136983">
        <ele>168.262037</ele>
        <time>2024-09-08T23:36:30.547Z</time>
      </trkpt>
      <trkpt lat="48.788768" lon="2.137289">
        <ele>168.483555</ele>
        <time>2024-09-08T23:36:40.032Z</time>
      </trkpt>
      <trkpt lat="48.788557" lon="2.137725">
        <ele>168.827336</ele>
        <time>2024-09-08T23:36:54.013Z</time>
      </trkpt>
      <trkpt lat="48.788505" lon="2.137940">
        <ele>168.972879</ele>
        <time>2024-09-08T23:36:59.548Z</time>
      </trkpt>
      <trkpt lat="48.788619" lon="2.138406">
        <ele>169.288767</ele>
        <time>2024-09-08T23:37:10.496Z</time>
      </trkpt>
      <trkpt lat="48.788636" lon="2.138572">
        <ele>169.395523</ele>
        <time>2024-09-08T23:37:13.896Z</time>
      </trkpt>
      <trkpt lat="48.788581" lon="2.138761">
        <ele>169.526822</ele>
        <time>2024-09-08T23:37:17.909Z</time>
      </trkpt>
      <trkpt lat="48.788473" lon="2.139000">
        <ele>169.374940</ele>
        <time>2024-09-08T23:37:23.299Z</time>
      </trkpt>
      <trkpt lat="48.788514" lon="2.139053">
        <ele>169.257181</ele>
        <time>2024-09-08T23:37:24.792Z</time>
      </trkpt>
      <trkpt lat="48.788772" lon="2.139155">
        <ele>168.674208</ele>
        <time>2024-09-08T23:37:31.914Z</time>
      </trkpt>
      <trkpt lat="48.788854" lon="2.139273">
        <ele>168.427130</ele>
        <time>2024-09-08T23:37:34.902Z</time>
      </trkpt>
      <trkpt lat="48.788753" lon="2.139783">
        <ele>167.659936</ele>
        <time>2024-09-08T23:37:44.049Z</time>
      </trkpt>
      <trkpt lat="48.788745" lon="2.140088">
        <ele>167.220196</ele>
        <time>2024-09-08T23:37:49.278Z</time>
      </trkpt>
      <trkpt lat="48.788822" lon="2.140312">
        <ele>166.856212</ele>
        <time>2024-09-08T23:37:53.766Z</time>
      </trkpt>
      <trkpt lat="48.789223" lon="2.141024">
        <ele>165.453423</ele>
        <time>2024-09-08T23:38:10.484Z</time>
      </trkpt>
      <trkpt lat="48.789275" lon="2.141153">
        <ele>165.166515</ele>
        <time>2024-09-08T23:38:13.323Z</time>
      </trkpt>
      <trkpt lat="48.789322" lon="2.141421">
        <ele>164.640372</ele>
        <time>2024-09-08T23:38:18.380Z</time>
      </trkpt>
      <trkpt lat="48.789334" lon="2.141641">
        <ele>164.221569</ele>
        <time>2024-09-08T23:38:22.590Z</time>
      </trkpt>
      <trkpt lat="48.789311" lon="2.143805">
        <ele>159.725770</ele>
        <time>2024-09-08T23:38:59.861Z</time>
      </trkpt>
      <trkpt lat="48.790213" lon="2.145612">
        <ele>151.015451</ele>
        <time>2024-09-08T23:39:34.820Z</time>
      </trkpt>
      <trkpt lat="48.790465" lon="2.146264">
        <ele>147.731534</ele>
        <time>2024-09-08T23:39:45.923Z</time>
      </trkpt>
      <trkpt lat="48.790634" lon="2.146721">
        <ele>145.314743</ele>
        <time>2024-09-08T23:39:53.593Z</time>
      </trkpt>
      <trkpt lat="48.790874" lon="2.147144">
        <ele>142.740373</ele>
        <time>2024-09-08T23:39:58.777Z</time>
      </trkpt>
      <trkpt lat="48.790677" lon="2.147330">
        <ele>141.116411</ele>
        <time>2024-09-08T23:40:01.654Z</time>
      </trkpt>
      <trkpt lat="48.790237" lon="2.147774">
        <ele>137.418003</ele>
        <time>2024-09-08T23:40:08.502Z</time>
      </trkpt>
      <trkpt lat="48.790277" lon="2.147851">
        <ele>137.147511</ele>
        <time>2024-09-08T23:40:09.320Z</time>
      </trkpt>
      <trkpt lat="48.790307" lon="2.147904">
        <ele>136.955180</ele>
        <time>2024-09-08T23:40:09.911Z</time>
      </trkpt>
      <trkpt lat="48.790387" lon="2.148044">
        <ele>136.445076</ele>
        <time>2024-09-08T23:40:11.507Z</time>
      </trkpt>
      <trkpt lat="48.790815" lon="2.148780">
        <ele>133.742955</ele>
        <time>2024-09-08T23:40:20.295Z</time>
      </trkpt>
      <trkpt lat="48.790863" lon="2.148861">
        <ele>133.443084</ele>
        <time>2024-09-08T23:40:21.311Z</time>
      </trkpt>
      <trkpt lat="48.790910" lon="2.148942">
        <ele>133.145990</ele>
        <time>2024-09-08T23:40:22.394Z</time>
      </trkpt>
      <trkpt lat="48.791333" lon="2.149668">
        <ele>130.478343</ele>
        <time>2024-09-08T23:40:31.419Z</time>
      </trkpt>
      <trkpt lat="48.791672" lon="2.150255">
        <ele>128.781943</ele>
        <time>2024-09-08T23:40:38.926Z</time>
      </trkpt>
      <trkpt lat="48.791803" lon="2.150482">
        <ele>128.190224</ele>
        <time>2024-09-08T23:40:41.838Z</time>
      </trkpt>
      <trkpt lat="48.791951" lon="2.150735">
        <ele>127.526802</ele>
        <time>2024-09-08T23:40:45.110Z</time>
      </trkpt>
      <trkpt lat="48.792287" lon="2.151309">
        <ele>126.021216</ele>
        <time>2024-09-08T23:40:52.507Z</time>
      </trkpt>
      <trkpt lat="48.792467" lon="2.151628">
        <ele>125.197661</ele>
        <time>2024-09-08T23:40:56.518Z</time>
      </trkpt>
      <trkpt lat="48.792512" lon="2.151708">
        <ele>124.991401</ele>
        <time>2024-09-08T23:40:57.525Z</time>
      </trkpt>
      <trkpt lat="48.792720" lon="2.152059">
        <ele>124.112712</ele>
        <time>2024-09-08T23:41:02.050Z</time>
      </trkpt>
      <trkpt lat="48.793114" lon="2.152721">
        <ele>122.533692</ele>
        <time>2024-09-08T23:41:10.652Z</time>
      </trkpt>
      <trkpt lat="48.793579" lon="2.153513">
        <ele>120.656035</ele>
        <time>2024-09-08T23:41:21.036Z</time>
      </trkpt>
      <trkpt lat="48.794057" lon="2.154328">
        <ele>118.939312</ele>
        <time>2024-09-08T23:41:31.840Z</time>
      </trkpt>
      <trkpt lat="48.794397" lon="2.154890">
        <ele>117.881058</ele>
        <time>2024-09-08T23:41:39.561Z</time>
      </trkpt>
      <trkpt lat="48.794741" lon="2.155477">
        <ele>116.791438</ele>
        <time>2024-09-08T23:41:47.520Z</time>
      </trkpt>
      <trkpt lat="48.795034" lon="2.155977">
        <ele>115.910884</ele>
        <time>2024-09-08T23:41:54.384Z</time>
      </trkpt>
      <trkpt lat="48.795386" lon="2.155522">
        <ele>115.635513</ele>
        <time>2024-09-08T23:42:01.775Z</time>
      </trkpt>
      <trkpt lat="48.795612" lon="2.155235">
        <ele>115.460011</ele>
        <time>2024-09-08T23:42:06.717Z</time>
      </trkpt>
      <trkpt lat="48.795743" lon="2.155055">
        <ele>115.354768</ele>
        <time>2024-09-08T23:42:09.874Z</time>
      </trkpt>
      <trkpt lat="48.796089" lon="2.154603">
        <ele>115.082879</ele>
        <time>2024-09-08T23:42:18.205Z</time>
      </trkpt>
      <trkpt lat="48.796211" lon="2.154513">
        <ele>115.002088</ele>
        <time>2024-09-08T23:42:21.197Z</time>
      </trkpt>
      <trkpt lat="48.796412" lon="2.154383">
        <ele>114.871955</ele>
        <time>2024-09-08T23:42:25.782Z</time>
      </trkpt>
      <trkpt lat="48.796974" lon="2.154024">
        <ele>115.469257</ele>
        <time>2024-09-08T23:42:41.003Z</time>
      </trkpt>
      <trkpt lat="48.797140" lon="2.153926">
        <ele>115.654674</ele>
        <time>2024-09-08T23:42:45.206Z</time>
      </trkpt>
      <trkpt lat="48.797242" lon="2.153866">
        <ele>115.768551</ele>
        <time>2024-09-08T23:42:48.255Z</time>
      </trkpt>
      <trkpt lat="48.797452" lon="2.153743">
        <ele>116.002873</ele>
        <time>2024-09-08T23:42:53.684Z</time>
      </trkpt>
      <trkpt lat="48.797738" lon="2.153607">
        <ele>116.314869</ele>
        <time>2024-09-08T23:43:01.508Z</time>
      </trkpt>
      <trkpt lat="48.798017" lon="2.153526">
        <ele>116.610578</ele>
        <time>2024-09-08T23:43:09.093Z</time>
      </trkpt>
      <trkpt lat="48.798076" lon="2.153514">
        <ele>116.672547</ele>
        <time>2024-09-08T23:43:10.475Z</time>
      </trkpt>
      <trkpt lat="48.798147" lon="2.153557">
        <ele>116.737866</ele>
        <time>2024-09-08T23:43:12.092Z</time>
      </trkpt>
      <trkpt lat="48.798346" lon="2.153719">
        <ele>116.816090</ele>
        <time>2024-09-08T23:43:17.890Z</time>
      </trkpt>
      <trkpt lat="48.798350" lon="2.153822">
        <ele>116.839634</ele>
        <time>2024-09-08T23:43:19.335Z</time>
      </trkpt>
      <trkpt lat="48.798357" lon="2.153982">
        <ele>116.876225</ele>
        <time>2024-09-08T23:43:21.506Z</time>
      </trkpt>
      <trkpt lat="48.798387" lon="2.155377">
        <ele>117.194721</ele>
        <time>2024-09-08T23:43:41.595Z</time>
      </trkpt>
      <trkpt lat="48.798440" lon="2.157834">
        <ele>116.312200</ele>
        <time>2024-09-08T23:44:10.106Z</time>
      </trkpt>
      <trkpt lat="48.798461" lon="2.158049">
        <ele>116.183635</ele>
        <time>2024-09-08T23:44:12.480Z</time>
      </trkpt>
      <trkpt lat="48.798619" lon="2.158530">
        <ele>115.865708</ele>
        <time>2024-09-08T23:44:18.633Z</time>
      </trkpt>
      <trkpt lat="48.798787" lon="2.158845">
        <ele>115.483154</ele>
        <time>2024-09-08T23:44:23.168Z</time>
      </trkpt>
      <trkpt lat="48.798847" lon="2.158704">
        <ele>115.258081</ele>
        <time>2024-09-08T23:44:24.979Z</time>
      </trkpt>
      <trkpt lat="48.798902" lon="2.158750">
        <ele>115.130262</ele>
        <time>2024-09-08T23:44:25.975Z</time>
      </trkpt>
      <trkpt lat="48.798963" lon="2.158797">
        <ele>114.991018</ele>
        <time>2024-09-08T23:44:27.057Z</time>
      </trkpt>
      <trkpt lat="48.799199" lon="2.158968">
        <ele>114.458723</ele>
        <time>2024-09-08T23:44:31.183Z</time>
      </trkpt>
      <trkpt lat="48.799440" lon="2.159208">
        <ele>113.872037</ele>
        <time>2024-09-08T23:44:35.659Z</time>
      </trkpt>
      <trkpt lat="48.800666" lon="2.160405">
        <ele>110.728178</ele>
        <time>2024-09-08T23:44:57.571Z</time>
      </trkpt>
      <trkpt lat="48.800826" lon="2.160560">
        <ele>110.283591</ele>
        <time>2024-09-08T23:45:00.391Z</time>
      </trkpt>
      <trkpt lat="48.801457" lon="2.161175">
        <ele>108.527163</ele>
        <time>2024-09-08T23:45:11.664Z</time>
      </trkpt>
      <trkpt lat="48.801899" lon="2.161623">
        <ele>107.525429</ele>
        <time>2024-09-08T23:45:19.877Z</time>
      </trkpt>
      <trkpt lat="48.802213" lon="2.161945">
        <ele>107.008612</ele>
        <time>2024-09-08T23:45:25.758Z</time>
      </trkpt>
      <trkpt lat="48.802234" lon="2.161967">
        <ele>106.973812</ele>
        <time>2024-09-08T23:45:26.153Z</time>
      </trkpt>
      <trkpt lat="48.803010" lon="2.162765">
        <ele>105.695465</ele>
        <time>2024-09-08T23:45:41.404Z</time>
      </trkpt>
      <trkpt lat="48.803354" lon="2.163107">
        <ele>105.737735</ele>
        <time>2024-09-08T23:45:48.775Z</time>
      </trkpt>
      <trkpt lat="48.803964" lon="2.163746">
        <ele>106.931811</ele>
        <time>2024-09-08T23:46:06.357Z</time>
      </trkpt>
      <trkpt lat="48.804151" lon="2.163943">
        <ele>107.298533</ele>
        <time>2024-09-08T23:46:12.785Z</time>
      </trkpt>
      <trkpt lat="48.804467" lon="2.164269">
        <ele>107.914089</ele>
        <time>2024-09-08T23:46:26.093Z</time>
      </trkpt>
      <trkpt lat="48.805078" lon="2.164888">
        <ele>110.918034</ele>
        <time>2024-09-08T23:46:53.160Z</time>
      </trkpt>
      <trkpt lat="48.805130" lon="2.164941">
        <ele>111.251936</ele>
        <time>2024-09-08T23:46:55.986Z</time>
      </trkpt>
      <trkpt lat="48.805157" lon="2.164948">
        <ele>111.397966</ele>
        <time>2024-09-08T23:46:57.133Z</time>
      </trkpt>
      <trkpt lat="48.805248" lon="2.164826">
        <ele>112.045180</ele>
        <time>2024-09-08T23:47:02.541Z</time>
      </trkpt>
      <trkpt lat="48.805371" lon="2.164815">
        <ele>112.702073</ele>
        <time>2024-09-08T23:47:08.112Z</time>
      </trkpt>
      <trkpt lat="48.805514" lon="2.164818">
        <ele>113.464530</ele>
        <time>2024-09-08T23:47:15.055Z</time>
      </trkpt>
      <trkpt lat="48.805625" lon="2.164818">
        <ele>114.056310</ele>
        <time>2024-09-08T23:47:20.598Z</time>
      </trkpt>
      <trkpt lat="48.805666" lon="2.164965">
        <ele>114.616849</ele>
        <time>2024-09-08T23:47:25.744Z</time>
      </trkpt>
      <trkpt lat="48.805695" lon="2.165075">
        <ele>115.032888</ele>
        <time>2024-09-08T23:47:29.873Z</time>
      </trkpt>
      <trkpt lat="48.805761" lon="2.165321">
        <ele>115.965588</ele>
        <time>2024-09-08T23:47:38.935Z</time>
      </trkpt>
      <trkpt lat="48.805777" lon="2.165375">
        <ele>116.173503</ele>
        <time>2024-09-08T23:47:40.995Z</time>
      </trkpt>
      <trkpt lat="48.805878" lon="2.165484">
        <ele>116.834131</ele>
        <time>2024-09-08T23:47:47.576Z</time>
      </trkpt>
      <trkpt lat="48.805995" lon="2.165529">
        <ele>117.477601</ele>
        <time>2024-09-08T23:47:54.048Z</time>
      </trkpt>
      <trkpt lat="48.807448" lon="2.165760">
        <ele>127.151507</ele>
        <time>2024-09-08T23:49:12.319Z</time>
      </trkpt>
      <trkpt lat="48.807569" lon="2.165648">
        <ele>128.100310</ele>
        <time>2024-09-08T23:49:20.381Z</time>
      </trkpt>
      <trkpt lat="48.809401" lon="2.164697">
        <ele>139.664075</ele>
        <time>2024-09-08T23:50:55.274Z</time>
      </trkpt>
      <trkpt lat="48.809513" lon="2.164635">
        <ele>140.361829</ele>
        <time>2024-09-08T23:51:03.212Z</time>
      </trkpt>
      <trkpt lat="48.809464" lon="2.164355">
        <ele>141.337597</ele>
        <time>2024-09-08T23:51:12.847Z</time>
      </trkpt>
      <trkpt lat="48.810238" lon="2.164261">
        <ele>145.247953</ele>
        <time>2024-09-08T23:51:55.279Z</time>
      </trkpt>
      <trkpt lat="48.810384" lon="2.164271">
        <ele>145.983966</ele>
        <time>2024-09-08T23:52:04.051Z</time>
      </trkpt>
      <trkpt lat="48.810591" lon="2.163884">
        <ele>147.637468</ele>
        <time>2024-09-08T23:52:21.545Z</time>
      </trkpt>
      <trkpt lat="48.810810" lon="2.163561">
        <ele>149.174969</ele>
        <time>2024-09-08T23:52:37.988Z</time>
      </trkpt>
      <trkpt lat="48.811073" lon="2.162974">
        <ele>151.806877</ele>
        <time>2024-09-08T23:53:08.164Z</time>
      </trkpt>
      <trkpt lat="48.811284" lon="2.162656">
        <ele>153.511278</ele>
        <time>2024-09-08T23:53:27.377Z</time>
      </trkpt>
      <trkpt lat="48.811370" lon="2.162423">
        <ele>154.519747</ele>
        <time>2024-09-08T23:53:38.406Z</time>
      </trkpt>
      <trkpt lat="48.811466" lon="2.162272">
        <ele>155.312191</ele>
        <time>2024-09-08T23:53:47.113Z</time>
      </trkpt>
      <trkpt lat="48.812154" lon="2.162059">
        <ele>159.337837</ele>
        <time>2024-09-08T23:54:28.914Z</time>
      </trkpt>
      <trkpt lat="48.812499" lon="2.161432">
        <ele>161.696420</ele>
        <time>2024-09-08T23:54:52.908Z</time>
      </trkpt>
      <trkpt lat="48.812753" lon="2.161400">
        <ele>162.746955</ele>
        <time>2024-09-08T23:55:04.016Z</time>
      </trkpt>
      <trkpt lat="48.812933" lon="2.160910">
        <ele>164.269902</ele>
        <time>2024-09-08T23:55:19.891Z</time>
      </trkpt>
      <trkpt lat="48.813190" lon="2.160349">
        <ele>166.124835</ele>
        <time>2024-09-08T23:55:36.669Z</time>
      </trkpt>
      <trkpt lat="48.813193" lon="2.160343">
        <ele>166.145284</ele>
        <time>2024-09-08T23:55:36.823Z</time>
      </trkpt>
      <trkpt lat="48.813667" lon="2.159539">
        <ele>168.036541</ele>
        <time>2024-09-08T23:55:58.287Z</time>
      </trkpt>
      <trkpt lat="48.813873" lon="2.158847">
        <ele>168.923657</ele>
        <time>2024-09-08T23:56:11.585Z</time>
      </trkpt>
      <trkpt lat="48.813898" lon="2.158754">
        <ele>169.040997</ele>
        <time>2024-09-08T23:56:13.472Z</time>
      </trkpt>
      <trkpt lat="48.814473" lon="2.157661">
        <ele>170.580453</ele>
        <time>2024-09-08T23:56:37.849Z</time>
      </trkpt>
      <trkpt lat="48.814538" lon="2.157538">
        <ele>170.689487</ele>
        <time>2024-09-08T23:56:40.795Z</time>
      </trkpt>
      <trkpt lat="48.814599" lon="2.157405">
        <ele>170.801543</ele>
        <time>2024-09-08T23:56:43.637Z</time>
      </trkpt>
      <trkpt lat="48.814633" lon="2.157339">
        <ele>170.859476</ele>
        <time>2024-09-08T23:56:44.956Z</time>
      </trkpt>
      <trkpt lat="48.814678" lon="2.157245">
        <ele>170.939822</ele>
        <time>2024-09-08T23:56:46.834Z</time>
      </trkpt>
      <trkpt lat="48.814824" lon="2.156897">
        <ele>171.225093</ele>
        <time>2024-09-08T23:56:53.462Z</time>
      </trkpt>
      <trkpt lat="48.815444" lon="2.155620">
        <ele>172.321970</ele>
        <time>2024-09-08T23:57:17.812Z</time>
      </trkpt>
      <trkpt lat="48.815810" lon="2.154950">
        <ele>172.685013</ele>
        <time>2024-09-08T23:57:31.792Z</time>
      </trkpt>
      <trkpt lat="48.816073" lon="2.154395">
        <ele>172.967157</ele>
        <time>2024-09-08T23:57:41.591Z</time>
      </trkpt>
      <trkpt lat="48.816124" lon="2.154148">
        <ele>173.073968</ele>
        <time>2024-09-08T23:57:45.121Z</time>
      </trkpt>
      <trkpt lat="48.816073" lon="2.153459">
        <ele>173.360057</ele>
        <time>2024-09-08T23:57:54.643Z</time>
      </trkpt>
      <trkpt lat="48.816118" lon="2.153184">
        <ele>173.478668</ele>
        <time>2024-09-08T23:57:58.815Z</time>
      </trkpt>
      <trkpt lat="48.816766" lon="2.152015">
        <ele>174.167000</ele>
        <time>2024-09-08T23:58:21.166Z</time>
      </trkpt>
      <trkpt lat="48.816966" lon="2.151636">
        <ele>174.385782</ele>
        <time>2024-09-08T23:58:28.540Z</time>
      </trkpt>
      <trkpt lat="48.817102" lon="2.151479">
        <ele>174.502646</ele>
        <time>2024-09-08T23:58:32.628Z</time>
      </trkpt>
      <trkpt lat="48.817527" lon="2.151293">
        <ele>174.774976</ele>
        <time>2024-09-08T23:58:42.488Z</time>
      </trkpt>
      <trkpt lat="48.817656" lon="2.151202">
        <ele>174.846957</ele>
        <time>2024-09-08T23:58:45.396Z</time>
      </trkpt>
      <trkpt lat="48.818012" lon="2.150759">
        <ele>175.079869</ele>
        <time>2024-09-08T23:58:57.605Z</time>
      </trkpt>
      <trkpt lat="48.818313" lon="2.150744">
        <ele>175.232277</ele>
        <time>2024-09-08T23:59:05.159Z</time>
      </trkpt>
      <trkpt lat="48.818809" lon="2.150683">
        <ele>175.484107</ele>
        <time>2024-09-08T23:59:15.330Z</time>
      </trkpt>
      <trkpt lat="48.818903" lon="2.150678">
        <ele>175.531706</ele>
        <time>2024-09-08T23:59:17.175Z</time>
      </trkpt>
      <trkpt lat="48.818977" lon="2.150742">
        <ele>175.574801</ele>
        <time>2024-09-08T23:59:18.650Z</time>
      </trkpt>
      <trkpt lat="48.819123" lon="2.150685">
        <ele>175.390622</ele>
        <time>2024-09-08T23:59:21.351Z</time>
      </trkpt>
      <trkpt lat="48.819156" lon="2.150560">
        <ele>175.210055</ele>
        <time>2024-09-08T23:59:22.986Z</time>
      </trkpt>
      <trkpt lat="48.819182" lon="2.150375">
        <ele>174.956424</ele>
        <time>2024-09-08T23:59:25.026Z</time>
      </trkpt>
      <trkpt lat="48.819185" lon="2.150250">
        <ele>174.788716</ele>
        <time>2024-09-08T23:59:26.388Z</time>
      </trkpt>
      <trkpt lat="48.819098" lon="2.150106">
        <ele>174.526682</ele>
        <time>2024-09-08T23:59:28.460Z</time>
      </trkpt>
      <trkpt lat="48.819106" lon="2.149985">
        <ele>174.363632</ele>
        <time>2024-09-08T23:59:29.703Z</time>
      </trkpt>
      <trkpt lat="48.819149" lon="2.149995">
        <ele>174.275051</ele>
        <time>2024-09-08T23:59:32.739Z</time>
      </trkpt>
      <trkpt lat="48.819339" lon="2.149963">
        <ele>173.885783</ele>
        <time>2024-09-08T23:59:36.058Z</time>
      </trkpt>
      <trkpt lat="48.819466" lon="2.150021">
        <ele>173.615734</ele>
        <time>2024-09-08T23:59:38.397Z</time>
      </trkpt>
      <trkpt lat="48.819655" lon="2.150301">
        <ele>173.078097</ele>
        <time>2024-09-08T23:59:42.889Z</time>
      </trkpt>
      <trkpt lat="48.820410" lon="2.150699">
        <ele>171.329100</ele>
        <time>2024-09-08T23:59:55.924Z</time>
      </trkpt>
      <trkpt lat="48.821127" lon="2.150832">
        <ele>169.490113</ele>
        <time>2024-09-09T00:00:07.636Z</time>
      </trkpt>
      <trkpt lat="48.821298" lon="2.150864">
        <ele>169.051469</ele>
        <time>2024-09-09T00:00:10.467Z</time>
      </trkpt>
      <trkpt lat="48.821681" lon="2.150830">
        <ele>168.074718</ele>
        <time>2024-09-09T00:00:17.044Z</time>
      </trkpt>
      <trkpt lat="48.823121" lon="2.150257">
        <ele>167.647806</ele>
        <time>2024-09-09T00:00:46.691Z</time>
      </trkpt>
      <trkpt lat="48.823437" lon="2.150098">
        <ele>167.727888</ele>
        <time>2024-09-09T00:00:57.376Z</time>
      </trkpt>
      <trkpt lat="48.824127" lon="2.149751">
        <ele>168.373033</ele>
        <time>2024-09-09T00:01:20.366Z</time>
      </trkpt>
      <trkpt lat="48.824692" lon="2.149536">
        <ele>169.098522</ele>
        <time>2024-09-09T00:01:38.643Z</time>
      </trkpt>
      <trkpt lat="48.825076" lon="2.149400">
        <ele>169.589646</ele>
        <time>2024-09-09T00:01:49.009Z</time>
      </trkpt>
      <trkpt lat="48.825947" lon="2.149045">
        <ele>169.202595</ele>
        <time>2024-09-09T00:02:08.256Z</time>
      </trkpt>
      <trkpt lat="48.827213" lon="2.148431">
        <ele>167.209685</ele>
        <time>2024-09-09T00:02:31.040Z</time>
      </trkpt>
      <trkpt lat="48.827386" lon="2.148219">
        <ele>166.917087</ele>
        <time>2024-09-09T00:02:34.787Z</time>
      </trkpt>
      <trkpt lat="48.828156" lon="2.146998">
        <ele>165.451834</ele>
        <time>2024-09-09T00:02:54.654Z</time>
      </trkpt>
      <trkpt lat="48.829261" lon="2.145093">
        <ele>165.644281</ele>
        <time>2024-09-09T00:03:34.589Z</time>
      </trkpt>
      <trkpt lat="48.830238" lon="2.143509">
        <ele>167.174685</ele>
        <time>2024-09-09T00:04:12.424Z</time>
      </trkpt>
      <trkpt lat="48.830609" lon="2.142806">
        <ele>167.984733</ele>
        <time>2024-09-09T00:04:30.224Z</time>
      </trkpt>
      <trkpt lat="48.830653" lon="2.142699">
        <ele>168.098156</ele>
        <time>2024-09-09T00:04:32.737Z</time>
      </trkpt>
      <trkpt lat="48.830714" lon="2.142552">
        <ele>168.254381</ele>
        <time>2024-09-09T00:04:35.855Z</time>
      </trkpt>
      <trkpt lat="48.830896" lon="2.142323">
        <ele>168.651361</ele>
        <time>2024-09-09T00:04:46.123Z</time>
      </trkpt>
      <trkpt lat="48.830678" lon="2.142293">
        <ele>169.062404</ele>
        <time>2024-09-09T00:04:51.830Z</time>
      </trkpt>
      <trkpt lat="48.830896" lon="2.142323">
        <ele>169.473447</ele>
        <time>2024-09-09T00:04:58.131Z</time>
      </trkpt>
      <trkpt lat="48.830987" lon="2.142339">
        <ele>169.645470</ele>
        <time>2024-09-09T00:05:00.212Z</time>
      </trkpt>
      <trkpt lat="48.831112" lon="2.142376">
        <ele>169.884613</ele>
        <time>2024-09-09T00:05:04.237Z</time>
      </trkpt>
      <trkpt lat="48.831425" lon="2.142467">
        <ele>170.483040</ele>
        <time>2024-09-09T00:05:12.560Z</time>
      </trkpt>
      <trkpt lat="48.831505" lon="2.142495">
        <ele>170.637202</ele>
        <time>2024-09-09T00:05:14.981Z</time>
      </trkpt>
      <trkpt lat="48.831942" lon="2.142612">
        <ele>171.470460</ele>
        <time>2024-09-09T00:05:27.743Z</time>
      </trkpt>
      <trkpt lat="48.832858" lon="2.142818">
        <ele>172.752734</ele>
        <time>2024-09-09T00:05:56.935Z</time>
      </trkpt>
      <trkpt lat="48.833039" lon="2.142841">
        <ele>172.986605</ele>
        <time>2024-09-09T00:06:01.294Z</time>
      </trkpt>
      <trkpt lat="48.833572" lon="2.142881">
        <ele>173.673736</ele>
        <time>2024-09-09T00:06:12.921Z</time>
      </trkpt>
      <trkpt lat="48.833787" lon="2.142903">
        <ele>173.951199</ele>
        <time>2024-09-09T00:06:17.432Z</time>
      </trkpt>
      <trkpt lat="48.833887" lon="2.142914">
        <ele>174.070466</ele>
        <time>2024-09-09T00:06:19.532Z</time>
      </trkpt>
      <trkpt lat="48.834260" lon="2.142191">
        <ele>173.846899</ele>
        <time>2024-09-09T00:06:31.837Z</time>
      </trkpt>
      <trkpt lat="48.834486" lon="2.141892">
        <ele>173.736093</ele>
        <time>2024-09-09T00:06:37.752Z</time>
      </trkpt>
      <trkpt lat="48.835847" lon="2.140121">
        <ele>171.885783</ele>
        <time>2024-09-09T00:07:08.004Z</time>
      </trkpt>
      <trkpt lat="48.836085" lon="2.139997">
        <ele>171.462040</ele>
        <time>2024-09-09T00:07:11.934Z</time>
      </trkpt>
      <trkpt lat="48.836153" lon="2.139983">
        <ele>171.346470</ele>
        <time>2024-09-09T00:07:13.008Z</time>
      </trkpt>
      <trkpt lat="48.836286" lon="2.139956">
        <ele>171.120487</ele>
        <time>2024-09-09T00:07:15.083Z</time>
      </trkpt>
      <trkpt lat="48.836349" lon="2.139942">
        <ele>171.013256</ele>
        <time>2024-09-09T00:07:16.038Z</time>
      </trkpt>
      <trkpt lat="48.836450" lon="2.139912">
        <ele>170.839936</ele>
        <time>2024-09-09T00:07:17.600Z</time>
      </trkpt>
      <trkpt lat="48.836499" lon="2.139850">
        <ele>170.732540</ele>
        <time>2024-09-09T00:07:18.558Z</time>
      </trkpt>
      <trkpt lat="48.836514" lon="2.139761">
        <ele>170.630698</ele>
        <time>2024-09-09T00:07:19.490Z</time>
      </trkpt>
      <trkpt lat="48.836896" lon="2.139498">
        <ele>169.521419</ele>
        <time>2024-09-09T00:07:25.639Z</time>
      </trkpt>
      <trkpt lat="48.837164" lon="2.139512">
        <ele>168.669009</ele>
        <time>2024-09-09T00:07:29.483Z</time>
      </trkpt>
      <trkpt lat="48.837991" lon="2.139679">
        <ele>166.017059</ele>
        <time>2024-09-09T00:07:41.229Z</time>
      </trkpt>
      <trkpt lat="48.838891" lon="2.139861">
        <ele>163.849597</ele>
        <time>2024-09-09T00:07:54.390Z</time>
      </trkpt>
      <trkpt lat="48.838841" lon="2.140489">
        <ele>163.147749</ele>
        <time>2024-09-09T00:08:05.654Z</time>
      </trkpt>
      <trkpt lat="48.838700" lon="2.140988">
        <ele>162.545240</ele>
        <time>2024-09-09T00:08:15.693Z</time>
      </trkpt>
      <trkpt lat="48.838633" lon="2.141406">
        <ele>162.067911</ele>
        <time>2024-09-09T00:08:24.164Z</time>
      </trkpt>
      <trkpt lat="48.838621" lon="2.141866">
        <ele>161.634801</ele>
        <time>2024-09-09T00:08:33.694Z</time>
      </trkpt>
      <trkpt lat="48.838500" lon="2.142501">
        <ele>161.694205</ele>
        <time>2024-09-09T00:08:48.839Z</time>
      </trkpt>
      <trkpt lat="48.838375" lon="2.143164">
        <ele>161.756178</ele>
        <time>2024-09-09T00:09:05.357Z</time>
      </trkpt>
      <trkpt lat="48.838269" lon="2.143766">
        <ele>161.812176</ele>
        <time>2024-09-09T00:09:18.922Z</time>
      </trkpt>
      <trkpt lat="48.838204" lon="2.144861">
        <ele>162.003015</ele>
        <time>2024-09-09T00:09:40.758Z</time>
      </trkpt>
      <trkpt lat="48.838572" lon="2.145219">
        <ele>162.213414</ele>
        <time>2024-09-09T00:09:50.172Z</time>
      </trkpt>
      <trkpt lat="48.839239" lon="2.144904">
        <ele>162.549726</ele>
        <time>2024-09-09T00:10:07.908Z</time>
      </trkpt>
      <trkpt lat="48.839696" lon="2.144703">
        <ele>162.905778</ele>
        <time>2024-09-09T00:10:19.908Z</time>
      </trkpt>
      <trkpt lat="48.840341" lon="2.145358">
        <ele>164.520171</ele>
        <time>2024-09-09T00:10:50.375Z</time>
      </trkpt>
      <trkpt lat="48.840752" lon="2.145686">
        <ele>165.486233</ele>
        <time>2024-09-09T00:11:11.651Z</time>
      </trkpt>
      <trkpt lat="48.840769" lon="2.145807">
        <ele>165.655685</ele>
        <time>2024-09-09T00:11:15.492Z</time>
      </trkpt>
      <trkpt lat="48.840876" lon="2.145811">
        <ele>165.878412</ele>
        <time>2024-09-09T00:11:19.003Z</time>
      </trkpt>
      <trkpt lat="48.841796" lon="2.145715">
        <ele>167.704493</ele>
        <time>2024-09-09T00:11:49.779Z</time>
      </trkpt>
      <trkpt lat="48.842342" lon="2.145674">
        <ele>168.761650</ele>
        <time>2024-09-09T00:12:05.184Z</time>
      </trkpt>
      <trkpt lat="48.842489" lon="2.145676">
        <ele>169.045934</ele>
        <time>2024-09-09T00:12:09.309Z</time>
      </trkpt>
      <trkpt lat="48.842876" lon="2.145893">
        <ele>169.843657</ele>
        <time>2024-09-09T00:12:20.045Z</time>
      </trkpt>
      <trkpt lat="48.843216" lon="2.146135">
        <ele>169.909918</ele>
        <time>2024-09-09T00:12:28.627Z</time>
      </trkpt>
      <trkpt lat="48.843978" lon="2.146711">
        <ele>169.769764</ele>
        <time>2024-09-09T00:12:45.812Z</time>
      </trkpt>
      <trkpt lat="48.844453" lon="2.147016">
        <ele>169.684845</ele>
        <time>2024-09-09T00:12:54.469Z</time>
      </trkpt>
      <trkpt lat="48.845274" lon="2.147623">
        <ele>168.301837</ele>
        <time>2024-09-09T00:13:08.809Z</time>
      </trkpt>
      <trkpt lat="48.845834" lon="2.148031">
        <ele>167.237300</ele>
        <time>2024-09-09T00:13:18.402Z</time>
      </trkpt>
      <trkpt lat="48.845994" lon="2.148162">
        <ele>166.925764</ele>
        <time>2024-09-09T00:13:21.314Z</time>
      </trkpt>
      <trkpt lat="48.846353" lon="2.148412">
        <ele>166.445704</ele>
        <time>2024-09-09T00:13:27.690Z</time>
      </trkpt>
      <trkpt lat="48.846675" lon="2.148636">
        <ele>166.196906</ele>
        <time>2024-09-09T00:13:33.465Z</time>
      </trkpt>
      <trkpt lat="48.846905" lon="2.148810">
        <ele>166.016403</ele>
        <time>2024-09-09T00:13:37.776Z</time>
      </trkpt>
      <trkpt lat="48.846999" lon="2.148872">
        <ele>165.944411</ele>
        <time>2024-09-09T00:13:39.564Z</time>
      </trkpt>
      <trkpt lat="48.847022" lon="2.148972">
        <ele>165.895436</ele>
        <time>2024-09-09T00:13:40.825Z</time>
      </trkpt>
      <trkpt lat="48.847420" lon="2.149476">
        <ele>165.531461</ele>
        <time>2024-09-09T00:13:50.540Z</time>
      </trkpt>
      <trkpt lat="48.847606" lon="2.149769">
        <ele>165.343246</ele>
        <time>2024-09-09T00:13:55.701Z</time>
      </trkpt>
      <trkpt lat="48.847750" lon="2.150025">
        <ele>165.309678</ele>
        <time>2024-09-09T00:13:59.870Z</time>
      </trkpt>
      <trkpt lat="48.847878" lon="2.150353">
        <ele>165.297441</ele>
        <time>2024-09-09T00:14:04.669Z</time>
      </trkpt>
      <trkpt lat="48.847978" lon="2.150726">
        <ele>165.284517</ele>
        <time>2024-09-09T00:14:09.812Z</time>
      </trkpt>
      <trkpt lat="48.847997" lon="2.150980">
        <ele>165.276313</ele>
        <time>2024-09-09T00:14:13.087Z</time>
      </trkpt>
      <trkpt lat="48.848021" lon="2.151264">
        <ele>165.267125</ele>
        <time>2024-09-09T00:14:16.720Z</time>
      </trkpt>
      <trkpt lat="48.848193" lon="2.151903">
        <ele>165.244971</ele>
        <time>2024-09-09T00:14:25.495Z</time>
      </trkpt>
      <trkpt lat="48.848348" lon="2.152432">
        <ele>165.159005</ele>
        <time>2024-09-09T00:14:32.763Z</time>
      </trkpt>
      <trkpt lat="48.848600" lon="2.152710">
        <ele>164.925645</ele>
        <time>2024-09-09T00:14:38.554Z</time>
      </trkpt>
      <trkpt lat="48.848723" lon="2.152918">
        <ele>164.787743</ele>
        <time>2024-09-09T00:14:41.863Z</time>
      </trkpt>
      <trkpt lat="48.848835" lon="2.153001">
        <ele>164.694363</ele>
        <time>2024-09-09T00:14:44.035Z</time>
      </trkpt>
      <trkpt lat="48.848957" lon="2.153190">
        <ele>164.563806</ele>
        <time>2024-09-09T00:14:47.001Z</time>
      </trkpt>
      <trkpt lat="48.850900" lon="2.156188">
        <ele>161.498594</ele>
        <time>2024-09-09T00:15:33.197Z</time>
      </trkpt>
      <trkpt lat="48.850932" lon="2.156238">
        <ele>161.318887</ele>
        <time>2024-09-09T00:15:33.949Z</time>
      </trkpt>
      <trkpt lat="48.851004" lon="2.156349">
        <ele>160.917307</ele>
        <time>2024-09-09T00:15:35.618Z</time>
      </trkpt>
      <trkpt lat="48.851036" lon="2.156396">
        <ele>160.743057</ele>
        <time>2024-09-09T00:15:36.343Z</time>
      </trkpt>
      <trkpt lat="48.851054" lon="2.156423">
        <ele>160.644029</ele>
        <time>2024-09-09T00:15:36.738Z</time>
      </trkpt>
      <trkpt lat="48.851097" lon="2.156485">
        <ele>160.411941</ele>
        <time>2024-09-09T00:15:37.672Z</time>
      </trkpt>
      <trkpt lat="48.851315" lon="2.156815">
        <ele>159.207160</ele>
        <time>2024-09-09T00:15:42.431Z</time>
      </trkpt>
      <trkpt lat="48.851463" lon="2.157080">
        <ele>158.311628</ele>
        <time>2024-09-09T00:15:48.416Z</time>
      </trkpt>
      <trkpt lat="48.851882" lon="2.158066">
        <ele>155.287549</ele>
        <time>2024-09-09T00:16:07.086Z</time>
      </trkpt>
      <trkpt lat="48.851911" lon="2.158131">
        <ele>155.085215</ele>
        <time>2024-09-09T00:16:08.278Z</time>
      </trkpt>
      <trkpt lat="48.852060" lon="2.158468">
        <ele>153.233899</ele>
        <time>2024-09-09T00:16:14.323Z</time>
      </trkpt>
      <trkpt lat="48.852155" lon="2.158683">
        <ele>151.752552</ele>
        <time>2024-09-09T00:16:18.120Z</time>
      </trkpt>
      <trkpt lat="48.852677" lon="2.159498">
        <ele>145.246960</ele>
        <time>2024-09-09T00:16:34.528Z</time>
      </trkpt>
      <trkpt lat="48.852921" lon="2.159831">
        <ele>142.396183</ele>
        <time>2024-09-09T00:16:41.655Z</time>
      </trkpt>
      <trkpt lat="48.852967" lon="2.160193">
        <ele>140.287325</ele>
        <time>2024-09-09T00:16:46.854Z</time>
      </trkpt>
      <trkpt lat="48.852960" lon="2.160459">
        <ele>138.782082</ele>
        <time>2024-09-09T00:16:50.600Z</time>
      </trkpt>
      <trkpt lat="48.853049" lon="2.160701">
        <ele>137.288924</ele>
        <time>2024-09-09T00:16:54.500Z</time>
      </trkpt>
      <trkpt lat="48.853287" lon="2.161178">
        <ele>134.064763</ele>
        <time>2024-09-09T00:17:02.981Z</time>
      </trkpt>
      <trkpt lat="48.853287" lon="2.161178">
        <ele>134.064763</ele>
        <time>2024-09-09T00:17:03.004Z</time>
      </trkpt>
      <trkpt lat="48.853397" lon="2.161087">
        <ele>133.039626</ele>
        <time>2024-09-09T00:17:08.379Z</time>
      </trkpt>
      <trkpt lat="48.853406" lon="2.161417">
        <ele>131.260769</ele>
        <time>2024-09-09T00:17:17.703Z</time>
      </trkpt>
      <trkpt lat="48.853602" lon="2.162042">
        <ele>127.531852</ele>
        <time>2024-09-09T00:17:27.914Z</time>
      </trkpt>
      <trkpt lat="48.853872" lon="2.162571">
        <ele>124.118022</ele>
        <time>2024-09-09T00:17:38.257Z</time>
      </trkpt>
      <trkpt lat="48.853944" lon="2.162818">
        <ele>123.335814</ele>
        <time>2024-09-09T00:17:42.510Z</time>
      </trkpt>
      <trkpt lat="48.854176" lon="2.163133">
        <ele>121.966841</ele>
        <time>2024-09-09T00:17:50.057Z</time>
      </trkpt>
      <trkpt lat="48.854311" lon="2.163092">
        <ele>121.361035</ele>
        <time>2024-09-09T00:17:53.453Z</time>
      </trkpt>
      <trkpt lat="48.854508" lon="2.163105">
        <ele>120.493329</ele>
        <time>2024-09-09T00:17:58.257Z</time>
      </trkpt>
      <trkpt lat="48.854816" lon="2.163273">
        <ele>119.053345</ele>
        <time>2024-09-09T00:18:06.368Z</time>
      </trkpt>
      <trkpt lat="48.855322" lon="2.163550">
        <ele>116.686680</ele>
        <time>2024-09-09T00:18:19.987Z</time>
      </trkpt>
      <trkpt lat="48.855494" lon="2.163719">
        <ele>115.901305</ele>
        <time>2024-09-09T00:18:25.195Z</time>
      </trkpt>
      <trkpt lat="48.855580" lon="2.164002">
        <ele>115.161959</ele>
        <time>2024-09-09T00:18:30.570Z</time>
      </trkpt>
      <trkpt lat="48.855780" lon="2.164204">
        <ele>114.296337</ele>
        <time>2024-09-09T00:18:36.861Z</time>
      </trkpt>
      <trkpt lat="48.856265" lon="2.165114">
        <ele>111.518783</ele>
        <time>2024-09-09T00:18:56.510Z</time>
      </trkpt>
      <trkpt lat="48.856992" lon="2.165631">
        <ele>108.320503</ele>
        <time>2024-09-09T00:19:16.450Z</time>
      </trkpt>
      <trkpt lat="48.857289" lon="2.165664">
        <ele>106.998515</ele>
        <time>2024-09-09T00:19:23.752Z</time>
      </trkpt>
      <trkpt lat="48.857767" lon="2.165614">
        <ele>104.871515</ele>
        <time>2024-09-09T00:19:35.490Z</time>
      </trkpt>
      <trkpt lat="48.857899" lon="2.165601">
        <ele>104.284299</ele>
        <time>2024-09-09T00:19:38.709Z</time>
      </trkpt>
      <trkpt lat="48.858409" lon="2.165444">
        <ele>101.974291</ele>
        <time>2024-09-09T00:19:51.379Z</time>
      </trkpt>
      <trkpt lat="48.859019" lon="2.165406">
        <ele>99.225737</ele>
        <time>2024-09-09T00:20:06.223Z</time>
      </trkpt>
      <trkpt lat="48.859100" lon="2.165402">
        <ele>98.860848</ele>
        <time>2024-09-09T00:20:08.214Z</time>
      </trkpt>
      <trkpt lat="48.859278" lon="2.165392">
        <ele>98.058869</ele>
        <time>2024-09-09T00:20:12.560Z</time>
      </trkpt>
      <trkpt lat="48.859445" lon="2.165340">
        <ele>97.291348</ele>
        <time>2024-09-09T00:20:16.711Z</time>
      </trkpt>
      <trkpt lat="48.859537" lon="2.165212">
        <ele>96.729795</ele>
        <time>2024-09-09T00:20:19.769Z</time>
      </trkpt>
      <trkpt lat="48.859883" lon="2.164883">
        <ele>94.892237</ele>
        <time>2024-09-09T00:20:29.849Z</time>
      </trkpt>
      <trkpt lat="48.860021" lon="2.164700">
        <ele>94.067676</ele>
        <time>2024-09-09T00:20:34.370Z</time>
      </trkpt>
      <trkpt lat="48.860080" lon="2.164637">
        <ele>93.740191</ele>
        <time>2024-09-09T00:20:36.180Z</time>
      </trkpt>
      <trkpt lat="48.860084" lon="2.164633">
        <ele>93.718108</ele>
        <time>2024-09-09T00:20:36.306Z</time>
      </trkpt>
      <trkpt lat="48.860110" lon="2.164605">
        <ele>93.571144</ele>
        <time>2024-09-09T00:20:37.120Z</time>
      </trkpt>
      <trkpt lat="48.860223" lon="2.164544">
        <ele>93.018078</ele>
        <time>2024-09-09T00:20:40.102Z</time>
      </trkpt>
      <trkpt lat="48.860248" lon="2.164521">
        <ele>92.883298</ele>
        <time>2024-09-09T00:20:40.805Z</time>
      </trkpt>
      <trkpt lat="48.860299" lon="2.164457">
        <ele>92.578272</ele>
        <time>2024-09-09T00:20:42.461Z</time>
      </trkpt>
      <trkpt lat="48.860699" lon="2.164168">
        <ele>90.535600</ele>
        <time>2024-09-09T00:20:48.521Z</time>
      </trkpt>
      <trkpt lat="48.861299" lon="2.163832">
        <ele>87.586474</ele>
        <time>2024-09-09T00:20:57.130Z</time>
      </trkpt>
      <trkpt lat="48.861451" lon="2.163788">
        <ele>86.872826</ele>
        <time>2024-09-09T00:20:59.219Z</time>
      </trkpt>
      <trkpt lat="48.861916" lon="2.163654">
        <ele>84.443050</ele>
        <time>2024-09-09T00:21:05.521Z</time>
      </trkpt>
      <trkpt lat="48.862507" lon="2.163420">
        <ele>80.830646</ele>
        <time>2024-09-09T00:21:13.550Z</time>
      </trkpt>
      <trkpt lat="48.863375" lon="2.162878">
        <ele>75.280128</ele>
        <time>2024-09-09T00:21:25.581Z</time>
      </trkpt>
      <trkpt lat="48.863901" lon="2.162590">
        <ele>71.584658</ele>
        <time>2024-09-09T00:21:32.657Z</time>
      </trkpt>
      <trkpt lat="48.863962" lon="2.162416">
        <ele>70.716481</ele>
        <time>2024-09-09T00:21:34.324Z</time>
      </trkpt>
      <trkpt lat="48.864058" lon="2.162326">
        <ele>69.961531</ele>
        <time>2024-09-09T00:21:35.953Z</time>
      </trkpt>
      <trkpt lat="48.865101" lon="2.162213">
        <ele>62.962539</ele>
        <time>2024-09-09T00:21:51.036Z</time>
      </trkpt>
      <trkpt lat="48.865929" lon="2.162098">
        <ele>57.254235</ele>
        <time>2024-09-09T00:22:02.985Z</time>
      </trkpt>
      <trkpt lat="48.866609" lon="2.162007">
        <ele>52.566009</ele>
        <time>2024-09-09T00:22:12.780Z</time>
      </trkpt>
      <trkpt lat="48.867103" lon="2.162062">
        <ele>49.404794</ele>
        <time>2024-09-09T00:22:19.894Z</time>
      </trkpt>
      <trkpt lat="48.867335" lon="2.162132">
        <ele>48.065884</ele>
        <time>2024-09-09T00:22:23.316Z</time>
      </trkpt>
      <trkpt lat="48.867816" lon="2.162482">
        <ele>45.047228</ele>
        <time>2024-09-09T00:22:31.113Z</time>
      </trkpt>
      <trkpt lat="48.868278" lon="2.162504">
        <ele>42.430680</ele>
        <time>2024-09-09T00:22:38.054Z</time>
      </trkpt>
      <trkpt lat="48.868679" lon="2.162439">
        <ele>40.215838</ele>
        <time>2024-09-09T00:22:44.281Z</time>
      </trkpt>
      <trkpt lat="48.868766" lon="2.162347">
        <ele>39.816259</ele>
        <time>2024-09-09T00:22:45.960Z</time>
      </trkpt>
      <trkpt lat="48.868795" lon="2.162308">
        <ele>39.670275</ele>
        <time>2024-09-09T00:22:46.568Z</time>
      </trkpt>
      <trkpt lat="48.868904" lon="2.162079">
        <ele>38.969228</ele>
        <time>2024-09-09T00:22:49.538Z</time>
      </trkpt>
      <trkpt lat="48.869179" lon="2.159988">
        <ele>33.680672</ele>
        <time>2024-09-09T00:23:11.972Z</time>
      </trkpt>
      <trkpt lat="48.869192" lon="2.159644">
        <ele>32.901306</ele>
        <time>2024-09-09T00:23:15.639Z</time>
      </trkpt>
      <trkpt lat="48.869166" lon="2.159213">
        <ele>31.936431</ele>
        <time>2024-09-09T00:23:20.222Z</time>
      </trkpt>
      <trkpt lat="48.869193" lon="2.159200">
        <ele>31.840444</ele>
        <time>2024-09-09T00:23:20.695Z</time>
      </trkpt>
      <trkpt lat="48.869318" lon="2.159118">
        <ele>31.379039</ele>
        <time>2024-09-09T00:23:22.929Z</time>
      </trkpt>
      <trkpt lat="48.869333" lon="2.158925">
        <ele>30.945785</ele>
        <time>2024-09-09T00:23:24.971Z</time>
      </trkpt>
      <trkpt lat="48.869412" lon="2.158698">
        <ele>30.373264</ele>
        <time>2024-09-09T00:23:27.752Z</time>
      </trkpt>
      <trkpt lat="48.869501" lon="2.158595">
        <ele>29.994172</ele>
        <time>2024-09-09T00:23:29.539Z</time>
      </trkpt>
      <trkpt lat="48.869689" lon="2.158550">
        <ele>29.349158</ele>
        <time>2024-09-09T00:23:32.596Z</time>
      </trkpt>
      <trkpt lat="48.869870" lon="2.158670">
        <ele>28.679923</ele>
        <time>2024-09-09T00:23:35.780Z</time>
      </trkpt>
      <trkpt lat="48.870059" lon="2.159034">
        <ele>27.646102</ele>
        <time>2024-09-09T00:23:40.694Z</time>
      </trkpt>
      <trkpt lat="48.870097" lon="2.159079">
        <ele>27.482853</ele>
        <time>2024-09-09T00:23:41.616Z</time>
      </trkpt>
      <trkpt lat="48.870392" lon="2.159293">
        <ele>27.016071</ele>
        <time>2024-09-09T00:23:50.066Z</time>
      </trkpt>
      <trkpt lat="48.870611" lon="2.159335">
        <ele>26.704378</ele>
        <time>2024-09-09T00:23:55.909Z</time>
      </trkpt>
      <trkpt lat="48.870816" lon="2.159290">
        <ele>26.411903</ele>
        <time>2024-09-09T00:24:01.537Z</time>
      </trkpt>
      <trkpt lat="48.870939" lon="2.159211">
        <ele>26.223356</ele>
        <time>2024-09-09T00:24:05.252Z</time>
      </trkpt>
      <trkpt lat="48.871194" lon="2.158921">
        <ele>25.773684</ele>
        <time>2024-09-09T00:24:14.790Z</time>
      </trkpt>
      <trkpt lat="48.871714" lon="2.158350">
        <ele>24.950350</ele>
        <time>2024-09-09T00:24:28.753Z</time>
      </trkpt>
      <trkpt lat="48.871871" lon="2.158229">
        <ele>25.011449</ele>
        <time>2024-09-09T00:24:32.789Z</time>
      </trkpt>
      <trkpt lat="48.872152" lon="2.158096">
        <ele>25.113604</ele>
        <time>2024-09-09T00:24:39.623Z</time>
      </trkpt>
      <trkpt lat="48.872481" lon="2.157930">
        <ele>25.233929</ele>
        <time>2024-09-09T00:24:47.684Z</time>
      </trkpt>
      <trkpt lat="48.872618" lon="2.157898">
        <ele>25.282041</ele>
        <time>2024-09-09T00:24:51.038Z</time>
      </trkpt>
      <trkpt lat="48.872722" lon="2.157793">
        <ele>25.325375</ele>
        <time>2024-09-09T00:24:53.747Z</time>
      </trkpt>
      <trkpt lat="48.872776" lon="2.157696">
        <ele>25.354388</ele>
        <time>2024-09-09T00:24:55.548Z</time>
      </trkpt>
      <trkpt lat="48.872865" lon="2.157428">
        <ele>25.422931</ele>
        <time>2024-09-09T00:25:00.366Z</time>
      </trkpt>
      <trkpt lat="48.872922" lon="2.157060">
        <ele>25.509246</ele>
        <time>2024-09-09T00:25:06.200Z</time>
      </trkpt>
      <trkpt lat="48.872911" lon="2.156689">
        <ele>25.556700</ele>
        <time>2024-09-09T00:25:12.012Z</time>
      </trkpt>
      <trkpt lat="48.872862" lon="2.156414">
        <ele>25.553570</ele>
        <time>2024-09-09T00:25:16.625Z</time>
      </trkpt>
      <trkpt lat="48.872889" lon="2.156003">
        <ele>25.549032</ele>
        <time>2024-09-09T00:25:22.784Z</time>
      </trkpt>
      <trkpt lat="48.872827" lon="2.155957">
        <ele>25.547880</ele>
        <time>2024-09-09T00:25:24.421Z</time>
      </trkpt>
      <trkpt lat="48.872794" lon="2.155864">
        <ele>25.546719</ele>
        <time>2024-09-09T00:25:26.018Z</time>
      </trkpt>
      <trkpt lat="48.872805" lon="2.155760">
        <ele>25.545562</ele>
        <time>2024-09-09T00:25:27.543Z</time>
      </trkpt>
      <trkpt lat="48.872886" lon="2.155668">
        <ele>25.543873</ele>
        <time>2024-09-09T00:25:29.828Z</time>
      </trkpt>
      <trkpt lat="48.872771" lon="2.155504">
        <ele>25.541239</ele>
        <time>2024-09-09T00:25:33.314Z</time>
      </trkpt>
      <trkpt lat="48.872547" lon="2.155379">
        <ele>25.537253</ele>
        <time>2024-09-09T00:25:38.256Z</time>
      </trkpt>
      <trkpt lat="48.872323" lon="2.155197">
        <ele>25.533011</ele>
        <time>2024-09-09T00:25:44.345Z</time>
      </trkpt>
      <trkpt lat="48.871882" lon="2.154692">
        <ele>25.393449</ele>
        <time>2024-09-09T00:25:57.499Z</time>
      </trkpt>
      <trkpt lat="48.871781" lon="2.154491">
        <ele>25.311610</ele>
        <time>2024-09-09T00:26:01.408Z</time>
      </trkpt>
      <trkpt lat="48.871744" lon="2.154393">
        <ele>25.275050</ele>
        <time>2024-09-09T00:26:03.168Z</time>
      </trkpt>
      <trkpt lat="48.871746" lon="2.154233">
        <ele>25.223273</ele>
        <time>2024-09-09T00:26:05.624Z</time>
      </trkpt>
      <trkpt lat="48.871827" lon="2.154047">
        <ele>25.151098</ele>
        <time>2024-09-09T00:26:09.154Z</time>
      </trkpt>
      <trkpt lat="48.871966" lon="2.153860">
        <ele>25.059798</ele>
        <time>2024-09-09T00:26:13.581Z</time>
      </trkpt>
      <trkpt lat="48.872338" lon="2.153496">
        <ele>24.842187</ele>
        <time>2024-09-09T00:26:24.180Z</time>
      </trkpt>
      <trkpt lat="48.872583" lon="2.153084">
        <ele>24.662484</ele>
        <time>2024-09-09T00:26:33.024Z</time>
      </trkpt>
      <trkpt lat="48.872831" lon="2.153289">
        <ele>24.567486</ele>
        <time>2024-09-09T00:26:38.149Z</time>
      </trkpt>
      <trkpt lat="48.874316" lon="2.154337">
        <ele>24.096537</ele>
        <time>2024-09-09T00:27:08.130Z</time>
      </trkpt>
      <trkpt lat="48.875002" lon="2.154814">
        <ele>24.227128</ele>
        <time>2024-09-09T00:27:22.416Z</time>
      </trkpt>
      <trkpt lat="48.876346" lon="2.155861">
        <ele>24.691173</ele>
        <time>2024-09-09T00:27:54.358Z</time>
      </trkpt>
      <trkpt lat="48.876842" lon="2.156208">
        <ele>24.987454</ele>
        <time>2024-09-09T00:28:06.884Z</time>
      </trkpt>
      <trkpt lat="48.876880" lon="2.156235">
        <ele>25.010216</ele>
        <time>2024-09-09T00:28:07.784Z</time>
      </trkpt>
      <trkpt lat="48.877690" lon="2.156801">
        <ele>25.407219</ele>
        <time>2024-09-09T00:28:27.911Z</time>
      </trkpt>
      <trkpt lat="48.879908" lon="2.158316">
        <ele>25.628304</ele>
        <time>2024-09-09T00:29:15.007Z</time>
      </trkpt>
      <trkpt lat="48.880263" lon="2.158822">
        <ele>25.607893</ele>
        <time>2024-09-09T00:29:24.074Z</time>
      </trkpt>
      <trkpt lat="48.880472" lon="2.159277">
        <ele>25.592582</ele>
        <time>2024-09-09T00:29:31.025Z</time>
      </trkpt>
      <trkpt lat="48.881012" lon="2.160901">
        <ele>25.467292</ele>
        <time>2024-09-09T00:29:53.727Z</time>
      </trkpt>
      <trkpt lat="48.880992" lon="2.161041">
        <ele>25.456975</ele>
        <time>2024-09-09T00:29:56.795Z</time>
      </trkpt>
      <trkpt lat="48.881009" lon="2.161095">
        <ele>25.452664</ele>
        <time>2024-09-09T00:29:57.521Z</time>
      </trkpt>
      <trkpt lat="48.881304" lon="2.162021">
        <ele>25.369107</ele>
        <time>2024-09-09T00:30:10.084Z</time>
      </trkpt>
      <trkpt lat="48.881348" lon="2.162175">
        <ele>25.348531</ele>
        <time>2024-09-09T00:30:12.089Z</time>
      </trkpt>
      <trkpt lat="48.881444" lon="2.162325">
        <ele>25.322881</ele>
        <time>2024-09-09T00:30:14.652Z</time>
      </trkpt>
      <trkpt lat="48.881511" lon="2.162432">
        <ele>25.304776</ele>
        <time>2024-09-09T00:30:16.602Z</time>
      </trkpt>
      <trkpt lat="48.882037" lon="2.163231">
        <ele>25.166232</ele>
        <time>2024-09-09T00:30:30.614Z</time>
      </trkpt>
      <trkpt lat="48.882289" lon="2.163537">
        <ele>25.106138</ele>
        <time>2024-09-09T00:30:36.560Z</time>
      </trkpt>
      <trkpt lat="48.882309" lon="2.163556">
        <ele>25.101744</ele>
        <time>2024-09-09T00:30:36.999Z</time>
      </trkpt>
      <trkpt lat="48.882366" lon="2.163612">
        <ele>25.089098</ele>
        <time>2024-09-09T00:30:38.215Z</time>
      </trkpt>
      <trkpt lat="48.882574" lon="2.163815">
        <ele>25.043314</ele>
        <time>2024-09-09T00:30:42.759Z</time>
      </trkpt>
      <trkpt lat="48.882843" lon="2.164005">
        <ele>24.989128</ele>
        <time>2024-09-09T00:30:48.322Z</time>
      </trkpt>
      <trkpt lat="48.883045" lon="2.164133">
        <ele>24.949149</ele>
        <time>2024-09-09T00:30:52.303Z</time>
      </trkpt>
      <trkpt lat="48.883429" lon="2.164294">
        <ele>24.876379</ele>
        <time>2024-09-09T00:30:59.629Z</time>
      </trkpt>
      <trkpt lat="48.884075" lon="2.164446">
        <ele>24.756958</ele>
        <time>2024-09-09T00:31:11.886Z</time>
      </trkpt>
      <trkpt lat="48.884224" lon="2.164477">
        <ele>24.729483</ele>
        <time>2024-09-09T00:31:14.867Z</time>
      </trkpt>
      <trkpt lat="48.884526" lon="2.164438">
        <ele>24.648451</ele>
        <time>2024-09-09T00:31:20.805Z</time>
      </trkpt>
      <trkpt lat="48.884879" lon="2.164338">
        <ele>24.551780</ele>
        <time>2024-09-09T00:31:27.515Z</time>
      </trkpt>
      <trkpt lat="48.885109" lon="2.164235">
        <ele>24.487229</ele>
        <time>2024-09-09T00:31:31.719Z</time>
      </trkpt>
      <trkpt lat="48.885445" lon="2.164085">
        <ele>24.392953</ele>
        <time>2024-09-09T00:31:37.935Z</time>
      </trkpt>
      <trkpt lat="48.885505" lon="2.164059">
        <ele>24.376157</ele>
        <time>2024-09-09T00:31:39.137Z</time>
      </trkpt>
      <trkpt lat="48.885554" lon="2.164039">
        <ele>24.362498</ele>
        <time>2024-09-09T00:31:40.156Z</time>
      </trkpt>
      <trkpt lat="48.885626" lon="2.163925">
        <ele>24.334515</ele>
        <time>2024-09-09T00:31:42.017Z</time>
      </trkpt>
      <trkpt lat="48.885805" lon="2.163874">
        <ele>24.285486</ele>
        <time>2024-09-09T00:31:45.171Z</time>
      </trkpt>
      <trkpt lat="48.886005" lon="2.163985">
        <ele>24.297326</ele>
        <time>2024-09-09T00:31:49.130Z</time>
      </trkpt>
      <trkpt lat="48.886457" lon="2.163890">
        <ele>24.709292</ele>
        <time>2024-09-09T00:31:58.083Z</time>
      </trkpt>
      <trkpt lat="48.887083" lon="2.163822">
        <ele>25.275915</ele>
        <time>2024-09-09T00:32:14.112Z</time>
      </trkpt>
      <trkpt lat="48.887382" lon="2.163805">
        <ele>25.546055</ele>
        <time>2024-09-09T00:32:21.752Z</time>
      </trkpt>
      <trkpt lat="48.887820" lon="2.163872">
        <ele>25.988557</ele>
        <time>2024-09-09T00:32:32.468Z</time>
      </trkpt>
      <trkpt lat="48.887847" lon="2.163963">
        <ele>26.083176</ele>
        <time>2024-09-09T00:32:34.500Z</time>
      </trkpt>
      <trkpt lat="48.887947" lon="2.163955">
        <ele>26.227512</ele>
        <time>2024-09-09T00:32:37.463Z</time>
      </trkpt>
      <trkpt lat="48.888220" lon="2.164065">
        <ele>26.634582</ele>
        <time>2024-09-09T00:32:46.218Z</time>
      </trkpt>
      <trkpt lat="48.888307" lon="2.164162">
        <ele>26.790069</ele>
        <time>2024-09-09T00:32:49.516Z</time>
      </trkpt>
      <trkpt lat="48.888465" lon="2.164208">
        <ele>27.021941</ele>
        <time>2024-09-09T00:32:54.090Z</time>
      </trkpt>
      <trkpt lat="48.889110" lon="2.164735">
        <ele>28.077293</ele>
        <time>2024-09-09T00:33:13.919Z</time>
      </trkpt>
      <trkpt lat="48.889351" lon="2.164981">
        <ele>28.451381</ele>
        <time>2024-09-09T00:33:20.870Z</time>
      </trkpt>
      <trkpt lat="48.889554" lon="2.165100">
        <ele>28.370419</ele>
        <time>2024-09-09T00:33:25.431Z</time>
      </trkpt>
      <trkpt lat="48.889869" lon="2.165243">
        <ele>28.248083</ele>
        <time>2024-09-09T00:33:31.603Z</time>
      </trkpt>
      <trkpt lat="48.890035" lon="2.165414">
        <ele>28.173472</ele>
        <time>2024-09-09T00:33:35.049Z</time>
      </trkpt>
      <trkpt lat="48.890062" lon="2.165451">
        <ele>28.159947</ele>
        <time>2024-09-09T00:33:35.738Z</time>
      </trkpt>
      <trkpt lat="48.890194" lon="2.165595">
        <ele>28.099494</ele>
        <time>2024-09-09T00:33:38.637Z</time>
      </trkpt>
      <trkpt lat="48.890670" lon="2.166275">
        <ele>27.856467</ele>
        <time>2024-09-09T00:33:50.104Z</time>
      </trkpt>
      <trkpt lat="48.890706" lon="2.166415">
        <ele>27.819685</ele>
        <time>2024-09-09T00:33:51.671Z</time>
      </trkpt>
      <trkpt lat="48.890699" lon="2.166534">
        <ele>27.790122</ele>
        <time>2024-09-09T00:33:52.870Z</time>
      </trkpt>
      <trkpt lat="48.890684" lon="2.166621">
        <ele>27.757188</ele>
        <time>2024-09-09T00:33:53.877Z</time>
      </trkpt>
      <trkpt lat="48.890646" lon="2.166727">
        <ele>27.712980</ele>
        <time>2024-09-09T00:33:55.367Z</time>
      </trkpt>
      <trkpt lat="48.890743" lon="2.166784">
        <ele>27.655068</ele>
        <time>2024-09-09T00:33:58.280Z</time>
      </trkpt>
      <trkpt lat="48.890881" lon="2.166753">
        <ele>27.577380</ele>
        <time>2024-09-09T00:34:02.074Z</time>
      </trkpt>
      <trkpt lat="48.891012" lon="2.166879">
        <ele>27.491060</ele>
        <time>2024-09-09T00:34:05.096Z</time>
      </trkpt>
      <trkpt lat="48.891173" lon="2.166869">
        <ele>27.401322</ele>
        <time>2024-09-09T00:34:07.944Z</time>
      </trkpt>
      <trkpt lat="48.891407" lon="2.167134">
        <ele>27.238847</ele>
        <time>2024-09-09T00:34:14.069Z</time>
      </trkpt>
      <trkpt lat="48.891489" lon="2.167031">
        <ele>27.179620</ele>
        <time>2024-09-09T00:34:15.898Z</time>
      </trkpt>
      <trkpt lat="48.891522" lon="2.167028">
        <ele>27.161209</ele>
        <time>2024-09-09T00:34:16.626Z</time>
      </trkpt>
      <trkpt lat="48.891543" lon="2.167032">
        <ele>27.149423</ele>
        <time>2024-09-09T00:34:17.147Z</time>
      </trkpt>
      <trkpt lat="48.891761" lon="2.167131">
        <ele>27.022719</ele>
        <time>2024-09-09T00:34:21.874Z</time>
      </trkpt>
      <trkpt lat="48.891961" lon="2.167340">
        <ele>26.887580</ele>
        <time>2024-09-09T00:34:27.168Z</time>
      </trkpt>
      <trkpt lat="48.892183" lon="2.167449">
        <ele>26.766985</ele>
        <time>2024-09-09T00:34:31.595Z</time>
      </trkpt>
      <trkpt lat="48.892462" lon="2.167548">
        <ele>26.654253</ele>
        <time>2024-09-09T00:34:37.542Z</time>
      </trkpt>
      <trkpt lat="48.892491" lon="2.167558">
        <ele>26.642552</ele>
        <time>2024-09-09T00:34:38.092Z</time>
      </trkpt>
      <trkpt lat="48.892814" lon="2.167673">
        <ele>26.512020</ele>
        <time>2024-09-09T00:34:44.856Z</time>
      </trkpt>
      <trkpt lat="48.893076" lon="2.167765">
        <ele>26.406214</ele>
        <time>2024-09-09T00:34:50.169Z</time>
      </trkpt>
      <trkpt lat="48.893570" lon="2.167973">
        <ele>26.204520</ele>
        <time>2024-09-09T00:35:00.714Z</time>
      </trkpt>
      <trkpt lat="48.894061" lon="2.168249">
        <ele>26.050159</ele>
        <time>2024-09-09T00:35:11.492Z</time>
      </trkpt>
      <trkpt lat="48.894132" lon="2.168290">
        <ele>26.038827</ele>
        <time>2024-09-09T00:35:13.449Z</time>
      </trkpt>
      <trkpt lat="48.894249" lon="2.168360">
        <ele>26.020069</ele>
        <time>2024-09-09T00:35:17.307Z</time>
      </trkpt>
      <trkpt lat="48.894412" lon="2.168519">
        <ele>25.991177</ele>
        <time>2024-09-09T00:35:23.097Z</time>
      </trkpt>
      <trkpt lat="48.894569" lon="2.168718">
        <ele>25.960685</ele>
        <time>2024-09-09T00:35:29.456Z</time>
      </trkpt>
      <trkpt lat="48.894727" lon="2.168918">
        <ele>25.930016</ele>
        <time>2024-09-09T00:35:35.957Z</time>
      </trkpt>
      <trkpt lat="48.895067" lon="2.169263">
        <ele>25.869035</ele>
        <time>2024-09-09T00:35:48.808Z</time>
      </trkpt>
      <trkpt lat="48.895721" lon="2.170097">
        <ele>25.870754</ele>
        <time>2024-09-09T00:36:16.120Z</time>
      </trkpt>
      <trkpt lat="48.896015" lon="2.170424">
        <ele>25.914332</ele>
        <time>2024-09-09T00:36:28.162Z</time>
      </trkpt>
      <trkpt lat="48.896485" lon="2.171066">
        <ele>25.989914</ele>
        <time>2024-09-09T00:36:48.551Z</time>
      </trkpt>
      <trkpt lat="48.896730" lon="2.171449">
        <ele>26.034872</ele>
        <time>2024-09-09T00:36:59.864Z</time>
      </trkpt>
      <trkpt lat="48.897700" lon="2.173119">
        <ele>26.359862</ele>
        <time>2024-09-09T00:37:48.202Z</time>
      </trkpt>
      <trkpt lat="48.899558" lon="2.176164">
        <ele>26.961637</ele>
        <time>2024-09-09T00:39:19.718Z</time>
      </trkpt>
      <trkpt lat="48.899926" lon="2.176941">
        <ele>26.863485</ele>
        <time>2024-09-09T00:39:39.491Z</time>
      </trkpt>
      <trkpt lat="48.900214" lon="2.177659">
        <ele>26.772400</ele>
        <time>2024-09-09T00:39:55.977Z</time>
      </trkpt>
      <trkpt lat="48.900607" lon="2.178668">
        <ele>26.319248</ele>
        <time>2024-09-09T00:40:18.983Z</time>
      </trkpt>
      <trkpt lat="48.900613" lon="2.178768">
        <ele>26.280449</ele>
        <time>2024-09-09T00:40:21.017Z</time>
      </trkpt>
      <trkpt lat="48.900670" lon="2.178948">
        <ele>26.203252</ele>
        <time>2024-09-09T00:40:25.072Z</time>
      </trkpt>
      <trkpt lat="48.900658" lon="2.179095">
        <ele>26.146018</ele>
        <time>2024-09-09T00:40:28.024Z</time>
      </trkpt>
      <trkpt lat="48.900691" lon="2.179120">
        <ele>26.124350</ele>
        <time>2024-09-09T00:40:29.110Z</time>
      </trkpt>
      <trkpt lat="48.900714" lon="2.179122">
        <ele>26.110809</ele>
        <time>2024-09-09T00:40:29.813Z</time>
      </trkpt>
      <trkpt lat="48.900734" lon="2.179124">
        <ele>26.099028</ele>
        <time>2024-09-09T00:40:30.441Z</time>
      </trkpt>
      <trkpt lat="48.900749" lon="2.179272">
        <ele>26.041169</ele>
        <time>2024-09-09T00:40:33.444Z</time>
      </trkpt>
      <trkpt lat="48.900841" lon="2.179480">
        <ele>25.944304</ele>
        <time>2024-09-09T00:40:38.421Z</time>
      </trkpt>
      <trkpt lat="48.900851" lon="2.179627">
        <ele>25.887203</ele>
        <time>2024-09-09T00:40:41.307Z</time>
      </trkpt>
      <trkpt lat="48.900866" lon="2.179626">
        <ele>25.878378</ele>
        <time>2024-09-09T00:40:41.752Z</time>
      </trkpt>
      <trkpt lat="48.900878" lon="2.179627">
        <ele>25.871314</ele>
        <time>2024-09-09T00:40:42.087Z</time>
      </trkpt>
      <trkpt lat="48.900878" lon="2.179653">
        <ele>25.861268</ele>
        <time>2024-09-09T00:40:42.612Z</time>
      </trkpt>
      <trkpt lat="48.900784" lon="2.179706">
        <ele>25.802345</ele>
        <time>2024-09-09T00:40:45.617Z</time>
      </trkpt>
      <trkpt lat="48.900690" lon="2.179818">
        <ele>25.732165</ele>
        <time>2024-09-09T00:40:49.206Z</time>
      </trkpt>
      <trkpt lat="48.900623" lon="2.179963">
        <ele>25.726185</ele>
        <time>2024-09-09T00:40:52.719Z</time>
      </trkpt>
      <trkpt lat="48.900608" lon="2.180042">
        <ele>25.728548</ele>
        <time>2024-09-09T00:40:54.361Z</time>
      </trkpt>
      <trkpt lat="48.900625" lon="2.180245">
        <ele>25.734430</ele>
        <time>2024-09-09T00:40:58.443Z</time>
      </trkpt>
      <trkpt lat="48.900799" lon="2.180816">
        <ele>25.752519</ele>
        <time>2024-09-09T00:41:11.292Z</time>
      </trkpt>
      <trkpt lat="48.900813" lon="2.180864">
        <ele>25.754028</ele>
        <time>2024-09-09T00:41:11.932Z</time>
      </trkpt>
      <trkpt lat="48.900825" lon="2.180903">
        <ele>25.755266</ele>
        <time>2024-09-09T00:41:12.461Z</time>
      </trkpt>
      <trkpt lat="48.900837" lon="2.180942">
        <ele>25.756503</ele>
        <time>2024-09-09T00:41:13.365Z</time>
      </trkpt>
      <trkpt lat="48.900931" lon="2.180909">
        <ele>25.760721</ele>
        <time>2024-09-09T00:41:16.505Z</time>
      </trkpt>
      <trkpt lat="48.901118" lon="2.180932">
        <ele>25.768924</ele>
        <time>2024-09-09T00:41:22.832Z</time>
      </trkpt>
      <trkpt lat="48.901300" lon="2.180825">
        <ele>25.777455</ele>
        <time>2024-09-09T00:41:29.512Z</time>
      </trkpt>
      <trkpt lat="48.901388" lon="2.180757">
        <ele>25.781770</ele>
        <time>2024-09-09T00:41:32.930Z</time>
      </trkpt>
      <trkpt lat="48.901404" lon="2.180807">
        <ele>25.783368</ele>
        <time>2024-09-09T00:41:33.934Z</time>
      </trkpt>
      <trkpt lat="48.901404" lon="2.180807">
        <ele>25.783368</ele>
        <time>2024-09-09T00:41:33.934Z</time>
      </trkpt>
      <trkpt lat="48.902122" lon="2.183000">
        <ele>26.126820</ele>
        <time>2024-09-09T00:42:11.107Z</time>
      </trkpt>
      <trkpt lat="48.902344" lon="2.183872">
        <ele>26.279273</ele>
        <time>2024-09-09T00:42:24.816Z</time>
      </trkpt>
      <trkpt lat="48.902455" lon="2.184374">
        <ele>26.250915</ele>
        <time>2024-09-09T00:42:32.200Z</time>
      </trkpt>
      <trkpt lat="48.902527" lon="2.184958">
        <ele>26.219101</ele>
        <time>2024-09-09T00:42:40.428Z</time>
      </trkpt>
      <trkpt lat="48.902773" lon="2.186226">
        <ele>26.148315</ele>
        <time>2024-09-09T00:42:58.595Z</time>
      </trkpt>
      <trkpt lat="48.902800" lon="2.186361">
        <ele>26.140760</ele>
        <time>2024-09-09T00:43:00.498Z</time>
      </trkpt>
      <trkpt lat="48.903053" lon="2.187647">
        <ele>26.183144</ele>
        <time>2024-09-09T00:43:19.400Z</time>
      </trkpt>
      <trkpt lat="48.903558" lon="2.189572">
        <ele>26.291509</ele>
        <time>2024-09-09T00:43:49.635Z</time>
      </trkpt>
      <trkpt lat="48.903912" lon="2.191069">
        <ele>26.432200</ele>
        <time>2024-09-09T00:44:12.350Z</time>
      </trkpt>
      <trkpt lat="48.904426" lon="2.193217">
        <ele>26.763630</ele>
        <time>2024-09-09T00:44:46.144Z</time>
      </trkpt>
      <trkpt lat="48.904510" lon="2.193462">
        <ele>26.808801</ele>
        <time>2024-09-09T00:44:50.266Z</time>
      </trkpt>
      <trkpt lat="48.904461" lon="2.193582">
        <ele>26.831894</ele>
        <time>2024-09-09T00:44:52.108Z</time>
      </trkpt>
      <trkpt lat="48.904269" lon="2.193886">
        <ele>26.900811</ele>
        <time>2024-09-09T00:44:57.875Z</time>
      </trkpt>
      <trkpt lat="48.904235" lon="2.193874">
        <ele>26.909491</ele>
        <time>2024-09-09T00:44:58.578Z</time>
      </trkpt>
      <trkpt lat="48.904187" lon="2.193840">
        <ele>26.922658</ele>
        <time>2024-09-09T00:44:59.640Z</time>
      </trkpt>
      <trkpt lat="48.904158" lon="2.193796">
        <ele>26.933123</ele>
        <time>2024-09-09T00:45:00.485Z</time>
      </trkpt>
      <trkpt lat="48.904107" lon="2.193800">
        <ele>26.946821</ele>
        <time>2024-09-09T00:45:01.565Z</time>
      </trkpt>
      <trkpt lat="48.904095" lon="2.193820">
        <ele>26.951595</ele>
        <time>2024-09-09T00:45:02.143Z</time>
      </trkpt>
      <trkpt lat="48.903761" lon="2.194362">
        <ele>27.082582</ele>
        <time>2024-09-09T00:45:18.522Z</time>
      </trkpt>
      <trkpt lat="48.903052" lon="2.195529">
        <ele>27.362761</ele>
        <time>2024-09-09T00:45:53.246Z</time>
      </trkpt>
      <trkpt lat="48.901797" lon="2.197598">
        <ele>27.626730</ele>
        <time>2024-09-09T00:46:53.515Z</time>
      </trkpt>
      <trkpt lat="48.901251" lon="2.198501">
        <ele>27.866284</ele>
        <time>2024-09-09T00:47:18.682Z</time>
      </trkpt>
      <trkpt lat="48.900878" lon="2.199118">
        <ele>28.047858</ele>
        <time>2024-09-09T00:47:37.310Z</time>
      </trkpt>
      <trkpt lat="48.900466" lon="2.199788">
        <ele>28.256722</ele>
        <time>2024-09-09T00:47:52.077Z</time>
      </trkpt>
      <trkpt lat="48.900334" lon="2.199997">
        <ele>28.381031</ele>
        <time>2024-09-09T00:47:56.465Z</time>
      </trkpt>
      <trkpt lat="48.900222" lon="2.200047">
        <ele>28.457188</ele>
        <time>2024-09-09T00:47:58.937Z</time>
      </trkpt>
      <trkpt lat="48.900177" lon="2.200080">
        <ele>28.489782</ele>
        <time>2024-09-09T00:47:59.903Z</time>
      </trkpt>
      <trkpt lat="48.900133" lon="2.200158">
        <ele>28.533865</ele>
        <time>2024-09-09T00:48:01.346Z</time>
      </trkpt>
      <trkpt lat="48.900120" lon="2.200181">
        <ele>28.546875</ele>
        <time>2024-09-09T00:48:01.778Z</time>
      </trkpt>
      <trkpt lat="48.900026" lon="2.200343">
        <ele>28.639553</ele>
        <time>2024-09-09T00:48:04.875Z</time>
      </trkpt>
      <trkpt lat="48.899748" lon="2.200781">
        <ele>28.900687</ele>
        <time>2024-09-09T00:48:18.796Z</time>
      </trkpt>
      <trkpt lat="48.899706" lon="2.200848">
        <ele>28.940395</ele>
        <time>2024-09-09T00:48:20.126Z</time>
      </trkpt>
      <trkpt lat="48.899620" lon="2.200967">
        <ele>29.016247</ele>
        <time>2024-09-09T00:48:22.865Z</time>
      </trkpt>
      <trkpt lat="48.899566" lon="2.201030">
        <ele>29.060649</ele>
        <time>2024-09-09T00:48:24.567Z</time>
      </trkpt>
      <trkpt lat="48.899619" lon="2.201107">
        <ele>29.108466</ele>
        <time>2024-09-09T00:48:26.218Z</time>
      </trkpt>
      <trkpt lat="48.899694" lon="2.201234">
        <ele>29.181689</ele>
        <time>2024-09-09T00:48:28.718Z</time>
      </trkpt>
      <trkpt lat="48.900085" lon="2.201902">
        <ele>29.466080</ele>
        <time>2024-09-09T00:48:49.828Z</time>
      </trkpt>
      <trkpt lat="48.900161" lon="2.202033">
        <ele>29.493207</ele>
        <time>2024-09-09T00:48:53.743Z</time>
      </trkpt>
      <trkpt lat="48.901081" lon="2.203459">
        <ele>29.803421</ele>
        <time>2024-09-09T00:50:25.015Z</time>
      </trkpt>
      <trkpt lat="48.901081" lon="2.203459">
        <ele>29.803421</ele>
        <time>2024-09-09T00:50:25.041Z</time>
      </trkpt>
      <trkpt lat="48.901978" lon="2.204798">
        <ele>30.245534</ele>
        <time>2024-09-09T00:51:52.368Z</time>
      </trkpt>
      <trkpt lat="48.902061" lon="2.204879">
        <ele>30.281563</ele>
        <time>2024-09-09T00:51:59.226Z</time>
      </trkpt>
      <trkpt lat="48.902152" lon="2.205010">
        <ele>30.327337</ele>
        <time>2024-09-09T00:52:01.963Z</time>
      </trkpt>
      <trkpt lat="48.902862" lon="2.206085">
        <ele>30.989263</ele>
        <time>2024-09-09T00:52:25.444Z</time>
      </trkpt>
      <trkpt lat="48.902865" lon="2.206106">
        <ele>31.002001</ele>
        <time>2024-09-09T00:52:25.763Z</time>
      </trkpt>
      <trkpt lat="48.902893" lon="2.206298">
        <ele>31.118573</ele>
        <time>2024-09-09T00:52:28.981Z</time>
      </trkpt>
      <trkpt lat="48.902913" lon="2.206331">
        <ele>31.145179</ele>
        <time>2024-09-09T00:52:29.625Z</time>
      </trkpt>
      <trkpt lat="48.902257" lon="2.207328">
        <ele>31.981329</ele>
        <time>2024-09-09T00:52:51.884Z</time>
      </trkpt>
      <trkpt lat="48.902067" lon="2.207704">
        <ele>32.213270</ele>
        <time>2024-09-09T00:52:59.425Z</time>
      </trkpt>
      <trkpt lat="48.901842" lon="2.208360">
        <ele>32.506942</ele>
        <time>2024-09-09T00:53:10.730Z</time>
      </trkpt>
      <trkpt lat="48.901520" lon="2.209440">
        <ele>32.977619</ele>
        <time>2024-09-09T00:53:27.729Z</time>
      </trkpt>
      <trkpt lat="48.901512" lon="2.209465">
        <ele>32.988654</ele>
        <time>2024-09-09T00:53:28.116Z</time>
      </trkpt>
      <trkpt lat="48.901401" lon="2.209814">
        <ele>33.142533</ele>
        <time>2024-09-09T00:53:33.523Z</time>
      </trkpt>
      <trkpt lat="48.901356" lon="2.209955">
        <ele>33.204367</ele>
        <time>2024-09-09T00:53:35.600Z</time>
      </trkpt>
      <trkpt lat="48.901292" lon="2.210190">
        <ele>33.297964</ele>
        <time>2024-09-09T00:53:39.056Z</time>
      </trkpt>
      <trkpt lat="48.901252" lon="2.210351">
        <ele>33.361294</ele>
        <time>2024-09-09T00:53:41.437Z</time>
      </trkpt>
      <trkpt lat="48.901234" lon="2.210422">
        <ele>33.389295</ele>
        <time>2024-09-09T00:53:42.404Z</time>
      </trkpt>
      <trkpt lat="48.901180" lon="2.210738">
        <ele>33.509433</ele>
        <time>2024-09-09T00:53:46.635Z</time>
      </trkpt>
      <trkpt lat="48.901194" lon="2.211462">
        <ele>33.775947</ele>
        <time>2024-09-09T00:53:55.974Z</time>
      </trkpt>
      <trkpt lat="48.901258" lon="2.212223">
        <ele>34.058243</ele>
        <time>2024-09-09T00:54:07.149Z</time>
      </trkpt>
      <trkpt lat="48.901247" lon="2.212356">
        <ele>34.107567</ele>
        <time>2024-09-09T00:54:09.264Z</time>
      </trkpt>
      <trkpt lat="48.901205" lon="2.212486">
        <ele>34.160866</ele>
        <time>2024-09-09T00:54:11.610Z</time>
      </trkpt>
      <trkpt lat="48.901008" lon="2.212749">
        <ele>34.549308</ele>
        <time>2024-09-09T00:54:18.904Z</time>
      </trkpt>
      <trkpt lat="48.900962" lon="2.212809">
        <ele>34.664249</ele>
        <time>2024-09-09T00:54:20.412Z</time>
      </trkpt>
      <trkpt lat="48.900899" lon="2.212888">
        <ele>34.819123</ele>
        <time>2024-09-09T00:54:22.694Z</time>
      </trkpt>
      <trkpt lat="48.900718" lon="2.213116">
        <ele>35.264896</ele>
        <time>2024-09-09T00:54:29.254Z</time>
      </trkpt>
      <trkpt lat="48.900692" lon="2.213147">
        <ele>35.327559</ele>
        <time>2024-09-09T00:54:30.046Z</time>
      </trkpt>
      <trkpt lat="48.900663" lon="2.213188">
        <ele>35.402659</ele>
        <time>2024-09-09T00:54:31.096Z</time>
      </trkpt>
      <trkpt lat="48.900382" lon="2.213530">
        <ele>36.085297</ele>
        <time>2024-09-09T00:54:40.702Z</time>
      </trkpt>
      <trkpt lat="48.900103" lon="2.213866">
        <ele>36.760308</ele>
        <time>2024-09-09T00:54:51.178Z</time>
      </trkpt>
      <trkpt lat="48.900037" lon="2.213992">
        <ele>36.961208</ele>
        <time>2024-09-09T00:54:54.273Z</time>
      </trkpt>
      <trkpt lat="48.899948" lon="2.214119">
        <ele>37.192686</ele>
        <time>2024-09-09T00:54:57.932Z</time>
      </trkpt>
      <trkpt lat="48.899799" lon="2.213958">
        <ele>37.539372</ele>
        <time>2024-09-09T00:55:04.119Z</time>
      </trkpt>
      <trkpt lat="48.899404" lon="2.213796">
        <ele>38.596950</ele>
        <time>2024-09-09T00:55:18.133Z</time>
      </trkpt>
      <trkpt lat="48.899180" lon="2.213775">
        <ele>39.194588</ele>
        <time>2024-09-09T00:55:26.091Z</time>
      </trkpt>
      <trkpt lat="48.899088" lon="2.213817">
        <ele>39.450377</ele>
        <time>2024-09-09T00:55:29.427Z</time>
      </trkpt>
      <trkpt lat="48.898914" lon="2.213798">
        <ele>39.914927</ele>
        <time>2024-09-09T00:55:35.350Z</time>
      </trkpt>
      <trkpt lat="48.898826" lon="2.214057">
        <ele>40.425314</ele>
        <time>2024-09-09T00:55:42.026Z</time>
      </trkpt>
      <trkpt lat="48.898857" lon="2.214065">
        <ele>40.509046</ele>
        <time>2024-09-09T00:55:42.758Z</time>
      </trkpt>
      <trkpt lat="48.898908" lon="2.214078">
        <ele>40.646751</ele>
        <time>2024-09-09T00:55:44.008Z</time>
      </trkpt>
      <trkpt lat="48.898763" lon="2.214580">
        <ele>41.606648</ele>
        <time>2024-09-09T00:55:54.872Z</time>
      </trkpt>
      <trkpt lat="48.898755" lon="2.214605">
        <ele>41.655323</ele>
        <time>2024-09-09T00:55:55.466Z</time>
      </trkpt>
      <trkpt lat="48.898747" lon="2.214637">
        <ele>41.715257</ele>
        <time>2024-09-09T00:55:56.244Z</time>
      </trkpt>
      <trkpt lat="48.898660" lon="2.214951">
        <ele>42.311779</ele>
        <time>2024-09-09T00:56:03.646Z</time>
      </trkpt>
      <trkpt lat="48.898585" lon="2.215213">
        <ele>42.782338</ele>
        <time>2024-09-09T00:56:09.103Z</time>
      </trkpt>
      <trkpt lat="48.898564" lon="2.215289">
        <ele>42.916051</ele>
        <time>2024-09-09T00:56:11.237Z</time>
      </trkpt>
      <trkpt lat="48.898494" lon="2.215517">
        <ele>43.324192</ele>
        <time>2024-09-09T00:56:16.255Z</time>
      </trkpt>
      <trkpt lat="48.898474" lon="2.215586">
        <ele>43.446501</ele>
        <time>2024-09-09T00:56:17.451Z</time>
      </trkpt>
      <trkpt lat="48.898414" lon="2.215798">
        <ele>43.820863</ele>
        <time>2024-09-09T00:56:23.389Z</time>
      </trkpt>
      <trkpt lat="48.898344" lon="2.216045">
        <ele>44.257123</ele>
        <time>2024-09-09T00:56:30.971Z</time>
      </trkpt>
      <trkpt lat="48.898330" lon="2.216095">
        <ele>44.345269</ele>
        <time>2024-09-09T00:56:31.884Z</time>
      </trkpt>
      <trkpt lat="48.898285" lon="2.216263">
        <ele>44.639505</ele>
        <time>2024-09-09T00:56:36.325Z</time>
      </trkpt>
      <trkpt lat="48.898180" lon="2.216637">
        <ele>45.299113</ele>
        <time>2024-09-09T00:56:44.395Z</time>
      </trkpt>
      <trkpt lat="48.898170" lon="2.216675">
        <ele>45.365502</ele>
        <time>2024-09-09T00:56:45.297Z</time>
      </trkpt>
      <trkpt lat="48.898157" lon="2.216733">
        <ele>45.464892</ele>
        <time>2024-09-09T00:56:46.670Z</time>
      </trkpt>
      <trkpt lat="48.898136" lon="2.216809">
        <ele>45.598606</ele>
        <time>2024-09-09T00:56:48.506Z</time>
      </trkpt>
      <trkpt lat="48.897796" lon="2.218040">
        <ele>47.722177</ele>
        <time>2024-09-09T00:57:14.622Z</time>
      </trkpt>
      <trkpt lat="48.897774" lon="2.218143">
        <ele>47.889783</ele>
        <time>2024-09-09T00:57:16.875Z</time>
      </trkpt>
      <trkpt lat="48.897803" lon="2.218216">
        <ele>48.021784</ele>
        <time>2024-09-09T00:57:18.752Z</time>
      </trkpt>
      <trkpt lat="48.897789" lon="2.218267">
        <ele>48.107317</ele>
        <time>2024-09-09T00:57:19.966Z</time>
      </trkpt>
      <trkpt lat="48.897776" lon="2.218312">
        <ele>48.183387</ele>
        <time>2024-09-09T00:57:21.004Z</time>
      </trkpt>
      <trkpt lat="48.897745" lon="2.218426">
        <ele>48.374312</ele>
        <time>2024-09-09T00:57:23.570Z</time>
      </trkpt>
      <trkpt lat="48.897731" lon="2.218475">
        <ele>48.456997</ele>
        <time>2024-09-09T00:57:24.629Z</time>
      </trkpt>
      <trkpt lat="48.897530" lon="2.219098">
        <ele>49.531013</ele>
        <time>2024-09-09T00:57:39.437Z</time>
      </trkpt>
      <trkpt lat="48.897512" lon="2.219155">
        <ele>49.628877</ele>
        <time>2024-09-09T00:57:40.841Z</time>
      </trkpt>
      <trkpt lat="48.897491" lon="2.219226">
        <ele>49.749367</ele>
        <time>2024-09-09T00:57:42.593Z</time>
      </trkpt>
      <trkpt lat="48.897483" lon="2.219251">
        <ele>49.792397</ele>
        <time>2024-09-09T00:57:43.189Z</time>
      </trkpt>
      <trkpt lat="48.897474" lon="2.219279">
        <ele>49.840633</ele>
        <time>2024-09-09T00:57:43.852Z</time>
      </trkpt>
      <trkpt lat="48.897462" lon="2.219319">
        <ele>49.908679</ele>
        <time>2024-09-09T00:57:44.833Z</time>
      </trkpt>
      <trkpt lat="48.897456" lon="2.219338">
        <ele>49.941300</ele>
        <time>2024-09-09T00:57:45.271Z</time>
      </trkpt>
      <trkpt lat="48.897450" lon="2.219356">
        <ele>49.972534</ele>
        <time>2024-09-09T00:57:45.694Z</time>
      </trkpt>
      <trkpt lat="48.897388" lon="2.219525">
        <ele>50.272051</ele>
        <time>2024-09-09T00:57:49.516Z</time>
      </trkpt>
      <trkpt lat="48.897346" lon="2.219557">
        <ele>50.382633</ele>
        <time>2024-09-09T00:57:51.070Z</time>
      </trkpt>
      <trkpt lat="48.897214" lon="2.219974">
        <ele>51.090396</ele>
        <time>2024-09-09T00:58:00.017Z</time>
      </trkpt>
      <trkpt lat="48.897149" lon="2.220181">
        <ele>51.286779</ele>
        <time>2024-09-09T00:58:04.697Z</time>
      </trkpt>
      <trkpt lat="48.897088" lon="2.220373">
        <ele>51.469332</ele>
        <time>2024-09-09T00:58:08.596Z</time>
      </trkpt>
      <trkpt lat="48.896962" lon="2.220772">
        <ele>51.848269</ele>
        <time>2024-09-09T00:58:16.541Z</time>
      </trkpt>
      <trkpt lat="48.896820" lon="2.221223">
        <ele>52.276354</ele>
        <time>2024-09-09T00:58:25.183Z</time>
      </trkpt>
      <trkpt lat="48.896685" lon="2.221651">
        <ele>52.682745</ele>
        <time>2024-09-09T00:58:33.126Z</time>
      </trkpt>
      <trkpt lat="48.896555" lon="2.222063">
        <ele>53.073971</ele>
        <time>2024-09-09T00:58:40.057Z</time>
      </trkpt>
      <trkpt lat="48.896431" lon="2.222452">
        <ele>53.426093</ele>
        <time>2024-09-09T00:58:46.466Z</time>
      </trkpt>
      <trkpt lat="48.896332" lon="2.222769">
        <ele>53.481622</ele>
        <time>2024-09-09T00:58:51.248Z</time>
      </trkpt>
      <trkpt lat="48.896162" lon="2.223308">
        <ele>53.576210</ele>
        <time>2024-09-09T00:58:59.339Z</time>
      </trkpt>
      <trkpt lat="48.896158" lon="2.223336">
        <ele>53.580744</ele>
        <time>2024-09-09T00:58:59.824Z</time>
      </trkpt>
      <trkpt lat="48.896161" lon="2.223354">
        <ele>53.583682</ele>
        <time>2024-09-09T00:59:00.132Z</time>
      </trkpt>
      <trkpt lat="48.896149" lon="2.223397">
        <ele>53.591073</ele>
        <time>2024-09-09T00:59:00.844Z</time>
      </trkpt>
      <trkpt lat="48.896145" lon="2.223410">
        <ele>53.593344</ele>
        <time>2024-09-09T00:59:01.062Z</time>
      </trkpt>
      <trkpt lat="48.896124" lon="2.223483">
        <ele>53.605952</ele>
        <time>2024-09-09T00:59:02.138Z</time>
      </trkpt>
      <trkpt lat="48.896101" lon="2.223557">
        <ele>53.618903</ele>
        <time>2024-09-09T00:59:03.238Z</time>
      </trkpt>
      <trkpt lat="48.896087" lon="2.223586">
        <ele>53.624596</ele>
        <time>2024-09-09T00:59:03.798Z</time>
      </trkpt>
      <trkpt lat="48.896078" lon="2.223604">
        <ele>53.628174</ele>
        <time>2024-09-09T00:59:04.166Z</time>
      </trkpt>
      <trkpt lat="48.896067" lon="2.223626">
        <ele>53.632547</ele>
        <time>2024-09-09T00:59:04.567Z</time>
      </trkpt>
      <trkpt lat="48.895991" lon="2.223861">
        <ele>53.673985</ele>
        <time>2024-09-09T00:59:08.210Z</time>
      </trkpt>
      <trkpt lat="48.895790" lon="2.224500">
        <ele>53.786067</ele>
        <time>2024-09-09T00:59:17.989Z</time>
      </trkpt>
      <trkpt lat="48.895665" lon="2.224886">
        <ele>53.854149</ele>
        <time>2024-09-09T00:59:23.098Z</time>
      </trkpt>
      <trkpt lat="48.895545" lon="2.225274">
        <ele>53.786293</ele>
        <time>2024-09-09T00:59:27.996Z</time>
      </trkpt>
      <trkpt lat="48.895473" lon="2.225492">
        <ele>53.746822</ele>
        <time>2024-09-09T00:59:30.724Z</time>
      </trkpt>
      <trkpt lat="48.895406" lon="2.225706">
        <ele>53.708474</ele>
        <time>2024-09-09T00:59:33.515Z</time>
      </trkpt>
      <trkpt lat="48.895244" lon="2.226224">
        <ele>53.615667</ele>
        <time>2024-09-09T00:59:40.862Z</time>
      </trkpt>
      <trkpt lat="48.895126" lon="2.226584">
        <ele>53.550585</ele>
        <time>2024-09-09T00:59:46.242Z</time>
      </trkpt>
      <trkpt lat="48.894993" lon="2.227007">
        <ele>53.474724</ele>
        <time>2024-09-09T00:59:51.897Z</time>
      </trkpt>
      <trkpt lat="48.894850" lon="2.227494">
        <ele>53.466836</ele>
        <time>2024-09-09T00:59:58.178Z</time>
      </trkpt>
      <trkpt lat="48.894848" lon="2.227547">
        <ele>53.486498</ele>
        <time>2024-09-09T00:59:58.839Z</time>
      </trkpt>
      <trkpt lat="48.894838" lon="2.227585">
        <ele>53.501658</ele>
        <time>2024-09-09T00:59:59.413Z</time>
      </trkpt>
      <trkpt lat="48.894818" lon="2.227652">
        <ele>53.528910</ele>
        <time>2024-09-09T01:00:00.229Z</time>
      </trkpt>
      <trkpt lat="48.894799" lon="2.227716">
        <ele>53.554918</ele>
        <time>2024-09-09T01:00:00.973Z</time>
      </trkpt>
      <trkpt lat="48.894786" lon="2.227761">
        <ele>53.573123</ele>
        <time>2024-09-09T01:00:01.488Z</time>
      </trkpt>
      <trkpt lat="48.894556" lon="2.227630">
        <ele>53.711477</ele>
        <time>2024-09-09T01:00:06.072Z</time>
      </trkpt>
      <trkpt lat="48.894526" lon="2.227707">
        <ele>53.744627</ele>
        <time>2024-09-09T01:00:07.026Z</time>
      </trkpt>
      <trkpt lat="48.894531" lon="2.227963">
        <ele>53.839483</ele>
        <time>2024-09-09T01:00:10.522Z</time>
      </trkpt>
      <trkpt lat="48.894686" lon="2.228702">
        <ele>54.126775</ele>
        <time>2024-09-09T01:00:21.518Z</time>
      </trkpt>
      <trkpt lat="48.894716" lon="2.228848">
        <ele>54.183428</ele>
        <time>2024-09-09T01:00:23.904Z</time>
      </trkpt>
      <trkpt lat="48.894687" lon="2.228964">
        <ele>54.229392</ele>
        <time>2024-09-09T01:00:26.758Z</time>
      </trkpt>
      <trkpt lat="48.894542" lon="2.229509">
        <ele>54.485216</ele>
        <time>2024-09-09T01:00:38.466Z</time>
      </trkpt>
      <trkpt lat="48.894438" lon="2.229727">
        <ele>54.760606</ele>
        <time>2024-09-09T01:00:43.199Z</time>
      </trkpt>
      <trkpt lat="48.894368" lon="2.229820">
        <ele>54.905148</ele>
        <time>2024-09-09T01:00:45.590Z</time>
      </trkpt>
      <trkpt lat="48.894314" lon="2.229902">
        <ele>55.023814</ele>
        <time>2024-09-09T01:00:48.371Z</time>
      </trkpt>
      <trkpt lat="48.894264" lon="2.229978">
        <ele>55.133744</ele>
        <time>2024-09-09T01:00:50.532Z</time>
      </trkpt>
      <trkpt lat="48.893937" lon="2.230977">
        <ele>56.274763</ele>
        <time>2024-09-09T01:01:13.497Z</time>
      </trkpt>
      <trkpt lat="48.893813" lon="2.231361">
        <ele>56.712186</ele>
        <time>2024-09-09T01:01:22.844Z</time>
      </trkpt>
      <trkpt lat="48.893464" lon="2.232272">
        <ele>57.641804</ele>
        <time>2024-09-09T01:01:46.399Z</time>
      </trkpt>
      <trkpt lat="48.893108" lon="2.233401">
        <ele>58.587221</ele>
        <time>2024-09-09T01:02:16.855Z</time>
      </trkpt>
      <trkpt lat="48.893023" lon="2.233583">
        <ele>58.755782</ele>
        <time>2024-09-09T01:02:21.707Z</time>
      </trkpt>
      <trkpt lat="48.892962" lon="2.233650">
        <ele>58.842192</ele>
        <time>2024-09-09T01:02:23.754Z</time>
      </trkpt>
      <trkpt lat="48.892908" lon="2.233688">
        <ele>58.910522</ele>
        <time>2024-09-09T01:02:25.294Z</time>
      </trkpt>
      <trkpt lat="48.892762" lon="2.233774">
        <ele>59.090326</ele>
        <time>2024-09-09T01:02:30.087Z</time>
      </trkpt>
      <trkpt lat="48.892665" lon="2.233817">
        <ele>59.206358</ele>
        <time>2024-09-09T01:02:32.934Z</time>
      </trkpt>
      <trkpt lat="48.892650" lon="2.233823">
        <ele>59.224170</ele>
        <time>2024-09-09T01:02:33.324Z</time>
      </trkpt>
      <trkpt lat="48.892542" lon="2.233871">
        <ele>59.132546</ele>
        <time>2024-09-09T01:02:35.744Z</time>
      </trkpt>
      <trkpt lat="48.892328" lon="2.234612">
        <ele>57.669929</ele>
        <time>2024-09-09T01:02:46.448Z</time>
      </trkpt>
      <trkpt lat="48.892005" lon="2.235740">
        <ele>55.446471</ele>
        <time>2024-09-09T01:03:02.033Z</time>
      </trkpt>
      <trkpt lat="48.891849" lon="2.236109">
        <ele>54.653651</ele>
        <time>2024-09-09T01:03:07.892Z</time>
      </trkpt>
      <trkpt lat="48.891792" lon="2.236244">
        <ele>54.363704</ele>
        <time>2024-09-09T01:03:09.959Z</time>
      </trkpt>
      <trkpt lat="48.891702" lon="2.236344">
        <ele>54.364624</ele>
        <time>2024-09-09T01:03:11.616Z</time>
      </trkpt>
      <trkpt lat="48.891586" lon="2.236721">
        <ele>54.417550</ele>
        <time>2024-09-09T01:03:15.610Z</time>
      </trkpt>
      <trkpt lat="48.891804" lon="2.236897">
        <ele>54.465281</ele>
        <time>2024-09-09T01:03:19.355Z</time>
      </trkpt>
      <trkpt lat="48.891752" lon="2.237056">
        <ele>54.487861</ele>
        <time>2024-09-09T01:03:21.268Z</time>
      </trkpt>
      <trkpt lat="48.891367" lon="2.238252">
        <ele>54.657186</ele>
        <time>2024-09-09T01:03:48.082Z</time>
      </trkpt>
      <trkpt lat="48.891071" lon="2.239168">
        <ele>56.013739</ele>
        <time>2024-09-09T01:04:21.902Z</time>
      </trkpt>
      <trkpt lat="48.890985" lon="2.239444">
        <ele>56.555694</ele>
        <time>2024-09-09T01:04:32.061Z</time>
      </trkpt>
      <trkpt lat="48.890939" lon="2.239603">
        <ele>56.863934</ele>
        <time>2024-09-09T01:04:37.151Z</time>
      </trkpt>
      <trkpt lat="48.890826" lon="2.239975">
        <ele>57.591065</ele>
        <time>2024-09-09T01:04:47.021Z</time>
      </trkpt>
      <trkpt lat="48.890713" lon="2.240347">
        <ele>58.318198</ele>
        <time>2024-09-09T01:04:55.466Z</time>
      </trkpt>
      <trkpt lat="48.890678" lon="2.240516">
        <ele>58.632604</ele>
        <time>2024-09-09T01:04:58.236Z</time>
      </trkpt>
      <trkpt lat="48.890889" lon="2.240944">
        <ele>59.521606</ele>
        <time>2024-09-09T01:05:05.760Z</time>
      </trkpt>
      <trkpt lat="48.891133" lon="2.241519">
        <ele>58.671217</ele>
        <time>2024-09-09T01:05:14.220Z</time>
      </trkpt>
      <trkpt lat="48.890787" lon="2.242734">
        <ele>57.025917</ele>
        <time>2024-09-09T01:05:27.698Z</time>
      </trkpt>
      <trkpt lat="48.890839" lon="2.242779">
        <ele>56.912847</ele>
        <time>2024-09-09T01:05:28.836Z</time>
      </trkpt>
      <trkpt lat="48.891422" lon="2.243214">
        <ele>55.582376</ele>
        <time>2024-09-09T01:05:41.105Z</time>
      </trkpt>
      <trkpt lat="48.891499" lon="2.243331">
        <ele>55.330678</ele>
        <time>2024-09-09T01:05:42.616Z</time>
      </trkpt>
      <trkpt lat="48.891520" lon="2.243363">
        <ele>55.261935</ele>
        <time>2024-09-09T01:05:43.075Z</time>
      </trkpt>
      <trkpt lat="48.891569" lon="2.243344">
        <ele>55.144998</ele>
        <time>2024-09-09T01:05:43.879Z</time>
      </trkpt>
      <trkpt lat="48.891682" lon="2.243591">
        <ele>54.687482</ele>
        <time>2024-09-09T01:05:46.988Z</time>
      </trkpt>
      <trkpt lat="48.891817" lon="2.243912">
        <ele>54.108117</ele>
        <time>2024-09-09T01:05:51.154Z</time>
      </trkpt>
      <trkpt lat="48.891903" lon="2.244119">
        <ele>53.735819</ele>
        <time>2024-09-09T01:05:53.474Z</time>
      </trkpt>
      <trkpt lat="48.891937" lon="2.244198">
        <ele>53.592260</ele>
        <time>2024-09-09T01:05:54.584Z</time>
      </trkpt>
      <trkpt lat="48.891962" lon="2.244260">
        <ele>53.481677</ele>
        <time>2024-09-09T01:05:55.678Z</time>
      </trkpt>
      <trkpt lat="48.892099" lon="2.244585">
        <ele>52.894699</ele>
        <time>2024-09-09T01:05:59.573Z</time>
      </trkpt>
      <trkpt lat="48.892145" lon="2.244695">
        <ele>52.696489</ele>
        <time>2024-09-09T01:06:01.085Z</time>
      </trkpt>
      <trkpt lat="48.892163" lon="2.244737">
        <ele>52.620263</ele>
        <time>2024-09-09T01:06:01.776Z</time>
      </trkpt>
      <trkpt lat="48.892418" lon="2.245357">
        <ele>51.825475</ele>
        <time>2024-09-09T01:06:09.353Z</time>
      </trkpt>
      <trkpt lat="48.892490" lon="2.245531">
        <ele>51.719664</ele>
        <time>2024-09-09T01:06:11.223Z</time>
      </trkpt>
      <trkpt lat="48.892575" lon="2.245746">
        <ele>51.590548</ele>
        <time>2024-09-09T01:06:14.373Z</time>
      </trkpt>
      <trkpt lat="48.892741" lon="2.246143">
        <ele>51.348408</ele>
        <time>2024-09-09T01:06:19.108Z</time>
      </trkpt>
      <trkpt lat="48.892776" lon="2.246227">
        <ele>51.297226</ele>
        <time>2024-09-09T01:06:20.453Z</time>
      </trkpt>
      <trkpt lat="48.893001" lon="2.246765">
        <ele>50.969070</ele>
        <time>2024-09-09T01:06:30.291Z</time>
      </trkpt>
      <trkpt lat="48.893037" lon="2.246853">
        <ele>50.915729</ele>
        <time>2024-09-09T01:06:31.594Z</time>
      </trkpt>
      <trkpt lat="48.893704" lon="2.248449">
        <ele>49.917301</ele>
        <time>2024-09-09T01:06:53.637Z</time>
      </trkpt>
      <trkpt lat="48.893990" lon="2.249136">
        <ele>49.482310</ele>
        <time>2024-09-09T01:07:02.571Z</time>
      </trkpt>
      <trkpt lat="48.894168" lon="2.249322">
        <ele>49.306592</ele>
        <time>2024-09-09T01:07:06.313Z</time>
      </trkpt>
      <trkpt lat="48.894275" lon="2.249311">
        <ele>49.219331</ele>
        <time>2024-09-09T01:07:08.038Z</time>
      </trkpt>
      <trkpt lat="48.894326" lon="2.249306">
        <ele>49.177748</ele>
        <time>2024-09-09T01:07:08.928Z</time>
      </trkpt>
      <trkpt lat="48.894539" lon="2.249374">
        <ele>49.033494</ele>
        <time>2024-09-09T01:07:12.848Z</time>
      </trkpt>
      <trkpt lat="48.894690" lon="2.249479">
        <ele>48.936756</ele>
        <time>2024-09-09T01:07:15.733Z</time>
      </trkpt>
      <trkpt lat="48.894819" lon="2.249637">
        <ele>48.840256</ele>
        <time>2024-09-09T01:07:18.707Z</time>
      </trkpt>
      <trkpt lat="48.894911" lon="2.249799">
        <ele>48.758255</ele>
        <time>2024-09-09T01:07:21.105Z</time>
      </trkpt>
      <trkpt lat="48.894996" lon="2.249946">
        <ele>48.683265</ele>
        <time>2024-09-09T01:07:23.431Z</time>
      </trkpt>
      <trkpt lat="48.895057" lon="2.250012">
        <ele>48.639649</ele>
        <time>2024-09-09T01:07:24.767Z</time>
      </trkpt>
      <trkpt lat="48.895106" lon="2.250092">
        <ele>48.597766</ele>
        <time>2024-09-09T01:07:26.014Z</time>
      </trkpt>
      <trkpt lat="48.895190" lon="2.250169">
        <ele>48.540623</ele>
        <time>2024-09-09T01:07:27.688Z</time>
      </trkpt>
      <trkpt lat="48.895428" lon="2.250406">
        <ele>48.374879</ele>
        <time>2024-09-09T01:07:32.824Z</time>
      </trkpt>
      <trkpt lat="48.895485" lon="2.250487">
        <ele>48.329430</ele>
        <time>2024-09-09T01:07:34.564Z</time>
      </trkpt>
      <trkpt lat="48.895876" lon="2.251088">
        <ele>48.065859</ele>
        <time>2024-09-09T01:07:45.931Z</time>
      </trkpt>
      <trkpt lat="48.896075" lon="2.251485">
        <ele>48.058341</ele>
        <time>2024-09-09T01:07:52.337Z</time>
      </trkpt>
      <trkpt lat="48.896266" lon="2.251891">
        <ele>48.050822</ele>
        <time>2024-09-09T01:07:58.944Z</time>
      </trkpt>
      <trkpt lat="48.896348" lon="2.252016">
        <ele>48.048163</ele>
        <time>2024-09-09T01:08:01.144Z</time>
      </trkpt>
      <trkpt lat="48.896337" lon="2.252226">
        <ele>48.044990</ele>
        <time>2024-09-09T01:08:04.308Z</time>
      </trkpt>
      <trkpt lat="48.896361" lon="2.252339">
        <ele>48.043202</ele>
        <time>2024-09-09T01:08:05.843Z</time>
      </trkpt>
      <trkpt lat="48.896417" lon="2.252511">
        <ele>48.040311</ele>
        <time>2024-09-09T01:08:08.312Z</time>
      </trkpt>
      <trkpt lat="48.896461" lon="2.252633">
        <ele>48.038215</ele>
        <time>2024-09-09T01:08:10.347Z</time>
      </trkpt>
      <trkpt lat="48.896508" lon="2.252940">
        <ele>48.033468</ele>
        <time>2024-09-09T01:08:14.335Z</time>
      </trkpt>
      <trkpt lat="48.896674" lon="2.254743">
        <ele>47.785184</ele>
        <time>2024-09-09T01:08:36.981Z</time>
      </trkpt>
      <trkpt lat="48.896678" lon="2.254815">
        <ele>47.772691</ele>
        <time>2024-09-09T01:08:38.084Z</time>
      </trkpt>
      <trkpt lat="48.896755" lon="2.254882">
        <ele>47.749362</ele>
        <time>2024-09-09T01:08:39.580Z</time>
      </trkpt>
      <trkpt lat="48.896808" lon="2.255221">
        <ele>47.689117</ele>
        <time>2024-09-09T01:08:43.690Z</time>
      </trkpt>
      <trkpt lat="48.896825" lon="2.255399">
        <ele>47.658019</ele>
        <time>2024-09-09T01:08:45.933Z</time>
      </trkpt>
      <trkpt lat="48.896807" lon="2.255581">
        <ele>47.626198</ele>
        <time>2024-09-09T01:08:48.212Z</time>
      </trkpt>
      <trkpt lat="48.896827" lon="2.255836">
        <ele>47.581798</ele>
        <time>2024-09-09T01:08:51.924Z</time>
      </trkpt>
      <trkpt lat="48.896847" lon="2.256236">
        <ele>47.608534</ele>
        <time>2024-09-09T01:08:56.967Z</time>
      </trkpt>
      <trkpt lat="48.896854" lon="2.256372">
        <ele>47.639347</ele>
        <time>2024-09-09T01:08:59.363Z</time>
      </trkpt>
      <trkpt lat="48.896853" lon="2.256495">
        <ele>47.667131</ele>
        <time>2024-09-09T01:09:00.915Z</time>
      </trkpt>
      <trkpt lat="48.896853" lon="2.256556">
        <ele>47.680909</ele>
        <time>2024-09-09T01:09:01.746Z</time>
      </trkpt>
      <trkpt lat="48.897033" lon="2.256543">
        <ele>47.742822</ele>
        <time>2024-09-09T01:09:05.804Z</time>
      </trkpt>
      <trkpt lat="48.897035" lon="2.256490">
        <ele>47.754813</ele>
        <time>2024-09-09T01:09:06.628Z</time>
      </trkpt>
      <trkpt lat="48.897189" lon="2.256469">
        <ele>47.807936</ele>
        <time>2024-09-09T01:09:09.523Z</time>
      </trkpt>
      <trkpt lat="48.897573" lon="2.256523">
        <ele>47.940431</ele>
        <time>2024-09-09T01:09:17.846Z</time>
      </trkpt>
      <trkpt lat="48.897722" lon="2.256544">
        <ele>47.991843</ele>
        <time>2024-09-09T01:09:21.323Z</time>
      </trkpt>
      <trkpt lat="48.897721" lon="2.256670">
        <ele>48.020304</ele>
        <time>2024-09-09T01:09:23.111Z</time>
      </trkpt>
      <trkpt lat="48.897962" lon="2.257437">
        <ele>48.100651</ele>
        <time>2024-09-09T01:09:34.754Z</time>
      </trkpt>
      <trkpt lat="48.897973" lon="2.257467">
        <ele>48.086881</ele>
        <time>2024-09-09T01:09:35.317Z</time>
      </trkpt>
      <trkpt lat="48.898087" lon="2.257798">
        <ele>47.937090</ele>
        <time>2024-09-09T01:09:40.162Z</time>
      </trkpt>
      <trkpt lat="48.898095" lon="2.257823">
        <ele>47.925944</ele>
        <time>2024-09-09T01:09:40.620Z</time>
      </trkpt>
      <trkpt lat="48.898207" lon="2.258149">
        <ele>47.778495</ele>
        <time>2024-09-09T01:09:45.512Z</time>
      </trkpt>
      <trkpt lat="48.898572" lon="2.259264">
        <ele>47.279190</ele>
        <time>2024-09-09T01:09:59.167Z</time>
      </trkpt>
      <trkpt lat="48.898598" lon="2.259338">
        <ele>47.245556</ele>
        <time>2024-09-09T01:10:00.169Z</time>
      </trkpt>
      <trkpt lat="48.898750" lon="2.259780">
        <ele>47.025020</ele>
        <time>2024-09-09T01:10:05.403Z</time>
      </trkpt>
      <trkpt lat="48.898965" lon="2.260386">
        <ele>46.557855</ele>
        <time>2024-09-09T01:10:13.177Z</time>
      </trkpt>
      <trkpt lat="48.899064" lon="2.260642">
        <ele>46.356361</ele>
        <time>2024-09-09T01:10:16.430Z</time>
      </trkpt>
      <trkpt lat="48.899140" lon="2.260833">
        <ele>46.204898</ele>
        <time>2024-09-09T01:10:19.199Z</time>
      </trkpt>
      <trkpt lat="48.899496" lon="2.261689">
        <ele>45.517734</ele>
        <time>2024-09-09T01:10:30.425Z</time>
      </trkpt>
      <trkpt lat="48.898752" lon="2.262416">
        <ele>43.335007</ele>
        <time>2024-09-09T01:10:45.081Z</time>
      </trkpt>
      <trkpt lat="48.898295" lon="2.262889">
        <ele>41.584517</ele>
        <time>2024-09-09T01:10:53.187Z</time>
      </trkpt>
      <trkpt lat="48.898200" lon="2.262985">
        <ele>41.223331</ele>
        <time>2024-09-09T01:10:54.867Z</time>
      </trkpt>
      <trkpt lat="48.897993" lon="2.263189">
        <ele>40.442239</ele>
        <time>2024-09-09T01:10:58.087Z</time>
      </trkpt>
      <trkpt lat="48.897937" lon="2.263244">
        <ele>40.231142</ele>
        <time>2024-09-09T01:10:58.976Z</time>
      </trkpt>
      <trkpt lat="48.897830" lon="2.263351">
        <ele>39.825625</ele>
        <time>2024-09-09T01:11:00.621Z</time>
      </trkpt>
      <trkpt lat="48.897742" lon="2.263434">
        <ele>39.492059</ele>
        <time>2024-09-09T01:11:01.898Z</time>
      </trkpt>
      <trkpt lat="48.897545" lon="2.263637">
        <ele>38.570805</ele>
        <time>2024-09-09T01:11:05.063Z</time>
      </trkpt>
      <trkpt lat="48.897458" lon="2.263666">
        <ele>38.225977</ele>
        <time>2024-09-09T01:11:06.186Z</time>
      </trkpt>
      <trkpt lat="48.897215" lon="2.263920">
        <ele>37.084444</ele>
        <time>2024-09-09T01:11:10.146Z</time>
      </trkpt>
      <trkpt lat="48.897096" lon="2.264073">
        <ele>36.481181</ele>
        <time>2024-09-09T01:11:12.242Z</time>
      </trkpt>
      <trkpt lat="48.896933" lon="2.264188">
        <ele>35.785520</ele>
        <time>2024-09-09T01:11:14.852Z</time>
      </trkpt>
      <trkpt lat="48.896764" lon="2.264319">
        <ele>35.051147</ele>
        <time>2024-09-09T01:11:17.555Z</time>
      </trkpt>
      <trkpt lat="48.896693" lon="2.264370">
        <ele>34.747149</ele>
        <time>2024-09-09T01:11:18.706Z</time>
      </trkpt>
      <trkpt lat="48.896650" lon="2.264407">
        <ele>34.555876</ele>
        <time>2024-09-09T01:11:19.427Z</time>
      </trkpt>
      <trkpt lat="48.896510" lon="2.264527">
        <ele>33.933708</ele>
        <time>2024-09-09T01:11:21.739Z</time>
      </trkpt>
      <trkpt lat="48.895740" lon="2.265315">
        <ele>32.078098</ele>
        <time>2024-09-09T01:11:35.784Z</time>
      </trkpt>
      <trkpt lat="48.895536" lon="2.265539">
        <ele>31.866799</ele>
        <time>2024-09-09T01:11:39.977Z</time>
      </trkpt>
      <trkpt lat="48.895364" lon="2.265700">
        <ele>31.697190</ele>
        <time>2024-09-09T01:11:43.628Z</time>
      </trkpt>
      <trkpt lat="48.895318" lon="2.265740">
        <ele>31.652690</ele>
        <time>2024-09-09T01:11:44.635Z</time>
      </trkpt>
      <trkpt lat="48.895227" lon="2.265668">
        <ele>31.566546</ele>
        <time>2024-09-09T01:11:47.343Z</time>
      </trkpt>
      <trkpt lat="48.895141" lon="2.265568">
        <ele>31.475635</ele>
        <time>2024-09-09T01:11:49.989Z</time>
      </trkpt>
      <trkpt lat="48.895049" lon="2.265375">
        <ele>31.344010</ele>
        <time>2024-09-09T01:11:54.262Z</time>
      </trkpt>
      <trkpt lat="48.894756" lon="2.264762">
        <ele>30.846709</ele>
        <time>2024-09-09T01:12:05.177Z</time>
      </trkpt>
      <trkpt lat="48.894368" lon="2.264125">
        <ele>30.060620</ele>
        <time>2024-09-09T01:12:15.399Z</time>
      </trkpt>
      <trkpt lat="48.893960" lon="2.263455">
        <ele>29.233897</ele>
        <time>2024-09-09T01:12:24.949Z</time>
      </trkpt>
      <trkpt lat="48.893750" lon="2.263171">
        <ele>28.846977</ele>
        <time>2024-09-09T01:12:29.541Z</time>
      </trkpt>
      <trkpt lat="48.893279" lon="2.262539">
        <ele>28.572262</ele>
        <time>2024-09-09T01:12:39.679Z</time>
      </trkpt>
      <trkpt lat="48.892778" lon="2.262134">
        <ele>28.572262</ele>
        <time>2024-09-09T01:12:49.456Z</time>
      </trkpt>
      <trkpt lat="48.892601" lon="2.262034">
        <ele>28.572262</ele>
        <time>2024-09-09T01:12:53.063Z</time>
      </trkpt>
      <trkpt lat="48.892357" lon="2.262301">
        <ele>28.572262</ele>
        <time>2024-09-09T01:12:58.674Z</time>
      </trkpt>
      <trkpt lat="48.892290" lon="2.262410">
        <ele>28.572262</ele>
        <time>2024-09-09T01:13:00.480Z</time>
      </trkpt>
      <trkpt lat="48.892245" lon="2.262505">
        <ele>28.572262</ele>
        <time>2024-09-09T01:13:01.966Z</time>
      </trkpt>
      <trkpt lat="48.892243" lon="2.262509">
        <ele>28.572262</ele>
        <time>2024-09-09T01:13:02.030Z</time>
      </trkpt>
      <trkpt lat="48.891604" lon="2.261865">
        <ele>28.572262</ele>
        <time>2024-09-09T01:13:34.813Z</time>
      </trkpt>
    </trkseg>
  </trk>
</gpx>